Time,TemperatureF,DewpointF,PressureIn,WindDirection,WindDirectionDegrees,WindSpeedMPH,WindSpeedGustMPH,Humidity,HourlyPrecipIn,Conditions,Clouds,dailyrainin,SoftwareType,DateUTC
2013-03-31 00:00:00,62.6,60.1,29.97,SW,225,0.0,0.0,92,0.00,,,0.16,VWS V14.01,2013-03-31 05:00:00,
2013-03-31 00:01:00,62.4,59.9,29.97,SW,225,0.0,0.0,92,0.00,,,0.00,VWS V14.01,2013-03-31 05:01:00,
2013-03-31 00:02:00,62.4,59.9,29.97,SW,225,0.0,0.0,92,0.00,,,0.00,VWS V14.01,2013-03-31 05:02:00,
2013-03-31 00:03:00,62.6,60.1,29.97,SW,225,0.0,0.0,92,0.00,,,0.00,VWS V14.01,2013-03-31 05:03:00,
2013-03-31 00:04:00,62.6,60.1,29.97,SW,225,0.0,0.0,92,0.00,,,0.00,VWS V14.01,2013-03-31 05:04:00,
2013-03-31 00:05:00,62.2,59.7,29.97,SW,225,0.0,0.0,92,0.00,,,0.00,VWS V14.01,2013-03-31 05:05:00,
2013-03-31 00:06:00,62.2,59.7,29.97,SW,225,0.0,0.0,92,0.00,,,0.00,VWS V14.01,2013-03-31 05:06:00,
2013-03-31 00:07:00,62.4,59.9,29.97,SW,225,0.0,0.0,92,0.00,,,0.00,VWS V14.01,2013-03-31 05:07:00,
2013-03-31 00:08:00,62.6,60.1,29.97,SW,225,0.0,0.0,92,0.00,,,0.00,VWS V14.01,2013-03-31 05:08:00,
2013-03-31 00:09:00,62.8,60.3,29.97,SW,225,0.0,0.0,92,0.00,,,0.00,VWS V14.01,2013-03-31 05:09:00,
2013-03-31 00:10:00,62.8,60.3,29.97,SW,225,0.0,0.0,92,0.00,,,0.00,VWS V14.01,2013-03-31 05:10:00,
2013-03-31 00:11:00,63.5,60.7,29.97,SW,225,3.6,3.6,90,0.00,,,0.00,VWS V14.01,2013-03-31 05:11:00,
2013-03-31 00:12:00,63.5,60.7,29.97,SW,225,3.6,4.0,90,0.00,,,0.00,VWS V14.01,2013-03-31 05:12:00,
2013-03-31 00:13:00,63.5,60.7,29.97,SW,225,3.6,4.9,90,0.00,,,0.00,VWS V14.01,2013-03-31 05:13:00,
2013-03-31 00:14:00,63.5,60.7,29.97,SW,225,3.6,3.6,90,0.00,,,0.00,VWS V14.01,2013-03-31 05:14:00,
2013-03-31 00:15:00,63.5,60.7,29.97,SW,225,3.1,4.9,90,0.00,,,0.00,VWS V14.01,2013-03-31 05:15:00,
2013-03-31 00:16:00,63.5,60.7,29.97,SW,225,3.1,3.1,90,0.00,,,0.00,VWS V14.01,2013-03-31 05:16:00,
2013-03-31 00:17:00,63.0,60.1,29.97,SW,225,3.1,3.6,90,0.00,,,0.00,VWS V14.01,2013-03-31 05:17:00,
2013-03-31 00:18:00,63.3,60.5,29.97,SW,225,3.6,3.6,90,0.00,,,0.00,VWS V14.01,2013-03-31 05:18:00,
2013-03-31 00:19:00,63.3,60.5,29.97,SW,225,3.1,3.6,90,0.00,,,0.00,VWS V14.01,2013-03-31 05:19:00,
2013-03-31 00:20:00,63.5,60.7,29.97,SW,225,5.4,5.4,90,0.00,,,0.00,VWS V14.01,2013-03-31 05:20:00,
2013-03-31 00:21:00,63.7,60.8,29.97,SW,225,3.1,5.4,90,0.00,,,0.00,VWS V14.01,2013-03-31 05:21:00,
2013-03-31 00:22:00,63.5,60.7,29.97,SW,225,0.0,3.1,90,0.00,,,0.00,VWS V14.01,2013-03-31 05:22:00,
2013-03-31 00:23:00,63.5,60.7,29.97,SW,225,0.0,0.0,90,0.00,,,0.00,VWS V14.01,2013-03-31 05:23:00,
2013-03-31 00:24:00,63.1,60.3,29.97,SW,225,0.0,0.0,90,0.00,,,0.00,VWS V14.01,2013-03-31 05:24:00,
2013-03-31 00:25:00,63.1,60.3,29.97,SW,225,0.0,0.0,90,0.00,,,0.00,VWS V14.01,2013-03-31 05:25:00,
2013-03-31 00:26:00,63.0,60.1,29.94,SW,225,0.0,0.0,90,0.00,,,0.00,VWS V14.01,2013-03-31 05:26:00,
2013-03-31 00:27:00,63.1,60.3,29.94,SW,225,3.1,3.1,90,0.00,,,0.00,VWS V14.01,2013-03-31 05:27:00,
2013-03-31 00:28:00,63.0,60.1,29.94,SW,225,3.1,3.6,90,0.00,,,0.00,VWS V14.01,2013-03-31 05:28:00,
2013-03-31 00:29:00,63.1,60.3,29.94,SW,225,3.6,4.0,90,0.00,,,0.00,VWS V14.01,2013-03-31 05:29:00,
2013-03-31 00:30:00,63.1,60.0,29.94,SW,225,2.7,3.6,90,0.00,,,0.00,VWS V14.01,2013-03-31 05:30:00,
2013-03-31 00:31:00,63.1,60.0,29.94,SW,225,2.7,3.1,90,0.00,,,0.00,VWS V14.01,2013-03-31 05:31:00,
2013-03-31 00:32:00,63.1,60.0,29.94,SW,225,3.6,3.6,90,0.00,,,0.00,VWS V14.01,2013-03-31 05:32:00,
2013-03-31 00:33:00,62.4,59.6,29.94,SW,225,2.7,3.6,90,0.00,,,0.00,VWS V14.01,2013-03-31 05:33:00,
2013-03-31 00:34:00,62.4,59.6,29.94,SW,225,2.2,2.7,90,0.00,,,0.00,VWS V14.01,2013-03-31 05:34:00,
2013-03-31 00:35:00,62.6,59.5,29.94,SW,225,3.6,3.6,90,0.00,,,0.00,VWS V14.01,2013-03-31 05:35:00,
2013-03-31 00:36:00,62.6,59.5,29.94,SW,225,3.6,3.6,90,0.00,,,0.00,VWS V14.01,2013-03-31 05:36:00,
2013-03-31 00:37:00,62.6,59.5,29.94,SW,225,3.1,3.6,90,0.00,,,0.00,VWS V14.01,2013-03-31 05:37:00,
2013-03-31 00:38:00,62.8,59.7,29.94,SW,225,3.6,4.0,90,0.00,,,0.00,VWS V14.01,2013-03-31 05:38:00,
2013-03-31 00:39:00,63.0,59.8,29.94,SW,225,4.9,4.9,90,0.00,,,0.00,VWS V14.01,2013-03-31 05:39:00,
2013-03-31 00:40:00,63.1,60.0,29.94,SW,225,3.6,4.0,90,0.00,,,0.00,VWS V14.01,2013-03-31 05:40:00,
2013-03-31 00:41:00,63.0,59.8,29.94,SW,225,3.6,4.0,90,0.00,,,0.00,VWS V14.01,2013-03-31 05:41:00,
2013-03-31 00:42:00,63.3,60.2,29.94,SW,225,3.6,4.9,90,0.00,,,0.00,VWS V14.01,2013-03-31 05:42:00,
2013-03-31 00:43:00,63.1,60.0,29.94,SW,225,2.7,3.6,90,0.00,,,0.00,VWS V14.01,2013-03-31 05:43:00,
2013-03-31 00:44:00,63.1,60.0,29.94,SW,225,2.7,4.0,90,0.00,,,0.00,VWS V14.01,2013-03-31 05:44:00,
2013-03-31 00:45:00,63.1,60.0,29.94,SW,225,2.7,2.7,90,0.00,,,0.00,VWS V14.01,2013-03-31 05:45:00,
2013-03-31 00:46:00,63.1,60.0,29.94,SW,225,2.2,2.7,90,0.00,,,0.00,VWS V14.01,2013-03-31 05:46:00,
2013-03-31 00:47:00,63.1,60.0,29.94,SW,225,0.0,2.2,90,0.00,,,0.00,VWS V14.01,2013-03-31 05:47:00,
2013-03-31 00:48:00,63.1,60.0,29.94,SW,225,2.2,2.2,90,0.00,,,0.00,VWS V14.01,2013-03-31 05:48:00,
2013-03-31 00:49:00,63.0,59.8,29.94,SW,225,0.0,2.2,90,0.00,,,0.00,VWS V14.01,2013-03-31 05:49:00,
2013-03-31 00:50:00,63.1,60.0,29.94,SW,225,0.0,0.0,90,0.00,,,0.00,VWS V14.01,2013-03-31 05:50:00,
2013-03-31 00:51:00,63.1,60.0,29.94,SW,225,0.0,0.0,90,0.00,,,0.00,VWS V14.01,2013-03-31 05:51:00,
2013-03-31 00:52:00,62.8,59.7,29.94,SW,225,0.0,0.0,90,0.00,,,0.00,VWS V14.01,2013-03-31 05:52:00,
2013-03-31 00:53:00,62.8,59.7,29.94,SW,225,0.0,0.0,90,0.00,,,0.00,VWS V14.01,2013-03-31 05:53:00,
2013-03-31 00:54:00,62.8,59.7,29.94,SW,225,0.0,0.0,90,0.00,,,0.00,VWS V14.01,2013-03-31 05:54:00,
2013-03-31 00:55:00,62.6,59.5,29.94,SW,225,0.0,0.0,90,0.00,,,0.00,VWS V14.01,2013-03-31 05:55:00,
2013-03-31 00:56:00,62.2,59.1,29.94,SW,225,0.0,0.0,90,0.00,,,0.00,VWS V14.01,2013-03-31 05:56:00,
2013-03-31 00:57:00,62.4,59.6,29.94,SW,225,0.0,0.0,90,0.00,,,0.00,VWS V14.01,2013-03-31 05:57:00,
2013-03-31 00:58:00,62.4,59.6,29.94,SW,225,2.7,3.1,90,0.00,,,0.00,VWS V14.01,2013-03-31 05:58:00,
2013-03-31 00:59:00,62.6,59.5,29.94,SW,225,2.7,3.1,90,0.00,,,0.00,VWS V14.01,2013-03-31 05:59:00,
2013-03-31 01:00:00,62.4,59.3,29.94,SW,225,3.1,3.1,90,0.00,,,0.00,VWS V14.01,2013-03-31 06:00:00,
2013-03-31 01:01:00,62.4,59.3,29.94,SW,225,2.7,3.1,90,0.00,,,0.00,VWS V14.01,2013-03-31 06:01:00,
2013-03-31 01:02:00,62.6,59.5,29.94,SW,225,3.6,4.0,90,0.00,,,0.00,VWS V14.01,2013-03-31 06:02:00,
2013-03-31 01:03:00,62.4,59.3,29.94,SW,225,2.7,4.0,90,0.00,,,0.00,VWS V14.01,2013-03-31 06:03:00,
2013-03-31 01:04:00,63.0,59.8,29.94,SW,225,4.9,4.9,90,0.00,,,0.00,VWS V14.01,2013-03-31 06:04:00,
2013-03-31 01:05:00,63.0,59.8,29.94,SW,225,4.0,4.9,90,0.00,,,0.00,VWS V14.01,2013-03-31 06:05:00,
2013-03-31 01:07:00,63.0,59.8,29.94,SW,225,3.6,4.9,90,0.00,,,0.00,VWS V14.01,2013-03-31 06:07:00,
2013-03-31 01:08:00,62.6,59.5,29.94,SW,225,5.4,5.4,90,0.00,,,0.00,VWS V14.01,2013-03-31 06:08:00,
2013-03-31 01:09:00,62.8,59.7,29.94,SW,225,4.0,5.4,90,0.00,,,0.00,VWS V14.01,2013-03-31 06:09:00,
2013-03-31 01:10:00,62.8,59.7,29.94,SW,225,4.0,4.0,90,0.00,,,0.00,VWS V14.01,2013-03-31 06:10:00,
2013-03-31 01:11:00,63.0,59.8,29.97,SW,225,3.6,4.0,90,0.00,,,0.00,VWS V14.01,2013-03-31 06:11:00,
2013-03-31 01:12:00,62.6,59.5,29.97,SW,225,2.7,3.6,90,0.00,,,0.00,VWS V14.01,2013-03-31 06:12:00,
2013-03-31 01:13:00,62.6,59.5,29.97,West,270,4.0,4.9,90,0.00,,,0.00,VWS V14.01,2013-03-31 06:13:00,
2013-03-31 01:14:00,62.8,59.7,29.97,West,270,3.6,4.0,90,0.00,,,0.00,VWS V14.01,2013-03-31 06:14:00,
2013-03-31 01:15:00,62.6,59.5,29.97,WSW,248,4.0,4.0,90,0.00,,,0.00,VWS V14.01,2013-03-31 06:15:00,
2013-03-31 01:16:00,63.0,59.8,29.97,WSW,248,4.0,4.5,90,0.00,,,0.00,VWS V14.01,2013-03-31 06:16:00,
2013-03-31 01:17:00,63.0,59.8,29.97,WSW,248,3.6,4.0,90,0.00,,,0.00,VWS V14.01,2013-03-31 06:17:00,
2013-03-31 01:18:00,62.8,59.7,29.97,WSW,248,3.1,3.6,90,0.00,,,0.00,VWS V14.01,2013-03-31 06:18:00,
2013-03-31 01:19:00,62.8,59.7,29.97,WSW,248,3.1,3.6,90,0.00,,,0.00,VWS V14.01,2013-03-31 06:19:00,
2013-03-31 01:20:00,62.8,59.7,29.97,WSW,248,2.7,3.6,90,0.00,,,0.00,VWS V14.01,2013-03-31 06:20:00,
2013-03-31 01:21:00,62.8,59.7,29.97,WSW,248,2.7,2.7,90,0.00,,,0.00,VWS V14.01,2013-03-31 06:21:00,
2013-03-31 01:22:00,62.6,59.5,29.97,WSW,248,2.2,2.7,90,0.00,,,0.00,VWS V14.01,2013-03-31 06:22:00,
2013-03-31 01:23:00,62.6,59.5,29.97,WSW,248,0.0,2.7,90,0.00,,,0.00,VWS V14.01,2013-03-31 06:23:00,
2013-03-31 01:24:00,62.6,59.5,29.97,WSW,248,0.0,0.0,90,0.00,,,0.00,VWS V14.01,2013-03-31 06:24:00,
2013-03-31 01:25:00,62.4,59.3,29.97,WSW,248,0.0,0.0,90,0.00,,,0.00,VWS V14.01,2013-03-31 06:25:00,
2013-03-31 01:26:00,62.8,59.7,29.94,WSW,248,3.6,3.6,90,0.00,,,0.00,VWS V14.01,2013-03-31 06:26:00,
2013-03-31 01:27:00,62.6,59.5,29.94,WSW,248,3.1,4.0,90,0.00,,,0.00,VWS V14.01,2013-03-31 06:27:00,
2013-03-31 01:28:00,62.4,59.3,29.94,SW,225,2.7,4.0,90,0.00,,,0.00,VWS V14.01,2013-03-31 06:28:00,
2013-03-31 01:29:00,62.6,59.5,29.94,SW,225,3.1,3.6,90,0.00,,,0.00,VWS V14.01,2013-03-31 06:29:00,
2013-03-31 01:30:00,62.6,59.5,29.94,SW,225,2.2,3.1,90,0.00,,,0.00,VWS V14.01,2013-03-31 06:30:00,
2013-03-31 01:31:00,62.6,59.5,29.94,SW,225,2.7,2.7,90,0.00,,,0.00,VWS V14.01,2013-03-31 06:31:00,
2013-03-31 01:32:00,62.4,59.3,29.94,SW,225,2.7,2.7,90,0.00,,,0.00,VWS V14.01,2013-03-31 06:32:00,
2013-03-31 01:33:00,62.6,59.5,29.94,WSW,248,2.7,3.1,90,0.00,,,0.00,VWS V14.01,2013-03-31 06:33:00,
2013-03-31 01:34:00,62.6,59.5,29.94,WSW,248,2.7,2.7,90,0.00,,,0.00,VWS V14.01,2013-03-31 06:34:00,
2013-03-31 01:35:00,62.6,59.5,29.94,WSW,248,2.7,2.7,90,0.00,,,0.00,VWS V14.01,2013-03-31 06:35:00,
2013-03-31 01:36:00,62.6,59.5,29.94,WSW,248,3.1,3.1,90,0.00,,,0.00,VWS V14.01,2013-03-31 06:36:00,
2013-03-31 01:37:00,62.6,59.5,29.94,WSW,248,2.7,3.1,90,0.00,,,0.00,VWS V14.01,2013-03-31 06:37:00,
2013-03-31 01:38:00,62.6,59.5,29.94,West,270,2.7,3.1,90,0.00,,,0.00,VWS V14.01,2013-03-31 06:38:00,
2013-03-31 01:39:00,62.8,59.7,29.94,West,270,2.7,2.7,90,0.00,,,0.00,VWS V14.01,2013-03-31 06:39:00,
2013-03-31 01:40:00,62.8,59.7,29.94,West,270,2.2,2.7,90,0.00,,,0.00,VWS V14.01,2013-03-31 06:40:00,
2013-03-31 01:41:00,62.8,59.7,29.94,West,270,2.2,2.2,90,0.00,,,0.00,VWS V14.01,2013-03-31 06:41:00,
2013-03-31 01:43:00,62.6,59.5,29.94,West,270,0.0,2.2,90,0.00,,,0.00,VWS V14.01,2013-03-31 06:43:00,
2013-03-31 01:44:00,62.8,59.7,29.94,West,270,0.0,2.2,90,0.00,,,0.00,VWS V14.01,2013-03-31 06:44:00,
2013-03-31 01:45:00,62.8,59.7,29.94,West,270,0.0,0.0,90,0.00,,,0.00,VWS V14.01,2013-03-31 06:45:00,
2013-03-31 01:46:00,63.0,59.8,29.94,West,270,0.0,0.0,90,0.00,,,0.00,VWS V14.01,2013-03-31 06:46:00,
2013-03-31 01:47:00,62.8,59.7,29.94,West,270,0.0,0.0,90,0.00,,,0.00,VWS V14.01,2013-03-31 06:47:00,
2013-03-31 01:48:00,62.8,59.7,29.94,West,270,0.0,0.0,90,0.00,,,0.00,VWS V14.01,2013-03-31 06:48:00,
2013-03-31 01:49:00,62.6,59.5,29.94,West,270,0.0,0.0,90,0.00,,,0.00,VWS V14.01,2013-03-31 06:49:00,
2013-03-31 01:50:00,62.6,59.5,29.94,West,270,0.0,0.0,90,0.00,,,0.00,VWS V14.01,2013-03-31 06:50:00,
2013-03-31 01:51:00,62.4,59.3,29.94,West,270,0.0,0.0,90,0.00,,,0.00,VWS V14.01,2013-03-31 06:51:00,
2013-03-31 01:52:00,62.2,59.1,29.94,West,270,0.0,0.0,90,0.00,,,0.00,VWS V14.01,2013-03-31 06:52:00,
2013-03-31 01:53:00,62.2,59.1,29.94,West,270,0.0,0.0,90,0.00,,,0.00,VWS V14.01,2013-03-31 06:53:00,
2013-03-31 01:54:00,62.2,59.1,29.94,West,270,0.0,0.0,90,0.00,,,0.00,VWS V14.01,2013-03-31 06:54:00,
2013-03-31 01:55:00,62.2,59.1,29.94,West,270,0.0,0.0,90,0.00,,,0.00,VWS V14.01,2013-03-31 06:55:00,
2013-03-31 01:56:00,62.4,59.3,29.97,SW,225,0.0,0.0,90,0.00,,,0.00,VWS V14.01,2013-03-31 06:56:00,
2013-03-31 01:57:00,62.4,59.3,29.97,SW,225,0.0,0.0,90,0.00,,,0.00,VWS V14.01,2013-03-31 06:57:00,
2013-03-31 01:58:00,62.6,59.5,29.97,SW,225,0.0,0.0,90,0.00,,,0.00,VWS V14.01,2013-03-31 06:58:00,
2013-03-31 01:59:00,63.1,59.7,29.97,SW,225,3.1,3.1,88,0.00,,,0.00,VWS V14.01,2013-03-31 06:59:00,
2013-03-31 02:00:00,63.3,59.9,29.97,SW,225,0.0,3.6,88,0.00,,,0.00,VWS V14.01,2013-03-31 07:00:00,
2013-03-31 02:01:00,63.3,59.9,29.97,SW,225,0.0,2.2,88,0.00,,,0.00,VWS V14.01,2013-03-31 07:01:00,
2013-03-31 02:02:00,63.3,59.9,29.97,SW,225,0.0,0.0,88,0.00,,,0.00,VWS V14.01,2013-03-31 07:02:00,
2013-03-31 02:03:00,63.3,59.9,29.97,SW,225,0.0,0.0,88,0.00,,,0.00,VWS V14.01,2013-03-31 07:03:00,
2013-03-31 02:04:00,63.0,59.5,29.97,SW,225,0.0,0.0,88,0.00,,,0.00,VWS V14.01,2013-03-31 07:04:00,
2013-03-31 02:05:00,63.0,59.5,29.97,SW,225,0.0,0.0,88,0.00,,,0.00,VWS V14.01,2013-03-31 07:05:00,
2013-03-31 02:06:00,63.0,59.5,29.97,SW,225,0.0,0.0,88,0.00,,,0.00,VWS V14.01,2013-03-31 07:06:00,
2013-03-31 02:07:00,63.0,59.5,29.97,SW,225,0.0,0.0,88,0.00,,,0.00,VWS V14.01,2013-03-31 07:07:00,
2013-03-31 02:08:00,63.0,59.5,29.97,SW,225,0.0,0.0,88,0.00,,,0.00,VWS V14.01,2013-03-31 07:08:00,
2013-03-31 02:09:00,63.5,60.0,29.97,SW,225,0.0,0.0,88,0.00,,,0.00,VWS V14.01,2013-03-31 07:09:00,
2013-03-31 02:10:00,63.5,60.0,29.97,SW,225,0.0,0.0,88,0.00,,,0.00,VWS V14.01,2013-03-31 07:10:00,
2013-03-31 02:11:00,63.3,59.9,29.94,SW,225,0.0,0.0,88,0.00,,,0.00,VWS V14.01,2013-03-31 07:11:00,
2013-03-31 02:12:00,63.3,59.9,29.94,SW,225,0.0,0.0,88,0.00,,,0.00,VWS V14.01,2013-03-31 07:12:00,
2013-03-31 02:13:00,63.5,60.0,29.94,SW,225,0.0,0.0,88,0.00,,,0.00,VWS V14.01,2013-03-31 07:13:00,
2013-03-31 02:14:00,63.5,60.0,29.94,SW,225,0.0,0.0,88,0.00,,,0.00,VWS V14.01,2013-03-31 07:14:00,
2013-03-31 02:15:00,63.5,60.0,29.94,SW,225,0.0,0.0,88,0.00,,,0.00,VWS V14.01,2013-03-31 07:15:00,
2013-03-31 02:16:00,63.3,59.9,29.94,SW,225,0.0,0.0,88,0.00,,,0.00,VWS V14.01,2013-03-31 07:16:00,
2013-03-31 02:17:00,63.3,59.9,29.94,SW,225,0.0,0.0,88,0.00,,,0.00,VWS V14.01,2013-03-31 07:17:00,
2013-03-31 02:18:00,63.1,59.7,29.94,SW,225,0.0,0.0,88,0.00,,,0.00,VWS V14.01,2013-03-31 07:18:00,
2013-03-31 02:19:00,63.3,59.9,29.94,SW,225,0.0,0.0,88,0.00,,,0.00,VWS V14.01,2013-03-31 07:19:00,
2013-03-31 02:20:00,63.3,59.9,29.94,SW,225,0.0,0.0,88,0.00,,,0.00,VWS V14.01,2013-03-31 07:20:00,
2013-03-31 02:21:00,63.1,59.7,29.94,SW,225,0.0,0.0,88,0.00,,,0.00,VWS V14.01,2013-03-31 07:21:00,
2013-03-31 02:22:00,63.0,59.5,29.94,SW,225,0.0,0.0,88,0.00,,,0.00,VWS V14.01,2013-03-31 07:22:00,
2013-03-31 02:23:00,62.8,59.3,29.94,SW,225,0.0,0.0,88,0.00,,,0.00,VWS V14.01,2013-03-31 07:23:00,
2013-03-31 02:24:00,62.6,59.2,29.94,SW,225,0.0,0.0,88,0.00,,,0.00,VWS V14.01,2013-03-31 07:24:00,
2013-03-31 02:25:00,62.6,59.2,29.94,SW,225,0.0,0.0,88,0.00,,,0.00,VWS V14.01,2013-03-31 07:25:00,
2013-03-31 02:26:00,62.8,59.3,29.94,SW,225,0.0,0.0,88,0.00,,,0.00,VWS V14.01,2013-03-31 07:26:00,
2013-03-31 02:27:00,62.8,59.3,29.94,SW,225,0.0,0.0,88,0.00,,,0.00,VWS V14.01,2013-03-31 07:27:00,
2013-03-31 02:28:00,62.8,59.3,29.94,SW,225,0.0,0.0,88,0.00,,,0.00,VWS V14.01,2013-03-31 07:28:00,
2013-03-31 02:29:00,62.8,59.3,29.94,SW,225,0.0,0.0,88,0.00,,,0.00,VWS V14.01,2013-03-31 07:29:00,
2013-03-31 02:30:00,62.6,59.2,29.94,SW,225,0.0,0.0,88,0.00,,,0.00,VWS V14.01,2013-03-31 07:30:00,
2013-03-31 02:31:00,62.4,59.0,29.94,SW,225,0.0,0.0,88,0.00,,,0.00,VWS V14.01,2013-03-31 07:31:00,
2013-03-31 02:32:00,62.4,59.0,29.94,SW,225,0.0,0.0,88,0.00,,,0.00,VWS V14.01,2013-03-31 07:32:00,
2013-03-31 02:33:00,62.6,59.2,29.94,SW,225,0.0,0.0,88,0.00,,,0.00,VWS V14.01,2013-03-31 07:33:00,
2013-03-31 02:34:00,62.6,59.2,29.94,SW,225,0.0,0.0,88,0.00,,,0.00,VWS V14.01,2013-03-31 07:34:00,
2013-03-31 02:35:00,63.1,59.7,29.94,SW,225,0.0,0.0,88,0.00,,,0.00,VWS V14.01,2013-03-31 07:35:00,
2013-03-31 02:36:00,63.3,59.9,29.94,SW,225,0.0,0.0,88,0.00,,,0.00,VWS V14.01,2013-03-31 07:36:00,
2013-03-31 02:37:00,63.3,59.9,29.94,SW,225,0.0,0.0,88,0.00,,,0.00,VWS V14.01,2013-03-31 07:37:00,
2013-03-31 02:38:00,63.5,60.0,29.94,SW,225,0.0,0.0,88,0.00,,,0.00,VWS V14.01,2013-03-31 07:38:00,
2013-03-31 02:39:00,63.5,60.0,29.94,SW,225,0.0,0.0,88,0.00,,,0.00,VWS V14.01,2013-03-31 07:39:00,
2013-03-31 02:40:00,63.5,60.0,29.94,SW,225,0.0,0.0,88,0.00,,,0.00,VWS V14.01,2013-03-31 07:40:00,
2013-03-31 02:41:00,63.7,60.2,29.94,SW,225,0.0,0.0,88,0.00,,,0.00,VWS V14.01,2013-03-31 07:41:00,
2013-03-31 02:42:00,63.5,60.0,29.94,SW,225,0.0,0.0,88,0.00,,,0.00,VWS V14.01,2013-03-31 07:42:00,
2013-03-31 02:43:00,63.5,60.0,29.94,SW,225,0.0,0.0,88,0.00,,,0.00,VWS V14.01,2013-03-31 07:43:00,
2013-03-31 02:44:00,63.5,60.0,29.94,SW,225,0.0,0.0,88,0.00,,,0.00,VWS V14.01,2013-03-31 07:44:00,
2013-03-31 02:45:00,63.5,60.0,29.94,SW,225,0.0,0.0,88,0.00,,,0.00,VWS V14.01,2013-03-31 07:45:00,
2013-03-31 02:46:00,63.5,60.0,29.94,SW,225,0.0,0.0,88,0.00,,,0.00,VWS V14.01,2013-03-31 07:46:00,
2013-03-31 02:47:00,63.5,60.0,29.94,SW,225,0.0,0.0,88,0.00,,,0.00,VWS V14.01,2013-03-31 07:47:00,
2013-03-31 02:48:00,63.7,60.2,29.94,SW,225,0.0,0.0,88,0.00,,,0.00,VWS V14.01,2013-03-31 07:48:00,
2013-03-31 02:49:00,63.9,60.1,29.94,SW,225,0.0,0.0,88,0.00,,,0.00,VWS V14.01,2013-03-31 07:49:00,
2013-03-31 02:50:00,64.0,60.3,29.94,SW,225,0.0,0.0,88,0.00,,,0.00,VWS V14.01,2013-03-31 07:50:00,
2013-03-31 02:51:00,64.2,60.4,29.94,SW,225,0.0,0.0,88,0.00,,,0.00,VWS V14.01,2013-03-31 07:51:00,
2013-03-31 02:52:00,64.2,60.4,29.94,SW,225,0.0,0.0,88,0.00,,,0.00,VWS V14.01,2013-03-31 07:52:00,
2013-03-31 02:53:00,64.2,60.4,29.94,SW,225,0.0,0.0,88,0.00,,,0.00,VWS V14.01,2013-03-31 07:53:00,
2013-03-31 02:54:00,64.2,60.4,29.94,SW,225,0.0,0.0,88,0.00,,,0.00,VWS V14.01,2013-03-31 07:54:00,
2013-03-31 02:55:00,64.2,60.4,29.94,SW,225,0.0,0.0,88,0.00,,,0.00,VWS V14.01,2013-03-31 07:55:00,
2013-03-31 02:56:00,64.2,60.4,29.94,SW,225,0.0,0.0,88,0.00,,,0.00,VWS V14.01,2013-03-31 07:56:00,
2013-03-31 02:57:00,64.2,60.4,29.94,SW,225,0.0,0.0,88,0.00,,,0.00,VWS V14.01,2013-03-31 07:57:00,
2013-03-31 02:58:00,64.2,60.4,29.94,SW,225,0.0,0.0,88,0.00,,,0.00,VWS V14.01,2013-03-31 07:58:00,
2013-03-31 02:59:00,64.6,60.8,29.94,SW,225,0.0,0.0,88,0.00,,,0.00,VWS V14.01,2013-03-31 07:59:00,
2013-03-31 03:00:00,64.6,60.8,29.94,SW,225,0.0,0.0,88,0.00,,,0.00,VWS V14.01,2013-03-31 08:00:00,
2013-03-31 03:01:00,64.6,60.8,29.94,SW,225,0.0,0.0,88,0.00,,,0.00,VWS V14.01,2013-03-31 08:01:00,
2013-03-31 03:02:00,64.4,60.6,29.94,SW,225,0.0,0.0,88,0.00,,,0.00,VWS V14.01,2013-03-31 08:02:00,
2013-03-31 03:03:00,64.2,60.4,29.94,SW,225,0.0,0.0,88,0.00,,,0.00,VWS V14.01,2013-03-31 08:03:00,
2013-03-31 03:04:00,63.9,60.1,29.94,SW,225,0.0,0.0,88,0.00,,,0.00,VWS V14.01,2013-03-31 08:04:00,
2013-03-31 03:05:00,63.7,59.9,29.94,SW,225,0.0,0.0,88,0.00,,,0.00,VWS V14.01,2013-03-31 08:05:00,
2013-03-31 03:06:00,63.9,60.1,29.94,SW,225,0.0,0.0,88,0.00,,,0.00,VWS V14.01,2013-03-31 08:06:00,
2013-03-31 03:07:00,63.9,60.1,29.94,SW,225,0.0,0.0,88,0.00,,,0.00,VWS V14.01,2013-03-31 08:07:00,
2013-03-31 03:08:00,64.0,60.3,29.94,SW,225,0.0,0.0,88,0.00,,,0.00,VWS V14.01,2013-03-31 08:08:00,
2013-03-31 03:09:00,64.0,60.3,29.94,SW,225,0.0,0.0,88,0.00,,,0.00,VWS V14.01,2013-03-31 08:09:00,
2013-03-31 03:10:00,64.2,60.4,29.94,SW,225,0.0,0.0,88,0.00,,,0.00,VWS V14.01,2013-03-31 08:10:00,
2013-03-31 03:11:00,64.2,60.4,29.94,SW,225,0.0,0.0,88,0.00,,,0.00,VWS V14.01,2013-03-31 08:11:00,
2013-03-31 03:12:00,64.2,60.4,29.94,SW,225,0.0,0.0,88,0.00,,,0.00,VWS V14.01,2013-03-31 08:12:00,
2013-03-31 03:13:00,64.2,60.4,29.94,SW,225,0.0,0.0,88,0.00,,,0.00,VWS V14.01,2013-03-31 08:13:00,
2013-03-31 03:14:00,64.4,60.6,29.94,SW,225,0.0,0.0,88,0.00,,,0.00,VWS V14.01,2013-03-31 08:14:00,
2013-03-31 03:15:00,64.4,60.6,29.94,SW,225,0.0,0.0,88,0.00,,,0.00,VWS V14.01,2013-03-31 08:15:00,
2013-03-31 03:16:00,64.4,60.6,29.94,SW,225,0.0,0.0,88,0.00,,,0.00,VWS V14.01,2013-03-31 08:16:00,
2013-03-31 03:17:00,64.4,60.6,29.94,SW,225,0.0,0.0,88,0.00,,,0.00,VWS V14.01,2013-03-31 08:17:00,
2013-03-31 03:18:00,64.4,60.6,29.94,SW,225,0.0,0.0,88,0.00,,,0.00,VWS V14.01,2013-03-31 08:18:00,
2013-03-31 03:19:00,64.8,61.0,29.94,SW,225,0.0,0.0,88,0.00,,,0.00,VWS V14.01,2013-03-31 08:19:00,
2013-03-31 03:20:00,64.9,61.1,29.94,SW,225,0.0,0.0,88,0.00,,,0.00,VWS V14.01,2013-03-31 08:20:00,
2013-03-31 03:21:00,65.1,61.3,29.94,SW,225,0.0,0.0,88,0.00,,,0.00,VWS V14.01,2013-03-31 08:21:00,
2013-03-31 03:22:00,65.3,61.5,29.94,SW,225,0.0,0.0,88,0.00,,,0.00,VWS V14.01,2013-03-31 08:22:00,
2013-03-31 03:23:00,65.5,61.7,29.94,SW,225,0.0,0.0,88,0.00,,,0.00,VWS V14.01,2013-03-31 08:23:00,
2013-03-31 03:24:00,65.5,61.7,29.94,SW,225,0.0,0.0,88,0.00,,,0.00,VWS V14.01,2013-03-31 08:24:00,
2013-03-31 03:25:00,65.5,61.7,29.94,SW,225,0.0,0.0,88,0.00,,,0.00,VWS V14.01,2013-03-31 08:25:00,
2013-03-31 03:26:00,65.5,61.7,29.94,SW,225,0.0,0.0,88,0.00,,,0.00,VWS V14.01,2013-03-31 08:26:00,
2013-03-31 03:27:00,64.8,61.0,29.94,SW,225,0.0,0.0,88,0.00,,,0.00,VWS V14.01,2013-03-31 08:27:00,
2013-03-31 03:28:00,64.8,61.0,29.94,SW,225,0.0,0.0,88,0.00,,,0.00,VWS V14.01,2013-03-31 08:28:00,
2013-03-31 03:29:00,64.8,61.0,29.94,SW,225,0.0,0.0,88,0.00,,,0.00,VWS V14.01,2013-03-31 08:29:00,
2013-03-31 03:30:00,65.1,61.3,29.94,SW,225,0.0,0.0,88,0.00,,,0.00,VWS V14.01,2013-03-31 08:30:00,
2013-03-31 03:31:00,65.1,61.3,29.94,SW,225,0.0,0.0,88,0.00,,,0.00,VWS V14.01,2013-03-31 08:31:00,
2013-03-31 03:32:00,65.1,61.3,29.94,SW,225,0.0,0.0,88,0.00,,,0.00,VWS V14.01,2013-03-31 08:32:00,
2013-03-31 03:33:00,64.8,61.0,29.94,SW,225,0.0,0.0,88,0.00,,,0.00,VWS V14.01,2013-03-31 08:33:00,
2013-03-31 03:34:00,64.8,61.0,29.94,SW,225,0.0,0.0,88,0.00,,,0.00,VWS V14.01,2013-03-31 08:34:00,
2013-03-31 03:35:00,64.4,60.6,29.94,SW,225,0.0,0.0,88,0.00,,,0.00,VWS V14.01,2013-03-31 08:35:00,
2013-03-31 03:36:00,64.4,60.6,29.94,SW,225,0.0,0.0,88,0.00,,,0.00,VWS V14.01,2013-03-31 08:36:00,
2013-03-31 03:37:00,64.2,60.4,29.94,SW,225,0.0,0.0,88,0.00,,,0.00,VWS V14.01,2013-03-31 08:37:00,
2013-03-31 03:38:00,64.2,60.4,29.94,SW,225,0.0,0.0,88,0.00,,,0.00,VWS V14.01,2013-03-31 08:38:00,
2013-03-31 03:39:00,64.2,60.4,29.94,SW,225,0.0,0.0,88,0.00,,,0.00,VWS V14.01,2013-03-31 08:39:00,
2013-03-31 03:40:00,64.0,60.3,29.94,SW,225,0.0,0.0,88,0.00,,,0.00,VWS V14.01,2013-03-31 08:40:00,
2013-03-31 03:41:00,64.0,60.3,29.91,SW,225,0.0,0.0,88,0.00,,,0.00,VWS V14.01,2013-03-31 08:41:00,
2013-03-31 03:43:00,63.7,59.9,29.91,SW,225,0.0,0.0,88,0.00,,,0.00,VWS V14.01,2013-03-31 08:43:00,
2013-03-31 03:45:00,63.5,59.7,29.91,SW,225,0.0,0.0,88,0.00,,,0.00,VWS V14.01,2013-03-31 08:45:00,
2013-03-31 03:46:00,63.5,59.7,29.91,SW,225,0.0,0.0,88,0.00,,,0.00,VWS V14.01,2013-03-31 08:46:00,
2013-03-31 03:47:00,63.5,59.7,29.91,SW,225,0.0,0.0,88,0.00,,,0.00,VWS V14.01,2013-03-31 08:47:00,
2013-03-31 03:48:00,63.5,59.7,29.91,SW,225,0.0,0.0,88,0.00,,,0.00,VWS V14.01,2013-03-31 08:48:00,
2013-03-31 03:49:00,63.3,59.5,29.91,SW,225,0.0,0.0,88,0.00,,,0.00,VWS V14.01,2013-03-31 08:49:00,
2013-03-31 03:50:00,63.3,59.5,29.91,SW,225,0.0,0.0,88,0.00,,,0.00,VWS V14.01,2013-03-31 08:50:00,
2013-03-31 03:51:00,63.1,59.4,29.91,SW,225,0.0,0.0,88,0.00,,,0.00,VWS V14.01,2013-03-31 08:51:00,
2013-03-31 03:52:00,63.1,59.4,29.91,SW,225,0.0,0.0,88,0.00,,,0.00,VWS V14.01,2013-03-31 08:52:00,
2013-03-31 03:53:00,63.1,59.4,29.91,SW,225,0.0,0.0,88,0.00,,,0.00,VWS V14.01,2013-03-31 08:53:00,
2013-03-31 03:54:00,63.1,59.4,29.91,SW,225,0.0,0.0,88,0.00,,,0.00,VWS V14.01,2013-03-31 08:54:00,
2013-03-31 03:55:00,63.3,59.5,29.91,SW,225,0.0,0.0,88,0.00,,,0.00,VWS V14.01,2013-03-31 08:55:00,
2013-03-31 03:56:00,63.3,59.5,29.91,SW,225,0.0,0.0,88,0.00,,,0.00,VWS V14.01,2013-03-31 08:56:00,
2013-03-31 03:57:00,63.3,59.5,29.91,SW,225,0.0,0.0,88,0.00,,,0.00,VWS V14.01,2013-03-31 08:57:00,
2013-03-31 03:58:00,63.3,59.5,29.91,SW,225,0.0,0.0,88,0.00,,,0.00,VWS V14.01,2013-03-31 08:58:00,
2013-03-31 03:59:00,63.5,59.7,29.91,SW,225,0.0,0.0,88,0.00,,,0.00,VWS V14.01,2013-03-31 08:59:00,
2013-03-31 04:00:00,63.5,59.7,29.91,SW,225,0.0,0.0,88,0.00,,,0.00,VWS V14.01,2013-03-31 09:00:00,
2013-03-31 04:01:00,63.5,59.7,29.91,SW,225,0.0,0.0,88,0.00,,,0.00,VWS V14.01,2013-03-31 09:01:00,
2013-03-31 04:02:00,63.5,59.7,29.91,SW,225,0.0,0.0,88,0.00,,,0.00,VWS V14.01,2013-03-31 09:02:00,
2013-03-31 04:03:00,63.5,59.7,29.91,SW,225,0.0,0.0,88,0.00,,,0.00,VWS V14.01,2013-03-31 09:03:00,
2013-03-31 04:04:00,63.5,59.7,29.91,SW,225,0.0,0.0,88,0.00,,,0.00,VWS V14.01,2013-03-31 09:04:00,
2013-03-31 04:05:00,63.7,59.9,29.91,SW,225,0.0,0.0,88,0.00,,,0.00,VWS V14.01,2013-03-31 09:05:00,
2013-03-31 04:06:00,63.7,59.9,29.91,SW,225,0.0,0.0,88,0.00,,,0.00,VWS V14.01,2013-03-31 09:06:00,
2013-03-31 04:07:00,63.7,59.9,29.91,SW,225,0.0,0.0,88,0.00,,,0.00,VWS V14.01,2013-03-31 09:07:00,
2013-03-31 04:08:00,63.7,59.9,29.91,SW,225,0.0,0.0,88,0.00,,,0.00,VWS V14.01,2013-03-31 09:08:00,
2013-03-31 04:09:00,63.7,59.9,29.91,SW,225,0.0,0.0,88,0.00,,,0.00,VWS V14.01,2013-03-31 09:09:00,
2013-03-31 04:10:00,63.7,59.9,29.91,SW,225,0.0,0.0,88,0.00,,,0.00,VWS V14.01,2013-03-31 09:10:00,
2013-03-31 04:11:00,63.7,59.9,29.91,SW,225,0.0,0.0,88,0.00,,,0.00,VWS V14.01,2013-03-31 09:11:00,
2013-03-31 04:12:00,63.7,59.9,29.91,SW,225,0.0,0.0,88,0.00,,,0.00,VWS V14.01,2013-03-31 09:12:00,
2013-03-31 04:13:00,63.7,59.9,29.91,SW,225,0.0,0.0,88,0.00,,,0.00,VWS V14.01,2013-03-31 09:13:00,
2013-03-31 04:14:00,63.7,59.9,29.91,SW,225,0.0,0.0,88,0.00,,,0.00,VWS V14.01,2013-03-31 09:14:00,
2013-03-31 04:15:00,63.7,59.9,29.91,SW,225,0.0,0.0,88,0.00,,,0.00,VWS V14.01,2013-03-31 09:15:00,
2013-03-31 04:16:00,63.7,59.9,29.91,SW,225,0.0,0.0,88,0.00,,,0.00,VWS V14.01,2013-03-31 09:16:00,
2013-03-31 04:17:00,63.7,59.9,29.91,SW,225,0.0,0.0,88,0.00,,,0.00,VWS V14.01,2013-03-31 09:17:00,
2013-03-31 04:18:00,63.9,60.1,29.91,SW,225,0.0,0.0,88,0.00,,,0.00,VWS V14.01,2013-03-31 09:18:00,
2013-03-31 04:19:00,64.0,60.3,29.91,SW,225,0.0,0.0,88,0.00,,,0.00,VWS V14.01,2013-03-31 09:19:00,
2013-03-31 04:20:00,64.0,60.3,29.91,SW,225,0.0,0.0,88,0.00,,,0.00,VWS V14.01,2013-03-31 09:20:00,
2013-03-31 04:21:00,64.0,60.3,29.91,SW,225,0.0,0.0,88,0.00,,,0.00,VWS V14.01,2013-03-31 09:21:00,
2013-03-31 04:22:00,64.2,60.4,29.91,SW,225,0.0,0.0,88,0.00,,,0.00,VWS V14.01,2013-03-31 09:22:00,
2013-03-31 04:23:00,64.2,60.4,29.91,SW,225,0.0,0.0,88,0.00,,,0.00,VWS V14.01,2013-03-31 09:23:00,
2013-03-31 04:24:00,64.0,60.3,29.91,SW,225,0.0,0.0,88,0.00,,,0.00,VWS V14.01,2013-03-31 09:24:00,
2013-03-31 04:25:00,64.0,60.3,29.91,SW,225,0.0,0.0,88,0.00,,,0.00,VWS V14.01,2013-03-31 09:25:00,
2013-03-31 04:26:00,64.0,60.3,29.91,SW,225,0.0,0.0,88,0.00,,,0.00,VWS V14.01,2013-03-31 09:26:00,
2013-03-31 04:27:00,64.0,60.3,29.91,SW,225,0.0,0.0,88,0.00,,,0.00,VWS V14.01,2013-03-31 09:27:00,
2013-03-31 04:28:00,64.2,60.4,29.91,SW,225,0.0,0.0,88,0.00,,,0.00,VWS V14.01,2013-03-31 09:28:00,
2013-03-31 04:29:00,64.4,60.6,29.91,SW,225,0.0,0.0,88,0.00,,,0.00,VWS V14.01,2013-03-31 09:29:00,
2013-03-31 04:30:00,64.4,60.6,29.91,SW,225,0.0,0.0,88,0.00,,,0.00,VWS V14.01,2013-03-31 09:30:00,
2013-03-31 04:31:00,64.6,60.5,29.91,SW,225,0.0,0.0,86,0.00,,,0.00,VWS V14.01,2013-03-31 09:31:00,
2013-03-31 04:32:00,64.6,60.5,29.91,SW,225,0.0,0.0,86,0.00,,,0.00,VWS V14.01,2013-03-31 09:32:00,
2013-03-31 04:33:00,64.6,60.8,29.91,SW,225,0.0,0.0,88,0.00,,,0.00,VWS V14.01,2013-03-31 09:33:00,
2013-03-31 04:34:00,64.6,60.5,29.91,SW,225,0.0,0.0,86,0.00,,,0.00,VWS V14.01,2013-03-31 09:34:00,
2013-03-31 04:35:00,64.6,60.5,29.91,SW,225,0.0,0.0,86,0.00,,,0.00,VWS V14.01,2013-03-31 09:35:00,
2013-03-31 04:36:00,64.6,60.5,29.91,SW,225,0.0,0.0,86,0.00,,,0.00,VWS V14.01,2013-03-31 09:36:00,
2013-03-31 04:37:00,64.6,60.5,29.91,SW,225,0.0,0.0,86,0.00,,,0.00,VWS V14.01,2013-03-31 09:37:00,
2013-03-31 04:38:00,64.6,60.5,29.91,SW,225,0.0,0.0,86,0.00,,,0.00,VWS V14.01,2013-03-31 09:38:00,
2013-03-31 04:39:00,64.6,60.5,29.91,SW,225,0.0,0.0,86,0.00,,,0.00,VWS V14.01,2013-03-31 09:39:00,
2013-03-31 04:40:00,64.6,60.5,29.91,SW,225,0.0,0.0,86,0.00,,,0.00,VWS V14.01,2013-03-31 09:40:00,
2013-03-31 04:41:00,64.6,60.5,29.91,SW,225,0.0,0.0,86,0.00,,,0.00,VWS V14.01,2013-03-31 09:41:00,
2013-03-31 04:42:00,64.6,60.5,29.91,SW,225,0.0,0.0,86,0.00,,,0.00,VWS V14.01,2013-03-31 09:42:00,
2013-03-31 04:43:00,64.6,60.5,29.91,SW,225,2.7,2.7,86,0.00,,,0.00,VWS V14.01,2013-03-31 09:43:00,
2013-03-31 04:44:00,64.6,60.8,29.91,SW,225,3.1,3.6,88,0.00,,,0.00,VWS V14.01,2013-03-31 09:44:00,
2013-03-31 04:45:00,64.6,60.8,29.91,SW,225,3.1,3.6,88,0.00,,,0.00,VWS V14.01,2013-03-31 09:45:00,
2013-03-31 04:46:00,64.6,60.5,29.91,SW,225,3.6,3.6,86,0.00,,,0.00,VWS V14.01,2013-03-31 09:46:00,
2013-03-31 04:47:00,64.8,60.6,29.91,SSW,202,2.7,4.0,86,0.00,,,0.00,VWS V14.01,2013-03-31 09:47:00,
2013-03-31 04:48:00,64.8,60.6,29.91,SSW,202,2.7,3.1,86,0.00,,,0.00,VWS V14.01,2013-03-31 09:48:00,
2013-03-31 04:49:00,64.9,61.1,29.91,SSW,202,2.7,2.7,88,0.00,,,0.00,VWS V14.01,2013-03-31 09:49:00,
2013-03-31 04:50:00,64.9,61.2,29.91,SSW,202,2.2,2.7,88,0.00,,,0.00,VWS V14.01,2013-03-31 09:50:00,
2013-03-31 04:51:00,65.1,61.3,29.91,SSW,202,2.2,2.7,88,0.00,,,0.00,VWS V14.01,2013-03-31 09:51:00,
2013-03-31 04:52:00,65.1,61.3,29.91,SSW,202,2.2,2.2,88,0.00,,,0.00,VWS V14.01,2013-03-31 09:52:00,
2013-03-31 04:53:00,65.5,61.7,29.91,SSW,202,2.7,2.7,88,0.00,,,0.00,VWS V14.01,2013-03-31 09:53:00,
2013-03-31 04:54:00,65.7,61.8,29.91,SSW,202,2.7,2.7,88,0.00,,,0.00,VWS V14.01,2013-03-31 09:54:00,
2013-03-31 04:55:00,65.7,61.8,29.91,SSW,202,2.7,2.7,88,0.00,,,0.00,VWS V14.01,2013-03-31 09:55:00,
2013-03-31 04:56:00,65.7,61.8,29.94,SSW,202,2.7,2.7,88,0.00,,,0.00,VWS V14.01,2013-03-31 09:56:00,
2013-03-31 04:57:00,65.8,62.0,29.94,SSW,202,3.1,3.1,88,0.00,,,0.00,VWS V14.01,2013-03-31 09:57:00,
2013-03-31 04:58:00,65.8,62.0,29.94,SSW,202,2.2,3.1,88,0.00,,,0.00,VWS V14.01,2013-03-31 09:58:00,
2013-03-31 04:59:00,65.8,62.0,29.94,SSW,202,2.7,2.7,88,0.00,,,0.00,VWS V14.01,2013-03-31 09:59:00,
2013-03-31 05:00:00,65.8,62.0,29.94,SSW,202,2.7,2.7,88,0.00,,,0.00,VWS V14.01,2013-03-31 10:00:00,
2013-03-31 05:01:00,66.0,62.2,29.94,SSW,202,2.7,2.7,88,0.00,,,0.00,VWS V14.01,2013-03-31 10:01:00,
2013-03-31 05:02:00,66.0,62.2,29.94,SSW,202,2.7,2.7,88,0.00,,,0.00,VWS V14.01,2013-03-31 10:02:00,
2013-03-31 05:03:00,66.0,62.2,29.94,SSW,202,2.2,2.7,88,0.00,,,0.00,VWS V14.01,2013-03-31 10:03:00,
2013-03-31 05:04:00,66.2,62.1,29.94,SSW,202,0.0,2.2,86,0.00,,,0.00,VWS V14.01,2013-03-31 10:04:00,
2013-03-31 05:05:00,66.2,62.1,29.94,SSW,202,0.0,2.2,86,0.00,,,0.00,VWS V14.01,2013-03-31 10:05:00,
2013-03-31 05:06:00,66.2,62.1,29.94,SSW,202,0.0,0.0,86,0.00,,,0.00,VWS V14.01,2013-03-31 10:06:00,
2013-03-31 05:07:00,66.4,62.2,29.94,SSW,202,0.0,0.0,86,0.00,,,0.00,VWS V14.01,2013-03-31 10:07:00,
2013-03-31 05:08:00,66.4,62.2,29.94,SSW,202,0.0,0.0,86,0.00,,,0.00,VWS V14.01,2013-03-31 10:08:00,
2013-03-31 05:09:00,66.6,62.4,29.94,SSW,202,0.0,0.0,86,0.00,,,0.00,VWS V14.01,2013-03-31 10:09:00,
2013-03-31 05:10:00,66.6,62.4,29.94,SSW,202,0.0,0.0,86,0.00,,,0.00,VWS V14.01,2013-03-31 10:10:00,
2013-03-31 05:11:00,66.6,62.4,29.94,SSW,202,0.0,0.0,86,0.00,,,0.00,VWS V14.01,2013-03-31 10:11:00,
2013-03-31 05:12:00,66.6,62.4,29.94,SSW,202,0.0,0.0,86,0.00,,,0.00,VWS V14.01,2013-03-31 10:12:00,
2013-03-31 05:13:00,66.6,62.4,29.94,SSW,202,0.0,0.0,86,0.00,,,0.00,VWS V14.01,2013-03-31 10:13:00,
2013-03-31 05:14:00,66.6,62.4,29.94,SSW,202,0.0,0.0,86,0.00,,,0.00,VWS V14.01,2013-03-31 10:14:00,
2013-03-31 05:15:00,66.6,62.4,29.94,SSW,202,0.0,0.0,86,0.00,,,0.00,VWS V14.01,2013-03-31 10:15:00,
2013-03-31 05:16:00,66.7,62.6,29.94,SSW,202,0.0,0.0,86,0.00,,,0.00,VWS V14.01,2013-03-31 10:16:00,
2013-03-31 05:17:00,66.7,62.6,29.94,SSW,202,0.0,0.0,86,0.00,,,0.00,VWS V14.01,2013-03-31 10:17:00,
2013-03-31 05:19:00,66.7,62.6,29.94,SSW,202,0.0,0.0,86,0.00,,,0.00,VWS V14.01,2013-03-31 10:19:00,
2013-03-31 05:20:00,66.7,62.6,29.94,SSW,202,0.0,0.0,86,0.00,,,0.00,VWS V14.01,2013-03-31 10:20:00,
2013-03-31 05:21:00,66.7,62.6,29.94,SSW,202,0.0,0.0,86,0.00,,,0.00,VWS V14.01,2013-03-31 10:21:00,
2013-03-31 05:22:00,66.7,62.6,29.94,SSW,202,0.0,0.0,86,0.00,,,0.00,VWS V14.01,2013-03-31 10:22:00,
2013-03-31 05:23:00,66.7,62.6,29.94,SSW,202,0.0,0.0,86,0.00,,,0.00,VWS V14.01,2013-03-31 10:23:00,
2013-03-31 05:24:00,66.7,62.6,29.94,SSW,202,0.0,0.0,86,0.00,,,0.00,VWS V14.01,2013-03-31 10:24:00,
2013-03-31 05:25:00,66.7,62.6,29.94,SSW,202,0.0,0.0,86,0.00,,,0.00,VWS V14.01,2013-03-31 10:25:00,
2013-03-31 05:26:00,66.7,62.6,29.94,SSW,202,0.0,0.0,86,0.00,,,0.00,VWS V14.01,2013-03-31 10:26:00,
2013-03-31 05:27:00,66.7,62.6,29.94,SSW,202,0.0,0.0,86,0.00,,,0.00,VWS V14.01,2013-03-31 10:27:00,
2013-03-31 05:28:00,66.7,62.6,29.94,SSW,202,0.0,0.0,86,0.00,,,0.00,VWS V14.01,2013-03-31 10:28:00,
2013-03-31 05:29:00,66.7,62.6,29.94,SSW,202,0.0,0.0,86,0.00,,,0.00,VWS V14.01,2013-03-31 10:29:00,
2013-03-31 05:30:00,66.7,62.6,29.94,SSW,202,0.0,0.0,86,0.00,,,0.00,VWS V14.01,2013-03-31 10:30:00,
2013-03-31 05:31:00,66.7,62.6,29.94,SSW,202,0.0,0.0,86,0.00,,,0.00,VWS V14.01,2013-03-31 10:31:00,
2013-03-31 05:32:00,66.7,62.6,29.94,SSW,202,0.0,0.0,86,0.00,,,0.00,VWS V14.01,2013-03-31 10:32:00,
2013-03-31 05:33:00,66.7,62.6,29.94,SSW,202,0.0,0.0,86,0.00,,,0.00,VWS V14.01,2013-03-31 10:33:00,
2013-03-31 05:34:00,66.7,62.6,29.94,SSW,202,0.0,0.0,86,0.00,,,0.00,VWS V14.01,2013-03-31 10:34:00,
2013-03-31 05:35:00,66.7,62.6,29.94,SSW,202,0.0,0.0,86,0.00,,,0.00,VWS V14.01,2013-03-31 10:35:00,
2013-03-31 05:36:00,66.7,62.6,29.94,SSW,202,0.0,0.0,86,0.00,,,0.00,VWS V14.01,2013-03-31 10:36:00,
2013-03-31 05:37:00,66.7,62.6,29.94,SSW,202,0.0,0.0,86,0.00,,,0.00,VWS V14.01,2013-03-31 10:37:00,
2013-03-31 05:38:00,66.7,62.6,29.94,SSW,202,0.0,0.0,86,0.00,,,0.00,VWS V14.01,2013-03-31 10:38:00,
2013-03-31 05:39:00,66.7,62.6,29.94,SSW,202,0.0,0.0,86,0.00,,,0.00,VWS V14.01,2013-03-31 10:39:00,
2013-03-31 05:40:00,66.7,62.6,29.94,SE,135,3.6,3.6,86,0.00,,,0.00,VWS V14.01,2013-03-31 10:40:00,
2013-03-31 05:41:00,66.9,62.8,29.94,SE,135,3.6,3.6,86,0.00,,,0.00,VWS V14.01,2013-03-31 10:41:00,
2013-03-31 05:42:00,66.9,62.8,29.94,SE,135,4.0,4.0,86,0.00,,,0.00,VWS V14.01,2013-03-31 10:42:00,
2013-03-31 05:43:00,67.1,62.9,29.94,SE,135,3.6,4.5,86,0.00,,,0.00,VWS V14.01,2013-03-31 10:43:00,
2013-03-31 05:44:00,67.1,62.9,29.94,SE,135,3.1,4.0,86,0.00,,,0.00,VWS V14.01,2013-03-31 10:44:00,
2013-03-31 05:45:00,67.3,63.1,29.94,SE,135,3.1,4.0,86,0.00,,,0.00,VWS V14.01,2013-03-31 10:45:00,
2013-03-31 05:46:00,67.3,63.1,29.94,NE,45,5.8,5.8,86,0.00,,,0.00,VWS V14.01,2013-03-31 10:46:00,
2013-03-31 05:47:00,67.5,63.3,29.94,ENE,68,4.5,5.8,86,0.00,,,0.00,VWS V14.01,2013-03-31 10:47:00,
2013-03-31 05:48:00,67.5,63.3,29.94,NE,45,4.0,4.5,86,0.00,,,0.00,VWS V14.01,2013-03-31 10:48:00,
2013-03-31 05:49:00,67.5,63.3,29.94,East,90,3.6,4.5,86,0.00,,,0.00,VWS V14.01,2013-03-31 10:49:00,
2013-03-31 05:50:00,67.5,63.3,29.94,East,90,4.0,4.5,86,0.00,,,0.00,VWS V14.01,2013-03-31 10:50:00,
2013-03-31 05:51:00,67.5,63.3,29.94,East,90,4.0,4.0,86,0.00,,,0.00,VWS V14.01,2013-03-31 10:51:00,
2013-03-31 05:52:00,67.5,63.3,29.94,East,90,3.1,4.0,86,0.00,,,0.00,VWS V14.01,2013-03-31 10:52:00,
2013-03-31 05:53:00,67.5,63.3,29.94,East,90,3.6,4.0,86,0.00,,,0.00,VWS V14.01,2013-03-31 10:53:00,
2013-03-31 05:54:00,67.5,63.3,29.94,East,90,4.5,8.3,86,0.00,,,0.00,VWS V14.01,2013-03-31 10:54:00,
2013-03-31 05:55:00,67.5,63.3,29.94,East,90,17.5,17.5,86,0.00,,,0.00,VWS V14.01,2013-03-31 10:55:00,
2013-03-31 05:56:00,67.5,63.3,29.97,ENE,68,7.6,17.5,86,0.00,,,0.00,VWS V14.01,2013-03-31 10:56:00,
2013-03-31 05:57:00,67.5,63.3,29.97,SE,135,5.8,7.6,86,0.00,,,0.00,VWS V14.01,2013-03-31 10:57:00,
2013-03-31 05:58:00,67.5,63.3,29.97,NE,45,17.9,17.9,86,0.00,,,0.00,VWS V14.01,2013-03-31 10:58:00,
2013-03-31 05:59:00,67.6,63.5,29.97,NE,45,8.1,8.1,86,0.00,,,0.00,VWS V14.01,2013-03-31 10:59:00,
2013-03-31 06:00:00,67.6,63.5,29.97,East,90,10.1,10.1,86,0.00,,,0.00,VWS V14.01,2013-03-31 11:00:00,
2013-03-31 06:01:00,67.3,63.1,29.97,East,90,5.4,11.0,86,0.00,,,0.00,VWS V14.01,2013-03-31 11:01:00,
2013-03-31 06:02:00,66.9,62.8,29.97,East,90,8.3,9.6,86,0.00,,,0.00,VWS V14.01,2013-03-31 11:02:00,
2013-03-31 06:03:00,66.7,62.6,29.97,NE,45,12.3,13.6,86,0.00,,,0.00,VWS V14.01,2013-03-31 11:03:00,
2013-03-31 06:04:00,66.2,62.1,29.97,East,90,14.1,14.1,86,0.00,,,0.00,VWS V14.01,2013-03-31 11:04:00,
2013-03-31 06:05:00,66.0,62.2,29.97,ESE,112,11.0,14.1,88,0.00,,,0.00,VWS V14.01,2013-03-31 11:05:00,
2013-03-31 06:06:00,65.8,62.0,29.97,ESE,112,10.5,15.0,88,0.00,,,0.00,VWS V14.01,2013-03-31 11:06:00,
2013-03-31 06:07:00,65.1,61.3,29.97,ESE,112,18.3,18.3,88,0.00,,,0.00,VWS V14.01,2013-03-31 11:07:00,
2013-03-31 06:08:00,64.8,61.0,29.97,East,90,13.2,18.3,88,0.00,,,0.00,VWS V14.01,2013-03-31 11:08:00,
2013-03-31 06:09:00,64.4,60.6,29.97,ESE,112,13.2,13.2,88,0.00,,,0.00,VWS V14.01,2013-03-31 11:09:00,
2013-03-31 06:10:00,64.4,60.6,29.97,ESE,112,13.2,13.2,88,0.00,,,0.00,VWS V14.01,2013-03-31 11:10:00,
2013-03-31 06:11:00,64.4,60.6,30.00,East,90,9.6,14.5,88,0.00,,,0.00,VWS V14.01,2013-03-31 11:11:00,
2013-03-31 06:12:00,64.4,60.6,30.00,ESE,112,10.1,10.1,88,0.00,,,0.00,VWS V14.01,2013-03-31 11:12:00,
2013-03-31 06:13:00,62.4,59.0,30.00,East,90,8.3,17.0,88,0.00,,,0.00,VWS V14.01,2013-03-31 11:13:00,
2013-03-31 06:14:00,61.5,58.1,30.00,East,90,14.5,14.5,88,0.00,,,0.00,VWS V14.01,2013-03-31 11:14:00,
2013-03-31 06:15:00,61.3,57.6,30.00,ENE,68,15.9,15.9,88,0.00,,,0.00,VWS V14.01,2013-03-31 11:15:00,
2013-03-31 06:16:00,61.0,57.2,30.00,ESE,112,8.7,15.9,88,0.00,,,0.00,VWS V14.01,2013-03-31 11:16:00,
2013-03-31 06:17:00,60.4,57.0,30.00,East,90,11.0,12.8,88,0.00,,,0.00,VWS V14.01,2013-03-31 11:17:00,
2013-03-31 06:18:00,60.1,56.7,30.00,ESE,112,12.3,17.5,88,0.00,,,0.00,VWS V14.01,2013-03-31 11:18:00,
2013-03-31 06:19:00,59.4,56.0,30.00,East,90,7.2,7.2,88,0.00,,,0.00,VWS V14.01,2013-03-31 11:19:00,
2013-03-31 06:20:00,59.4,56.0,30.00,East,90,3.6,7.2,88,0.00,,,0.00,VWS V14.01,2013-03-31 11:20:00,
2013-03-31 06:21:00,59.0,55.6,30.00,East,90,7.2,8.1,88,0.00,,,0.00,VWS V14.01,2013-03-31 11:21:00,
2013-03-31 06:22:00,58.6,55.3,30.00,ESE,112,6.7,12.3,88,0.00,,,0.00,VWS V14.01,2013-03-31 11:22:00,
2013-03-31 06:23:00,58.6,55.3,30.00,ESE,112,6.7,6.7,88,0.00,,,0.00,VWS V14.01,2013-03-31 11:23:00,
2013-03-31 06:24:00,58.1,54.7,30.00,ESE,112,8.3,8.3,88,0.00,,,0.00,VWS V14.01,2013-03-31 11:24:00,
2013-03-31 06:25:00,58.1,54.7,30.00,SE,135,10.1,13.2,88,0.00,,,0.00,VWS V14.01,2013-03-31 11:25:00,
2013-03-31 06:26:00,57.9,54.5,30.00,East,90,5.8,12.3,88,0.00,,,0.00,VWS V14.01,2013-03-31 11:26:00,
2013-03-31 06:27:00,57.7,54.4,30.00,East,90,6.3,11.0,88,0.00,,,0.00,VWS V14.01,2013-03-31 11:27:00,
2013-03-31 06:28:00,57.6,54.2,30.00,East,90,6.3,6.3,88,0.00,,,0.00,VWS V14.01,2013-03-31 11:28:00,
2013-03-31 06:29:00,57.6,54.2,30.00,East,90,8.7,15.0,88,0.00,,,0.00,VWS V14.01,2013-03-31 11:29:00,
2013-03-31 06:30:00,57.2,53.8,30.00,SE,135,8.7,15.0,88,0.00,,,0.00,VWS V14.01,2013-03-31 11:30:00,
2013-03-31 06:31:00,57.2,53.8,30.00,ESE,112,9.6,10.1,88,0.00,,,0.00,VWS V14.01,2013-03-31 11:31:00,
2013-03-31 06:32:00,57.0,54.0,30.00,East,90,8.7,9.6,90,0.00,,,0.00,VWS V14.01,2013-03-31 11:32:00,
2013-03-31 06:33:00,57.0,54.0,30.00,SE,135,8.1,10.5,90,0.00,,,0.00,VWS V14.01,2013-03-31 11:33:00,
2013-03-31 06:34:00,56.8,53.8,30.00,ESE,112,3.1,7.6,90,0.00,,,0.00,VWS V14.01,2013-03-31 11:34:00,
2013-03-31 06:35:00,56.8,53.8,30.00,East,90,15.4,15.4,90,0.00,,,0.00,VWS V14.01,2013-03-31 11:35:00,
2013-03-31 06:37:00,56.7,53.6,30.00,East,90,5.4,15.4,90,0.00,,,0.00,VWS V14.01,2013-03-31 11:37:00,
2013-03-31 06:38:00,56.5,53.4,30.00,East,90,4.9,7.6,90,0.00,,,0.00,VWS V14.01,2013-03-31 11:38:00,
2013-03-31 06:39:00,56.3,53.3,30.00,East,90,12.3,12.3,90,0.00,,,0.00,VWS V14.01,2013-03-31 11:39:00,
2013-03-31 06:40:00,56.3,53.3,30.00,SE,135,8.1,14.5,90,0.00,,,0.00,VWS V14.01,2013-03-31 11:40:00,
2013-03-31 06:41:00,56.3,53.3,30.00,SE,135,7.2,8.1,90,0.00,,,0.00,VWS V14.01,2013-03-31 11:41:00,
2013-03-31 06:42:00,56.3,53.3,30.00,SE,135,6.3,8.7,90,0.00,,,0.00,VWS V14.01,2013-03-31 11:42:00,
2013-03-31 06:43:00,56.1,53.1,30.00,East,90,8.1,8.3,90,0.00,,,0.00,VWS V14.01,2013-03-31 11:43:00,
2013-03-31 06:44:00,56.1,53.4,30.00,ESE,112,8.7,10.1,90,0.00,,,0.00,VWS V14.01,2013-03-31 11:44:00,
2013-03-31 06:45:00,56.1,53.4,30.00,SE,135,8.7,10.1,90,0.00,,,0.00,VWS V14.01,2013-03-31 11:45:00,
2013-03-31 06:46:00,56.1,53.4,30.00,SE,135,7.6,8.7,90,0.00,,,0.00,VWS V14.01,2013-03-31 11:46:00,
2013-03-31 06:47:00,55.9,53.2,30.00,SE,135,10.1,13.2,90,0.00,,,0.00,VWS V14.01,2013-03-31 11:47:00,
2013-03-31 06:48:00,55.9,53.2,30.00,SE,135,3.1,10.1,90,0.00,,,0.00,VWS V14.01,2013-03-31 11:48:00,
2013-03-31 06:49:00,55.9,53.2,30.00,SE,135,5.4,9.6,90,0.00,,,0.00,VWS V14.01,2013-03-31 11:49:00,
2013-03-31 06:51:00,55.9,53.2,30.00,East,90,3.6,9.6,90,0.00,,,0.00,VWS V14.01,2013-03-31 11:51:00,
2013-03-31 06:53:00,55.9,53.2,30.00,SE,135,3.1,7.6,90,0.00,,,0.00,VWS V14.01,2013-03-31 11:53:00,
2013-03-31 06:54:00,55.8,53.0,30.00,East,90,3.6,5.4,90,0.00,,,0.00,VWS V14.01,2013-03-31 11:54:00,
2013-03-31 06:55:00,55.8,53.0,30.00,East,90,2.7,5.4,90,0.00,,,0.00,VWS V14.01,2013-03-31 11:55:00,
2013-03-31 06:56:00,55.8,53.0,30.00,East,90,3.1,3.6,90,0.00,,,0.00,VWS V14.01,2013-03-31 11:56:00,
2013-03-31 06:57:00,55.8,53.3,30.00,ESE,112,5.4,6.7,92,0.00,,,0.00,VWS V14.01,2013-03-31 11:57:00,
2013-03-31 06:58:00,55.8,53.3,30.00,SE,135,3.6,6.3,92,0.00,,,0.00,VWS V14.01,2013-03-31 11:58:00,
2013-03-31 06:59:00,55.6,53.2,30.00,SE,135,3.1,4.9,92,0.00,,,0.00,VWS V14.01,2013-03-31 11:59:00,
2013-03-31 07:00:00,55.6,53.2,30.00,ESE,112,4.0,4.9,92,0.00,,,0.00,VWS V14.01,2013-03-31 12:00:00,
2013-03-31 07:01:00,55.6,53.2,30.00,SE,135,3.1,4.0,92,0.00,,,0.00,VWS V14.01,2013-03-31 12:01:00,
2013-03-31 07:02:00,55.6,53.2,30.00,SE,135,4.9,5.4,92,0.00,,,0.00,VWS V14.01,2013-03-31 12:02:00,
2013-03-31 07:04:00,55.4,53.0,30.00,ESE,112,5.8,5.8,92,0.00,,,0.00,VWS V14.01,2013-03-31 12:04:00,
2013-03-31 07:05:00,55.4,53.0,30.00,SE,135,6.3,6.3,92,0.00,,,0.00,VWS V14.01,2013-03-31 12:05:00,
2013-03-31 07:06:00,55.4,53.0,30.00,SE,135,3.1,8.7,92,0.00,,,0.00,VWS V14.01,2013-03-31 12:06:00,
2013-03-31 07:07:00,55.2,53.1,30.00,SE,135,7.6,9.6,92,0.00,,,0.00,VWS V14.01,2013-03-31 12:07:00,
2013-03-31 07:08:00,55.2,53.1,30.00,SE,135,5.4,7.6,92,0.00,,,0.00,VWS V14.01,2013-03-31 12:08:00,
2013-03-31 07:09:00,55.0,52.9,30.00,East,90,6.3,7.6,92,0.00,,,0.00,VWS V14.01,2013-03-31 12:09:00,
2013-03-31 07:10:00,55.0,52.9,30.00,East,90,5.8,7.6,92,0.00,,,0.00,VWS V14.01,2013-03-31 12:10:00,
2013-03-31 07:11:00,54.9,52.7,30.00,East,90,4.9,6.3,92,0.00,,,0.00,VWS V14.01,2013-03-31 12:11:00,
2013-03-31 07:12:00,54.9,52.7,30.00,SE,135,8.1,8.7,92,0.00,,,0.00,VWS V14.01,2013-03-31 12:12:00,
2013-03-31 07:13:00,54.7,52.5,30.00,SE,135,5.4,8.1,92,0.00,,,0.00,VWS V14.01,2013-03-31 12:13:00,
2013-03-31 07:14:00,54.7,52.5,30.00,SE,135,6.3,6.3,92,0.00,,,0.00,VWS V14.01,2013-03-31 12:14:00,
2013-03-31 07:15:00,54.5,52.4,30.00,SE,135,9.6,9.6,92,0.00,,,0.00,VWS V14.01,2013-03-31 12:15:00,
2013-03-31 07:17:00,54.5,52.4,30.00,SE,135,5.4,9.6,92,0.00,,,0.00,VWS V14.01,2013-03-31 12:17:00,
2013-03-31 07:18:00,54.5,52.4,30.00,SE,135,8.1,9.2,92,0.00,,,0.00,VWS V14.01,2013-03-31 12:18:00,
2013-03-31 07:19:00,54.3,52.2,30.00,ESE,112,11.0,11.0,92,0.00,,,0.00,VWS V14.01,2013-03-31 12:19:00,
2013-03-31 07:20:00,54.3,52.2,30.00,SE,135,4.0,11.0,92,0.00,,,0.00,VWS V14.01,2013-03-31 12:20:00,
2013-03-31 07:21:00,54.1,52.0,30.00,SE,135,8.3,10.5,92,0.00,,,0.00,VWS V14.01,2013-03-31 12:21:00,
2013-03-31 07:23:00,54.1,52.0,30.00,East,90,6.3,8.3,92,0.00,,,0.00,VWS V14.01,2013-03-31 12:23:00,
2013-03-31 07:24:00,54.1,52.0,30.00,East,90,4.9,4.9,92,0.00,,,0.00,VWS V14.01,2013-03-31 12:24:00,
2013-03-31 07:25:00,54.0,51.8,30.00,South,180,5.4,5.4,92,0.00,,,0.00,VWS V14.01,2013-03-31 12:25:00,
2013-03-31 07:26:00,53.8,51.7,30.00,SE,135,4.9,10.5,92,0.00,,,0.00,VWS V14.01,2013-03-31 12:26:00,
2013-03-31 07:27:00,53.8,51.7,30.00,SE,135,4.0,4.9,92,0.00,,,0.00,VWS V14.01,2013-03-31 12:27:00,
2013-03-31 07:28:00,53.8,51.7,30.00,ESE,112,3.6,6.3,92,0.00,,,0.00,VWS V14.01,2013-03-31 12:28:00,
2013-03-31 07:29:00,53.6,51.5,30.00,ESE,112,8.7,8.7,92,0.00,,,0.00,VWS V14.01,2013-03-31 12:29:00,
2013-03-31 07:30:00,53.6,51.5,30.00,SE,135,5.8,8.7,92,0.00,,,0.00,VWS V14.01,2013-03-31 12:30:00,
2013-03-31 07:31:00,53.6,51.5,30.00,East,90,8.3,8.3,92,0.00,,,0.00,VWS V14.01,2013-03-31 12:31:00,
2013-03-31 07:32:00,53.6,51.5,30.00,SE,135,4.0,8.3,92,0.00,,,0.00,VWS V14.01,2013-03-31 12:32:00,
2013-03-31 07:33:00,53.6,51.5,30.00,SE,135,5.8,9.6,92,0.00,,,0.00,VWS V14.01,2013-03-31 12:33:00,
2013-03-31 07:34:00,53.4,51.3,30.00,SE,135,3.1,7.2,92,0.00,,,0.00,VWS V14.01,2013-03-31 12:34:00,
2013-03-31 07:35:00,53.4,51.3,30.00,SE,135,3.1,7.2,92,0.00,,,0.00,VWS V14.01,2013-03-31 12:35:00,
2013-03-31 07:36:00,53.4,51.3,30.00,SE,135,8.3,8.3,92,0.00,,,0.00,VWS V14.01,2013-03-31 12:36:00,
2013-03-31 07:37:00,53.4,51.6,30.00,SE,135,4.9,8.3,94,0.00,,,0.00,VWS V14.01,2013-03-31 12:37:00,
2013-03-31 07:38:00,53.2,51.4,30.00,SE,135,4.0,8.3,94,0.00,,,0.00,VWS V14.01,2013-03-31 12:38:00,
2013-03-31 07:39:00,53.2,51.4,30.00,SE,135,4.0,4.0,94,0.00,,,0.00,VWS V14.01,2013-03-31 12:39:00,
2013-03-31 07:40:00,53.2,51.4,30.00,SE,135,4.0,4.0,94,0.00,,,0.00,VWS V14.01,2013-03-31 12:40:00,
2013-03-31 07:41:00,53.2,51.4,30.00,SE,135,8.7,8.7,94,0.00,,,0.00,VWS V14.01,2013-03-31 12:41:00,
2013-03-31 07:42:00,53.2,51.4,30.00,SE,135,8.7,8.7,94,0.00,,,0.00,VWS V14.01,2013-03-31 12:42:00,
2013-03-31 07:43:00,53.2,51.4,30.03,SSE,158,5.8,8.7,94,0.00,,,0.00,VWS V14.01,2013-03-31 12:43:00,
2013-03-31 07:44:00,53.2,51.4,30.03,SE,135,5.8,7.6,94,0.00,,,0.00,VWS V14.01,2013-03-31 12:44:00,
2013-03-31 07:45:00,53.1,51.2,30.03,SE,135,3.6,7.6,94,0.00,,,0.00,VWS V14.01,2013-03-31 12:45:00,
2013-03-31 07:46:00,53.1,51.2,30.03,SE,135,5.8,7.2,94,0.00,,,0.00,VWS V14.01,2013-03-31 12:46:00,
2013-03-31 07:47:00,53.1,51.2,30.03,SE,135,4.9,5.8,94,0.00,,,0.00,VWS V14.01,2013-03-31 12:47:00,
2013-03-31 07:48:00,53.1,51.2,30.03,SE,135,6.3,6.3,94,0.00,,,0.00,VWS V14.01,2013-03-31 12:48:00,
2013-03-31 07:49:00,53.1,51.2,30.03,SE,135,3.6,3.6,94,0.00,,,0.00,VWS V14.01,2013-03-31 12:49:00,
2013-03-31 07:50:00,53.1,51.2,30.03,SE,135,3.6,6.3,94,0.00,,,0.00,VWS V14.01,2013-03-31 12:50:00,
2013-03-31 07:51:00,53.1,51.2,30.03,ESE,112,4.0,4.9,94,0.00,,,0.00,VWS V14.01,2013-03-31 12:51:00,
2013-03-31 07:52:00,53.1,51.2,30.03,SE,135,8.1,8.1,94,0.00,,,0.00,VWS V14.01,2013-03-31 12:52:00,
2013-03-31 07:53:00,52.9,51.1,30.03,East,90,5.4,8.1,94,0.00,,,0.00,VWS V14.01,2013-03-31 12:53:00,
2013-03-31 07:54:00,52.9,51.1,30.03,SE,135,4.9,4.9,94,0.00,,,0.00,VWS V14.01,2013-03-31 12:54:00,
2013-03-31 07:55:00,52.9,51.1,30.03,SE,135,4.0,4.9,94,0.00,,,0.00,VWS V14.01,2013-03-31 12:55:00,
2013-03-31 07:56:00,52.9,51.1,30.03,SE,135,4.9,5.8,94,0.00,,,0.00,VWS V14.01,2013-03-31 12:56:00,
2013-03-31 07:57:00,52.9,51.1,30.03,SE,135,7.6,7.6,94,0.00,,,0.00,VWS V14.01,2013-03-31 12:57:00,
2013-03-31 07:58:00,52.9,51.1,30.03,SE,135,3.1,7.6,94,0.00,,,0.00,VWS V14.01,2013-03-31 12:58:00,
2013-03-31 07:59:00,52.7,50.9,30.03,SE,135,3.1,7.6,94,0.00,,,0.00,VWS V14.01,2013-03-31 12:59:00,
2013-03-31 08:00:00,52.7,50.9,30.03,SE,135,3.1,7.6,94,0.00,,,0.00,VWS V14.01,2013-03-31 13:00:00,
2013-03-31 08:01:00,52.7,50.9,30.03,ESE,112,3.1,4.9,94,0.00,,,0.00,VWS V14.01,2013-03-31 13:01:00,
2013-03-31 08:02:00,52.7,50.9,30.03,SE,135,5.4,5.8,94,0.00,,,0.00,VWS V14.01,2013-03-31 13:02:00,
2013-03-31 08:03:00,52.7,50.9,30.03,ESE,112,5.4,5.8,94,0.00,,,0.00,VWS V14.01,2013-03-31 13:03:00,
2013-03-31 08:04:00,52.7,50.9,30.03,SE,135,5.8,5.8,94,0.00,,,0.00,VWS V14.01,2013-03-31 13:04:00,
2013-03-31 08:05:00,52.7,50.9,30.03,SE,135,8.1,8.1,94,0.00,,,0.00,VWS V14.01,2013-03-31 13:05:00,
2013-03-31 08:06:00,52.5,50.7,30.03,SE,135,4.9,8.1,94,0.00,,,0.00,VWS V14.01,2013-03-31 13:06:00,
2013-03-31 08:07:00,52.5,50.7,30.03,SSE,158,7.2,9.6,94,0.00,,,0.00,VWS V14.01,2013-03-31 13:07:00,
2013-03-31 08:08:00,52.5,50.7,30.03,ESE,112,5.4,7.2,94,0.00,,,0.00,VWS V14.01,2013-03-31 13:08:00,
2013-03-31 08:09:00,52.5,50.7,30.03,SE,135,3.1,3.6,94,0.00,,,0.00,VWS V14.01,2013-03-31 13:09:00,
2013-03-31 08:10:00,52.5,50.7,30.03,SE,135,4.0,4.9,94,0.00,,,0.00,VWS V14.01,2013-03-31 13:10:00,
2013-03-31 08:11:00,52.5,50.7,30.03,SSE,158,4.0,5.8,94,0.00,,,0.00,VWS V14.01,2013-03-31 13:11:00,
2013-03-31 08:12:00,52.5,50.7,30.03,SE,135,2.7,6.3,94,0.00,,,0.00,VWS V14.01,2013-03-31 13:12:00,
2013-03-31 08:13:00,52.5,50.7,30.03,SE,135,7.6,7.6,94,0.00,,,0.00,VWS V14.01,2013-03-31 13:13:00,
2013-03-31 08:14:00,52.5,50.7,30.03,SE,135,6.3,6.3,94,0.00,,,0.00,VWS V14.01,2013-03-31 13:14:00,
2013-03-31 08:15:00,52.5,50.7,30.03,ESE,112,3.1,6.3,94,0.00,,,0.00,VWS V14.01,2013-03-31 13:15:00,
2013-03-31 08:16:00,52.5,50.7,30.03,SE,135,4.9,6.3,94,0.00,,,0.00,VWS V14.01,2013-03-31 13:16:00,
2013-03-31 08:17:00,52.5,50.7,30.03,SE,135,8.1,8.1,94,0.00,,,0.00,VWS V14.01,2013-03-31 13:17:00,
2013-03-31 08:18:00,52.3,50.5,30.03,SE,135,5.4,8.1,94,0.00,,,0.00,VWS V14.01,2013-03-31 13:18:00,
2013-03-31 08:19:00,52.5,50.7,30.03,SE,135,2.7,5.8,94,0.00,,,0.00,VWS V14.01,2013-03-31 13:19:00,
2013-03-31 08:20:00,52.5,50.7,30.03,SE,135,3.6,5.8,94,0.00,,,0.00,VWS V14.01,2013-03-31 13:20:00,
2013-03-31 08:21:00,52.5,50.7,30.03,SSE,158,5.8,5.8,94,0.00,,,0.00,VWS V14.01,2013-03-31 13:21:00,
2013-03-31 08:22:00,52.5,51.0,30.03,SE,135,4.0,5.8,94,0.00,,,0.00,VWS V14.01,2013-03-31 13:22:00,
2013-03-31 08:23:00,52.5,51.0,30.03,SE,135,4.0,4.0,94,0.00,,,0.00,VWS V14.01,2013-03-31 13:23:00,
2013-03-31 08:24:00,52.5,51.0,30.03,SSE,158,5.4,5.4,94,0.00,,,0.00,VWS V14.01,2013-03-31 13:24:00,
2013-03-31 08:25:00,52.5,51.0,30.03,SE,135,5.4,8.1,94,0.00,,,0.00,VWS V14.01,2013-03-31 13:25:00,
2013-03-31 08:26:00,52.5,51.0,30.03,South,180,4.0,6.3,94,0.00,,,0.00,VWS V14.01,2013-03-31 13:26:00,
2013-03-31 08:27:00,52.5,51.0,30.03,SSE,158,4.0,4.9,94,0.00,,,0.00,VWS V14.01,2013-03-31 13:27:00,
2013-03-31 08:28:00,52.5,51.0,30.03,SE,135,3.6,4.0,94,0.00,,,0.00,VWS V14.01,2013-03-31 13:28:00,
2013-03-31 08:29:00,52.5,51.0,30.03,SE,135,7.6,7.6,94,0.00,,,0.00,VWS V14.01,2013-03-31 13:29:00,
2013-03-31 08:30:00,52.5,51.0,30.03,SSE,158,8.1,8.1,94,0.00,,,0.00,VWS V14.01,2013-03-31 13:30:00,
2013-03-31 08:31:00,52.5,51.0,30.03,SE,135,2.7,8.1,94,0.00,,,0.00,VWS V14.01,2013-03-31 13:31:00,
2013-03-31 08:32:00,52.5,51.0,30.03,SE,135,7.6,7.6,94,0.00,,,0.00,VWS V14.01,2013-03-31 13:32:00,
2013-03-31 08:33:00,52.3,50.8,30.03,SSE,158,5.4,7.6,94,0.00,,,0.00,VWS V14.01,2013-03-31 13:33:00,
2013-03-31 08:34:00,52.3,50.8,30.03,South,180,3.6,5.4,94,0.00,,,0.00,VWS V14.01,2013-03-31 13:34:00,
2013-03-31 08:35:00,52.5,51.0,30.03,South,180,5.8,6.7,94,0.00,,,0.00,VWS V14.01,2013-03-31 13:35:00,
2013-03-31 08:36:00,52.5,51.0,30.03,South,180,6.3,6.7,94,0.00,,,0.00,VWS V14.01,2013-03-31 13:36:00,
2013-03-31 08:37:00,52.5,51.0,30.03,SE,135,4.0,6.7,94,0.00,,,0.00,VWS V14.01,2013-03-31 13:37:00,
2013-03-31 08:38:00,52.5,51.0,30.03,South,180,7.6,7.6,94,0.00,,,0.00,VWS V14.01,2013-03-31 13:38:00,
2013-03-31 08:39:00,52.3,50.8,30.03,SE,135,5.8,8.3,94,0.00,,,0.00,VWS V14.01,2013-03-31 13:39:00,
2013-03-31 08:40:00,52.5,51.0,30.03,SE,135,3.1,7.6,94,0.00,,,0.00,VWS V14.01,2013-03-31 13:40:00,
2013-03-31 08:41:00,52.5,51.0,30.03,SSE,158,3.6,5.8,94,0.00,,,0.00,VWS V14.01,2013-03-31 13:41:00,
2013-03-31 08:42:00,52.5,51.0,30.03,SE,135,2.7,5.8,94,0.00,,,0.00,VWS V14.01,2013-03-31 13:42:00,
2013-03-31 08:43:00,52.5,51.0,30.03,SE,135,3.1,4.9,94,0.00,,,0.00,VWS V14.01,2013-03-31 13:43:00,
2013-03-31 08:44:00,52.7,51.2,30.03,SSE,158,3.6,4.0,94,0.00,,,0.00,VWS V14.01,2013-03-31 13:44:00,
2013-03-31 08:45:00,52.7,51.2,30.03,South,180,3.1,4.0,94,0.00,,,0.00,VWS V14.01,2013-03-31 13:45:00,
2013-03-31 08:46:00,52.7,51.2,30.03,SE,135,6.3,6.3,94,0.00,,,0.00,VWS V14.01,2013-03-31 13:46:00,
2013-03-31 08:47:00,52.7,51.2,30.03,SE,135,6.3,6.3,94,0.00,,,0.00,VWS V14.01,2013-03-31 13:47:00,
2013-03-31 08:48:00,52.3,50.8,30.03,SE,135,2.2,7.2,94,0.00,,,0.00,VWS V14.01,2013-03-31 13:48:00,
2013-03-31 08:49:00,52.5,51.0,30.03,SE,135,4.0,8.1,94,0.00,,,0.00,VWS V14.01,2013-03-31 13:49:00,
2013-03-31 08:50:00,52.3,50.8,30.03,South,180,7.2,7.2,94,0.00,,,0.00,VWS V14.01,2013-03-31 13:50:00,
2013-03-31 08:51:00,52.5,51.0,30.03,SSE,158,7.6,7.6,94,0.00,,,0.00,VWS V14.01,2013-03-31 13:51:00,
2013-03-31 08:52:00,52.5,51.0,30.03,SE,135,7.2,8.3,94,0.00,,,0.00,VWS V14.01,2013-03-31 13:52:00,
2013-03-31 08:53:00,52.3,50.8,30.03,SSE,158,8.1,8.1,94,0.00,,,0.00,VWS V14.01,2013-03-31 13:53:00,
2013-03-31 08:54:00,52.3,50.8,30.03,SE,135,6.3,8.1,94,0.00,,,0.00,VWS V14.01,2013-03-31 13:54:00,
2013-03-31 08:55:00,52.0,50.7,30.03,SE,135,7.6,7.6,96,0.00,,,0.00,VWS V14.01,2013-03-31 13:55:00,
2013-03-31 08:56:00,52.2,50.9,30.03,SSE,158,5.8,7.6,96,0.00,,,0.00,VWS V14.01,2013-03-31 13:56:00,
2013-03-31 08:57:00,52.2,50.9,30.03,South,180,7.2,7.2,96,0.00,,,0.00,VWS V14.01,2013-03-31 13:57:00,
2013-03-31 08:58:00,52.2,50.9,30.03,South,180,4.0,8.1,96,0.00,,,0.00,VWS V14.01,2013-03-31 13:58:00,
2013-03-31 08:59:00,52.0,50.7,30.03,South,180,5.4,5.4,96,0.00,,,0.00,VWS V14.01,2013-03-31 13:59:00,
2013-03-31 09:00:00,52.0,50.7,30.03,SE,135,4.0,5.4,96,0.00,,,0.00,VWS V14.01,2013-03-31 14:00:00,
2013-03-31 09:01:00,52.2,50.9,30.03,South,180,4.0,4.0,96,0.00,,,0.00,VWS V14.01,2013-03-31 14:01:00,
2013-03-31 09:02:00,52.3,51.1,30.03,South,180,4.0,4.0,96,0.00,,,0.00,VWS V14.01,2013-03-31 14:02:00,
2013-03-31 09:03:00,52.3,51.1,30.03,South,180,2.7,4.9,96,0.00,,,0.00,VWS V14.01,2013-03-31 14:03:00,
2013-03-31 09:04:00,52.3,51.1,30.03,SE,135,8.3,8.3,96,0.00,,,0.00,VWS V14.01,2013-03-31 14:04:00,
2013-03-31 09:05:00,52.0,50.7,30.03,South,180,3.1,8.3,96,0.00,,,0.00,VWS V14.01,2013-03-31 14:05:00,
2013-03-31 09:06:00,52.2,50.9,30.03,SSE,158,6.3,6.3,96,0.00,,,0.00,VWS V14.01,2013-03-31 14:06:00,
2013-03-31 09:07:00,52.2,50.9,30.03,SSE,158,6.3,6.3,96,0.00,,,0.00,VWS V14.01,2013-03-31 14:07:00,
2013-03-31 09:08:00,51.8,50.6,30.03,South,180,4.0,6.3,96,0.00,,,0.00,VWS V14.01,2013-03-31 14:08:00,
2013-03-31 09:09:00,52.0,50.7,30.03,South,180,4.9,6.3,96,0.00,,,0.00,VWS V14.01,2013-03-31 14:09:00,
2013-03-31 09:10:00,52.0,50.7,30.03,South,180,6.3,6.3,96,0.00,,,0.00,VWS V14.01,2013-03-31 14:10:00,
2013-03-31 09:11:00,52.3,51.1,30.06,South,180,5.4,5.4,96,0.00,,,0.00,VWS V14.01,2013-03-31 14:11:00,
2013-03-31 09:12:00,52.3,51.1,30.06,SSE,158,4.9,5.4,96,0.00,,,0.00,VWS V14.01,2013-03-31 14:12:00,
2013-03-31 09:13:00,52.5,51.0,30.06,SSE,158,4.9,6.3,94,0.00,,,0.00,VWS V14.01,2013-03-31 14:13:00,
2013-03-31 09:14:00,52.5,51.0,30.06,SSE,158,7.6,7.6,94,0.00,,,0.00,VWS V14.01,2013-03-31 14:14:00,
2013-03-31 09:15:00,52.3,50.8,30.06,SSE,158,8.1,8.1,94,0.00,,,0.00,VWS V14.01,2013-03-31 14:15:00,
2013-03-31 09:16:00,52.3,50.8,30.06,South,180,5.8,8.3,94,0.00,,,0.00,VWS V14.01,2013-03-31 14:16:00,
2013-03-31 09:17:00,52.2,50.3,30.06,South,180,8.1,8.3,94,0.00,,,0.00,VWS V14.01,2013-03-31 14:17:00,
2013-03-31 09:18:00,52.2,50.3,30.06,South,180,3.6,8.1,94,0.00,,,0.00,VWS V14.01,2013-03-31 14:18:00,
2013-03-31 09:19:00,52.5,50.7,30.06,South,180,3.6,4.0,94,0.00,,,0.00,VWS V14.01,2013-03-31 14:19:00,
2013-03-31 09:20:00,52.5,50.7,30.06,South,180,4.9,5.8,94,0.00,,,0.00,VWS V14.01,2013-03-31 14:20:00,
2013-03-31 09:21:00,52.3,50.2,30.06,South,180,3.6,5.8,92,0.00,,,0.00,VWS V14.01,2013-03-31 14:21:00,
2013-03-31 09:22:00,52.3,50.2,30.06,South,180,5.4,5.8,92,0.00,,,0.00,VWS V14.01,2013-03-31 14:22:00,
2013-03-31 09:23:00,52.5,50.7,30.06,SE,135,6.3,8.7,94,0.00,,,0.00,VWS V14.01,2013-03-31 14:23:00,
2013-03-31 09:24:00,52.5,50.4,30.06,South,180,5.8,7.6,92,0.00,,,0.00,VWS V14.01,2013-03-31 14:24:00,
2013-03-31 09:25:00,52.5,50.4,30.06,South,180,4.9,7.2,92,0.00,,,0.00,VWS V14.01,2013-03-31 14:25:00,
2013-03-31 09:26:00,52.3,50.2,30.03,South,180,4.9,8.1,92,0.00,,,0.00,VWS V14.01,2013-03-31 14:26:00,
2013-03-31 09:27:00,52.3,50.2,30.03,South,180,4.0,8.1,92,0.00,,,0.00,VWS V14.01,2013-03-31 14:27:00,
2013-03-31 09:28:00,52.5,50.7,30.03,SSE,158,7.2,7.6,94,0.00,,,0.00,VWS V14.01,2013-03-31 14:28:00,
2013-03-31 09:29:00,52.3,50.5,30.03,South,180,8.3,8.3,94,0.00,,,0.00,VWS V14.01,2013-03-31 14:29:00,
2013-03-31 09:30:00,52.2,50.1,30.03,South,180,10.1,10.1,92,0.00,,,0.00,VWS V14.01,2013-03-31 14:30:00,
2013-03-31 09:31:00,52.2,50.1,30.03,South,180,6.3,7.6,92,0.00,,,0.00,VWS V14.01,2013-03-31 14:31:00,
2013-03-31 09:32:00,52.3,50.2,30.03,South,180,6.7,7.6,92,0.00,,,0.00,VWS V14.01,2013-03-31 14:32:00,
2013-03-31 09:33:00,52.3,50.2,30.03,SE,135,8.3,8.3,92,0.00,,,0.00,VWS V14.01,2013-03-31 14:33:00,
2013-03-31 09:34:00,52.5,50.4,30.03,SSE,158,8.1,8.3,92,0.00,,,0.00,VWS V14.01,2013-03-31 14:34:00,
2013-03-31 09:35:00,52.5,50.4,30.03,SE,135,6.3,8.1,92,0.00,,,0.00,VWS V14.01,2013-03-31 14:35:00,
2013-03-31 09:36:00,52.7,50.6,30.03,South,180,8.1,8.1,92,0.00,,,0.00,VWS V14.01,2013-03-31 14:36:00,
2013-03-31 09:37:00,52.7,50.6,30.03,South,180,8.1,8.1,92,0.00,,,0.00,VWS V14.01,2013-03-31 14:37:00,
2013-03-31 09:38:00,52.5,50.4,30.03,SSE,158,6.3,8.1,92,0.00,,,0.00,VWS V14.01,2013-03-31 14:38:00,
2013-03-31 09:39:00,52.7,50.6,30.03,South,180,5.4,10.5,92,0.00,,,0.00,VWS V14.01,2013-03-31 14:39:00,
2013-03-31 09:40:00,52.9,50.8,30.03,South,180,9.6,12.3,92,0.00,,,0.00,VWS V14.01,2013-03-31 14:40:00,
2013-03-31 09:41:00,52.9,50.8,30.03,SE,135,8.1,8.3,92,0.00,,,0.00,VWS V14.01,2013-03-31 14:41:00,
2013-03-31 09:42:00,52.9,50.8,30.03,SSE,158,6.3,8.3,92,0.00,,,0.00,VWS V14.01,2013-03-31 14:42:00,
2013-03-31 09:43:00,53.1,51.0,30.03,SE,135,5.8,8.3,92,0.00,,,0.00,VWS V14.01,2013-03-31 14:43:00,
2013-03-31 09:44:00,53.1,50.7,30.03,South,180,5.8,6.3,92,0.00,,,0.00,VWS V14.01,2013-03-31 14:44:00,
2013-03-31 09:45:00,53.4,51.3,30.03,South,180,6.3,8.7,92,0.00,,,0.00,VWS V14.01,2013-03-31 14:45:00,
2013-03-31 09:46:00,53.8,51.7,30.03,South,180,4.0,4.9,92,0.00,,,0.00,VWS V14.01,2013-03-31 14:46:00,
2013-03-31 09:47:00,54.0,51.8,30.03,South,180,4.9,5.4,92,0.00,,,0.00,VWS V14.01,2013-03-31 14:47:00,
2013-03-31 09:48:00,54.0,51.8,30.03,SSW,202,5.8,5.8,92,0.00,,,0.00,VWS V14.01,2013-03-31 14:48:00,
2013-03-31 09:49:00,54.3,52.2,30.03,SSW,202,10.5,10.5,92,0.00,,,0.00,VWS V14.01,2013-03-31 14:49:00,
2013-03-31 09:50:00,54.0,51.2,30.03,South,180,4.0,10.5,90,0.00,,,0.00,VWS V14.01,2013-03-31 14:50:00,
2013-03-31 09:51:00,54.1,51.4,30.03,South,180,8.1,8.7,90,0.00,,,0.00,VWS V14.01,2013-03-31 14:51:00,
2013-03-31 09:52:00,54.1,51.4,30.03,South,180,8.1,8.7,90,0.00,,,0.00,VWS V14.01,2013-03-31 14:52:00,
2013-03-31 09:53:00,54.5,51.8,30.03,SE,135,7.6,8.1,90,0.00,,,0.00,VWS V14.01,2013-03-31 14:53:00,
2013-03-31 09:54:00,54.7,51.7,30.03,SSE,158,8.1,8.1,90,0.00,,,0.00,VWS V14.01,2013-03-31 14:54:00,
2013-03-31 09:55:00,54.7,51.3,30.03,SSW,202,7.6,8.3,88,0.00,,,0.00,VWS V14.01,2013-03-31 14:55:00,
2013-03-31 09:56:00,54.9,51.5,30.03,South,180,7.2,8.7,88,0.00,,,0.00,VWS V14.01,2013-03-31 14:56:00,
2013-03-31 09:57:00,55.2,51.9,30.03,South,180,7.2,7.2,88,0.00,,,0.00,VWS V14.01,2013-03-31 14:57:00,
2013-03-31 09:58:00,55.2,51.9,30.03,South,180,6.3,6.3,88,0.00,,,0.00,VWS V14.01,2013-03-31 14:58:00,
2013-03-31 09:59:00,55.4,51.8,30.03,South,180,2.2,6.3,88,0.00,,,0.00,VWS V14.01,2013-03-31 14:59:00,
2013-03-31 10:00:00,55.6,51.9,30.03,SSW,202,3.1,3.6,88,0.00,,,0.00,VWS V14.01,2013-03-31 15:00:00,
2013-03-31 10:01:00,56.5,53.1,30.03,South,180,3.1,4.0,88,0.00,,,0.00,VWS V14.01,2013-03-31 15:01:00,
2013-03-31 10:02:00,56.7,53.3,30.03,South,180,3.6,4.0,88,0.00,,,0.00,VWS V14.01,2013-03-31 15:02:00,
2013-03-31 10:03:00,56.8,53.5,30.03,South,180,3.1,4.9,88,0.00,,,0.00,VWS V14.01,2013-03-31 15:03:00,
2013-03-31 10:04:00,56.8,53.5,30.03,SSW,202,5.4,6.3,88,0.00,,,0.00,VWS V14.01,2013-03-31 15:04:00,
2013-03-31 10:05:00,56.3,52.3,30.03,South,180,2.7,6.3,86,0.00,,,0.00,VWS V14.01,2013-03-31 15:05:00,
2013-03-31 10:06:00,56.8,52.9,30.03,South,180,6.3,7.2,86,0.00,,,0.00,VWS V14.01,2013-03-31 15:06:00,
2013-03-31 10:07:00,56.3,52.0,30.03,South,180,5.8,6.3,86,0.00,,,0.00,VWS V14.01,2013-03-31 15:07:00,
2013-03-31 10:08:00,56.7,52.4,30.03,South,180,5.8,8.1,86,0.00,,,0.00,VWS V14.01,2013-03-31 15:08:00,
2013-03-31 10:09:00,55.8,50.8,30.03,SSW,202,8.3,8.3,84,0.00,,,0.00,VWS V14.01,2013-03-31 15:09:00,
2013-03-31 10:10:00,55.4,50.5,30.03,SW,225,5.8,8.3,84,0.00,,,0.00,VWS V14.01,2013-03-31 15:10:00,
2013-03-31 10:11:00,55.9,51.0,30.06,South,180,6.3,6.3,84,0.00,,,0.00,VWS V14.01,2013-03-31 15:11:00,
2013-03-31 10:12:00,56.3,51.7,30.06,SSW,202,9.6,9.6,84,0.00,,,0.00,VWS V14.01,2013-03-31 15:12:00,
2013-03-31 10:13:00,55.8,50.8,30.06,South,180,6.7,12.3,84,0.00,,,0.00,VWS V14.01,2013-03-31 15:13:00,
2013-03-31 10:14:00,55.4,50.2,30.06,SSW,202,7.6,8.3,82,0.00,,,0.00,VWS V14.01,2013-03-31 15:14:00,
2013-03-31 10:15:00,55.6,50.7,30.06,South,180,6.3,7.6,84,0.00,,,0.00,VWS V14.01,2013-03-31 15:15:00,
2013-03-31 10:16:00,55.6,50.7,30.06,South,180,8.7,8.7,84,0.00,,,0.00,VWS V14.01,2013-03-31 15:16:00,
2013-03-31 10:17:00,55.9,51.0,30.06,South,180,11.0,11.0,84,0.00,,,0.00,VWS V14.01,2013-03-31 15:17:00,
2013-03-31 10:18:00,55.8,50.5,30.06,South,180,8.1,11.0,82,0.00,,,0.00,VWS V14.01,2013-03-31 15:18:00,
2013-03-31 10:19:00,55.8,50.5,30.06,South,180,8.7,10.5,82,0.00,,,0.00,VWS V14.01,2013-03-31 15:19:00,
2013-03-31 10:20:00,55.8,50.5,30.06,South,180,8.1,11.0,82,0.00,,,0.00,VWS V14.01,2013-03-31 15:20:00,
2013-03-31 10:21:00,56.3,51.0,30.06,SE,135,8.7,10.1,82,0.00,,,0.00,VWS V14.01,2013-03-31 15:21:00,
2013-03-31 10:22:00,56.1,50.9,30.06,South,180,5.8,8.7,82,0.00,,,0.00,VWS V14.01,2013-03-31 15:22:00,
2013-03-31 10:23:00,56.3,51.0,30.06,South,180,5.8,8.1,82,0.00,,,0.00,VWS V14.01,2013-03-31 15:23:00,
2013-03-31 10:24:00,56.7,51.4,30.06,South,180,4.9,5.8,82,0.00,,,0.00,VWS V14.01,2013-03-31 15:24:00,
2013-03-31 10:25:00,56.7,51.4,30.06,South,180,4.9,4.9,82,0.00,,,0.00,VWS V14.01,2013-03-31 15:25:00,
2013-03-31 10:26:00,56.5,49.9,30.06,South,180,8.7,10.5,78,0.00,,,0.00,VWS V14.01,2013-03-31 15:26:00,
2013-03-31 10:27:00,56.3,49.7,30.06,South,180,4.5,10.5,78,0.00,,,0.00,VWS V14.01,2013-03-31 15:27:00,
2013-03-31 10:28:00,56.8,50.6,30.06,South,180,6.3,9.6,80,0.00,,,0.00,VWS V14.01,2013-03-31 15:28:00,
2013-03-31 10:29:00,56.7,50.1,30.06,South,180,7.6,9.6,78,0.00,,,0.00,VWS V14.01,2013-03-31 15:29:00,
2013-03-31 10:30:00,56.5,50.2,30.06,South,180,5.8,7.6,80,0.00,,,0.00,VWS V14.01,2013-03-31 15:30:00,
2013-03-31 10:31:00,56.5,50.2,30.06,South,180,3.6,5.8,80,0.00,,,0.00,VWS V14.01,2013-03-31 15:31:00,
2013-03-31 10:32:00,57.4,51.1,30.06,South,180,4.0,4.9,80,0.00,,,0.00,VWS V14.01,2013-03-31 15:32:00,
2013-03-31 10:33:00,57.2,50.2,30.06,South,180,10.1,10.1,78,0.00,,,0.00,VWS V14.01,2013-03-31 15:33:00,
2013-03-31 10:34:00,57.2,49.9,30.06,South,180,4.9,10.1,76,0.00,,,0.00,VWS V14.01,2013-03-31 15:34:00,
2013-03-31 10:35:00,57.0,49.7,30.06,South,180,7.6,10.1,76,0.00,,,0.00,VWS V14.01,2013-03-31 15:35:00,
2013-03-31 10:36:00,57.0,49.7,30.06,SSW,202,10.5,10.5,76,0.00,,,0.00,VWS V14.01,2013-03-31 15:36:00,
2013-03-31 10:37:00,56.8,49.9,30.06,South,180,5.8,10.5,78,0.00,,,0.00,VWS V14.01,2013-03-31 15:37:00,
2013-03-31 10:38:00,57.0,50.1,30.06,South,180,4.9,6.3,78,0.00,,,0.00,VWS V14.01,2013-03-31 15:38:00,
2013-03-31 10:39:00,57.2,50.2,30.06,South,180,7.2,8.7,78,0.00,,,0.00,VWS V14.01,2013-03-31 15:39:00,
2013-03-31 10:40:00,57.4,50.8,30.06,South,180,6.3,7.2,78,0.00,,,0.00,VWS V14.01,2013-03-31 15:40:00,
2013-03-31 10:41:00,57.2,49.9,30.03,South,180,4.9,9.6,76,0.00,,,0.00,VWS V14.01,2013-03-31 15:41:00,
2013-03-31 10:42:00,57.2,49.9,30.03,SE,135,5.8,7.6,76,0.00,,,0.00,VWS V14.01,2013-03-31 15:42:00,
2013-03-31 10:43:00,57.7,50.4,30.03,SSW,202,6.3,7.6,76,0.00,,,0.00,VWS V14.01,2013-03-31 15:43:00,
2013-03-31 10:44:00,57.6,50.2,30.03,South,180,6.3,8.7,76,0.00,,,0.00,VWS V14.01,2013-03-31 15:44:00,
2013-03-31 10:45:00,57.6,49.9,30.03,South,180,8.1,8.1,76,0.00,,,0.00,VWS V14.01,2013-03-31 15:45:00,
2013-03-31 10:46:00,57.6,50.2,30.03,South,180,8.3,8.3,76,0.00,,,0.00,VWS V14.01,2013-03-31 15:46:00,
2013-03-31 10:47:00,57.7,50.8,30.03,South,180,4.9,8.3,78,0.00,,,0.00,VWS V14.01,2013-03-31 15:47:00,
2013-03-31 10:48:00,57.9,50.9,30.03,South,180,7.6,10.5,78,0.00,,,0.00,VWS V14.01,2013-03-31 15:48:00,
2013-03-31 10:49:00,57.6,50.2,30.03,SW,225,6.3,7.6,76,0.00,,,0.00,VWS V14.01,2013-03-31 15:49:00,
2013-03-31 10:50:00,57.9,50.6,30.03,South,180,8.3,8.3,76,0.00,,,0.00,VWS V14.01,2013-03-31 15:50:00,
2013-03-31 10:51:00,57.9,50.2,30.03,South,180,7.6,8.7,76,0.00,,,0.00,VWS V14.01,2013-03-31 15:51:00,
2013-03-31 10:52:00,57.7,49.7,30.03,South,180,7.6,9.6,74,0.00,,,0.00,VWS V14.01,2013-03-31 15:52:00,
2013-03-31 10:53:00,57.7,49.7,30.03,South,180,8.7,8.7,74,0.00,,,0.00,VWS V14.01,2013-03-31 15:53:00,
2013-03-31 10:54:00,57.6,49.5,30.03,South,180,8.7,10.1,74,0.00,,,0.00,VWS V14.01,2013-03-31 15:54:00,
2013-03-31 10:55:00,57.4,49.7,30.03,South,180,3.6,8.7,76,0.00,,,0.00,VWS V14.01,2013-03-31 15:55:00,
2013-03-31 10:56:00,57.6,49.9,30.06,SSW,202,8.3,11.0,76,0.00,,,0.00,VWS V14.01,2013-03-31 15:56:00,
2013-03-31 10:57:00,57.4,49.3,30.06,South,180,8.3,12.3,74,0.00,,,0.00,VWS V14.01,2013-03-31 15:57:00,
2013-03-31 10:58:00,57.4,49.3,30.06,South,180,4.0,8.3,74,0.00,,,0.00,VWS V14.01,2013-03-31 15:58:00,
2013-03-31 10:59:00,57.6,49.5,30.06,South,180,4.9,5.4,74,0.00,,,0.00,VWS V14.01,2013-03-31 15:59:00,
2013-03-31 11:00:00,58.1,50.4,30.06,South,180,3.1,4.9,76,0.00,,,0.00,VWS V14.01,2013-03-31 16:00:00,
2013-03-31 11:01:00,58.5,50.8,30.06,South,180,8.3,8.3,76,0.00,,,0.00,VWS V14.01,2013-03-31 16:01:00,
2013-03-31 11:02:00,58.6,50.2,30.06,South,180,8.3,8.3,74,0.00,,,0.00,VWS V14.01,2013-03-31 16:02:00,
2013-03-31 11:03:00,58.6,50.6,30.06,South,180,8.3,8.3,74,0.00,,,0.00,VWS V14.01,2013-03-31 16:03:00,
2013-03-31 11:04:00,58.5,50.0,30.06,South,180,8.3,8.3,74,0.00,,,0.00,VWS V14.01,2013-03-31 16:04:00,
2013-03-31 11:05:00,58.5,50.0,30.06,South,180,8.3,8.3,74,0.00,,,0.00,VWS V14.01,2013-03-31 16:05:00,
2013-03-31 11:06:00,58.5,50.0,30.06,South,180,8.3,8.3,74,0.00,,,0.00,VWS V14.01,2013-03-31 16:06:00,
2013-03-31 11:07:00,58.5,50.0,30.06,South,180,8.3,8.3,74,0.00,,,0.00,VWS V14.01,2013-03-31 16:07:00,
2013-03-31 11:08:00,58.8,50.7,30.06,South,180,8.3,8.3,74,0.00,,,0.00,VWS V14.01,2013-03-31 16:08:00,
2013-03-31 11:09:00,58.3,49.5,30.06,South,180,8.3,8.3,72,0.00,,,0.00,VWS V14.01,2013-03-31 16:09:00,
2013-03-31 11:10:00,59.0,50.9,30.06,South,180,8.3,8.3,74,0.00,,,0.00,VWS V14.01,2013-03-31 16:10:00,
2013-03-31 11:11:00,58.5,49.3,30.03,South,180,11.4,11.4,72,0.00,,,0.00,VWS V14.01,2013-03-31 16:11:00,
2013-03-31 11:12:00,58.5,49.3,30.03,South,180,10.1,11.4,72,0.00,,,0.00,VWS V14.01,2013-03-31 16:12:00,
2013-03-31 11:13:00,57.9,48.8,30.03,South,180,5.8,10.1,72,0.00,,,0.00,VWS V14.01,2013-03-31 16:13:00,
2013-03-31 11:14:00,58.3,49.5,30.03,SE,135,5.8,5.8,72,0.00,,,0.00,VWS V14.01,2013-03-31 16:14:00,
2013-03-31 11:15:00,59.2,50.7,30.03,SE,135,6.3,6.7,74,0.00,,,0.00,VWS V14.01,2013-03-31 16:15:00,
2013-03-31 11:16:00,59.2,50.4,30.03,South,180,6.3,10.1,72,0.00,,,0.00,VWS V14.01,2013-03-31 16:16:00,
2013-03-31 11:17:00,59.2,50.4,30.03,South,180,6.3,10.1,72,0.00,,,0.00,VWS V14.01,2013-03-31 16:17:00,
2013-03-31 11:18:00,58.6,49.8,30.03,South,180,5.8,8.1,72,0.00,,,0.00,VWS V14.01,2013-03-31 16:18:00,
2013-03-31 11:19:00,58.6,49.8,30.03,SE,135,4.9,8.3,72,0.00,,,0.00,VWS V14.01,2013-03-31 16:19:00,
2013-03-31 11:20:00,58.8,49.6,30.03,South,180,6.3,9.6,72,0.00,,,0.00,VWS V14.01,2013-03-31 16:20:00,
2013-03-31 11:21:00,58.6,49.5,30.03,South,180,0.0,6.3,72,0.00,,,0.00,VWS V14.01,2013-03-31 16:21:00,
2013-03-31 11:22:00,58.8,50.0,30.03,South,180,2.7,2.7,72,0.00,,,0.00,VWS V14.01,2013-03-31 16:22:00,
2013-03-31 11:23:00,59.7,50.9,30.03,SW,225,4.0,5.4,72,0.00,,,0.00,VWS V14.01,2013-03-31 16:23:00,
2013-03-31 11:24:00,59.5,50.7,30.03,South,180,3.1,4.9,72,0.00,,,0.00,VWS V14.01,2013-03-31 16:24:00,
2013-03-31 11:25:00,59.5,50.0,30.03,South,180,8.1,11.0,70,0.00,,,0.00,VWS V14.01,2013-03-31 16:25:00,
2013-03-31 11:26:00,59.4,49.8,30.03,South,180,7.2,8.1,70,0.00,,,0.00,VWS V14.01,2013-03-31 16:26:00,
2013-03-31 11:27:00,59.2,49.6,30.03,South,180,4.0,8.3,70,0.00,,,0.00,VWS V14.01,2013-03-31 16:27:00,
2013-03-31 11:28:00,59.5,50.3,30.03,South,180,3.1,4.9,72,0.00,,,0.00,VWS V14.01,2013-03-31 16:28:00,
2013-03-31 11:29:00,60.1,51.2,30.03,SSW,202,7.6,8.7,72,0.00,,,0.00,VWS V14.01,2013-03-31 16:29:00,
2013-03-31 11:30:00,59.4,49.8,30.03,SW,225,5.8,8.7,70,0.00,,,0.00,VWS V14.01,2013-03-31 16:30:00,
2013-03-31 11:31:00,59.2,49.6,30.03,SSW,202,5.8,8.3,70,0.00,,,0.00,VWS V14.01,2013-03-31 16:31:00,
2013-03-31 11:32:00,58.8,49.6,30.03,SW,225,4.0,5.8,72,0.00,,,0.00,VWS V14.01,2013-03-31 16:32:00,
2013-03-31 11:33:00,59.4,50.2,30.03,South,180,3.1,4.0,72,0.00,,,0.00,VWS V14.01,2013-03-31 16:33:00,
2013-03-31 11:34:00,59.9,50.7,30.03,SSW,202,7.6,7.6,72,0.00,,,0.00,VWS V14.01,2013-03-31 16:34:00,
2013-03-31 11:36:00,60.1,50.5,30.03,SE,135,5.4,7.6,70,0.00,,,0.00,VWS V14.01,2013-03-31 16:36:00,
2013-03-31 11:37:00,60.1,50.5,30.03,SW,225,6.3,6.3,70,0.00,,,0.00,VWS V14.01,2013-03-31 16:37:00,
2013-03-31 11:38:00,60.6,51.0,30.03,SSW,202,7.6,7.6,70,0.00,,,0.00,VWS V14.01,2013-03-31 16:38:00,
2013-03-31 11:39:00,60.4,50.4,30.03,SSW,202,6.3,7.6,70,0.00,,,0.00,VWS V14.01,2013-03-31 16:39:00,
2013-03-31 11:40:00,60.1,49.7,30.03,South,180,4.5,7.6,68,0.00,,,0.00,VWS V14.01,2013-03-31 16:40:00,
2013-03-31 11:41:00,60.6,51.0,30.06,South,180,5.4,8.7,70,0.00,,,0.00,VWS V14.01,2013-03-31 16:41:00,
2013-03-31 11:42:00,60.8,50.8,30.06,SSE,158,6.3,7.2,70,0.00,,,0.00,VWS V14.01,2013-03-31 16:42:00,
2013-03-31 11:43:00,61.0,50.5,30.06,SSE,158,3.1,6.3,68,0.00,,,0.00,VWS V14.01,2013-03-31 16:43:00,
2013-03-31 11:44:00,61.2,50.7,30.06,South,180,6.3,6.3,68,0.00,,,0.00,VWS V14.01,2013-03-31 16:44:00,
2013-03-31 11:45:00,61.2,50.3,30.06,South,180,8.3,8.3,68,0.00,,,0.00,VWS V14.01,2013-03-31 16:45:00,
2013-03-31 11:46:00,61.0,50.5,30.06,SSE,158,4.0,8.3,68,0.00,,,0.00,VWS V14.01,2013-03-31 16:46:00,
2013-03-31 11:47:00,61.3,51.3,30.06,South,180,5.4,5.4,70,0.00,,,0.00,VWS V14.01,2013-03-31 16:47:00,
2013-03-31 11:48:00,61.0,50.5,30.06,South,180,4.0,5.4,68,0.00,,,0.00,VWS V14.01,2013-03-31 16:48:00,
2013-03-31 11:49:00,61.7,51.2,30.06,SSW,202,0.0,4.0,68,0.00,,,0.00,VWS V14.01,2013-03-31 16:49:00,
2013-03-31 11:50:00,62.2,51.8,30.06,SE,135,2.2,3.6,68,0.00,,,0.00,VWS V14.01,2013-03-31 16:50:00,
2013-03-31 11:51:00,62.4,51.5,30.06,South,180,4.0,4.0,68,0.00,,,0.00,VWS V14.01,2013-03-31 16:51:00,
2013-03-31 11:52:00,62.6,51.7,30.06,South,180,5.8,5.8,68,0.00,,,0.00,VWS V14.01,2013-03-31 16:52:00,
2013-03-31 11:53:00,61.5,49.9,30.06,South,180,0.0,5.8,66,0.00,,,0.00,VWS V14.01,2013-03-31 16:53:00,
2013-03-31 11:54:00,61.5,49.9,30.06,South,180,2.7,5.4,66,0.00,,,0.00,VWS V14.01,2013-03-31 16:54:00,
2013-03-31 11:55:00,62.1,51.2,30.06,South,180,6.3,6.3,68,0.00,,,0.00,VWS V14.01,2013-03-31 16:55:00,
2013-03-31 11:56:00,62.4,51.1,30.06,South,180,4.9,6.3,66,0.00,,,0.00,VWS V14.01,2013-03-31 16:56:00,
2013-03-31 11:57:00,62.2,50.5,30.06,SE,135,4.9,5.4,66,0.00,,,0.00,VWS V14.01,2013-03-31 16:57:00,
2013-03-31 11:58:00,62.2,50.5,30.06,SE,135,5.4,5.4,66,0.00,,,0.00,VWS V14.01,2013-03-31 16:58:00,
2013-03-31 11:59:00,62.6,50.5,30.06,East,90,3.1,5.4,64,0.00,,,0.00,VWS V14.01,2013-03-31 16:59:00,
2013-03-31 12:00:00,63.0,51.2,30.06,ESE,112,4.9,7.2,66,0.00,,,0.00,VWS V14.01,2013-03-31 17:00:00,
2013-03-31 12:01:00,63.0,50.4,30.06,ESE,112,8.3,8.3,64,0.00,,,0.00,VWS V14.01,2013-03-31 17:01:00,
2013-03-31 12:02:00,62.8,49.4,30.06,East,90,6.3,6.3,62,0.00,,,0.00,VWS V14.01,2013-03-31 17:02:00,
2013-03-31 12:03:00,62.8,49.4,30.06,East,90,3.6,6.3,62,0.00,,,0.00,VWS V14.01,2013-03-31 17:03:00,
2013-03-31 12:04:00,62.2,49.3,30.06,East,90,8.1,8.1,62,0.00,,,0.00,VWS V14.01,2013-03-31 17:04:00,
2013-03-31 12:05:00,62.1,49.5,30.06,East,90,4.9,8.1,64,0.00,,,0.00,VWS V14.01,2013-03-31 17:05:00,
2013-03-31 12:06:00,61.9,49.4,30.06,SE,135,8.1,8.1,64,0.00,,,0.00,VWS V14.01,2013-03-31 17:06:00,
2013-03-31 12:07:00,61.7,49.2,30.06,SE,135,3.6,6.3,64,0.00,,,0.00,VWS V14.01,2013-03-31 17:07:00,
2013-03-31 12:08:00,61.5,49.5,30.06,SE,135,3.6,6.3,64,0.00,,,0.00,VWS V14.01,2013-03-31 17:08:00,
2013-03-31 12:09:00,61.7,49.6,30.06,SE,135,3.6,3.6,64,0.00,,,0.00,VWS V14.01,2013-03-31 17:09:00,
2013-03-31 12:10:00,61.9,49.8,30.06,South,180,7.2,8.1,64,0.00,,,0.00,VWS V14.01,2013-03-31 17:10:00,
2013-03-31 12:11:00,61.9,49.8,30.03,SE,135,2.7,7.2,64,0.00,,,0.00,VWS V14.01,2013-03-31 17:11:00,
2013-03-31 12:12:00,62.1,50.0,30.03,SE,135,6.3,7.2,64,0.00,,,0.00,VWS V14.01,2013-03-31 17:12:00,
2013-03-31 12:13:00,62.2,50.5,30.03,SE,135,2.7,7.2,66,0.00,,,0.00,VWS V14.01,2013-03-31 17:13:00,
2013-03-31 12:14:00,62.6,50.9,30.03,East,90,4.0,4.9,66,0.00,,,0.00,VWS V14.01,2013-03-31 17:14:00,
2013-03-31 12:15:00,62.8,50.7,30.03,ESE,112,5.8,6.7,64,0.00,,,0.00,VWS V14.01,2013-03-31 17:15:00,
2013-03-31 12:16:00,62.6,50.5,30.03,ESE,112,3.6,5.8,64,0.00,,,0.00,VWS V14.01,2013-03-31 17:16:00,
2013-03-31 12:17:00,62.6,50.1,30.03,SE,135,0.0,3.1,64,0.00,,,0.00,VWS V14.01,2013-03-31 17:17:00,
2013-03-31 12:18:00,63.0,50.8,30.03,SE,135,5.4,5.4,64,0.00,,,0.00,VWS V14.01,2013-03-31 17:18:00,
2013-03-31 12:19:00,63.7,51.5,30.03,SE,135,4.9,5.8,64,0.00,,,0.00,VWS V14.01,2013-03-31 17:19:00,
2013-03-31 12:20:00,63.7,51.1,30.03,East,90,3.1,4.9,64,0.00,,,0.00,VWS V14.01,2013-03-31 17:20:00,
2013-03-31 12:21:00,64.2,52.0,30.03,East,90,5.8,5.8,64,0.00,,,0.00,VWS V14.01,2013-03-31 17:21:00,
2013-03-31 12:22:00,64.0,51.4,30.03,ESE,112,3.1,4.0,64,0.00,,,0.00,VWS V14.01,2013-03-31 17:22:00,
2013-03-31 12:23:00,64.0,51.4,30.03,SE,135,4.0,4.0,64,0.00,,,0.00,VWS V14.01,2013-03-31 17:23:00,
2013-03-31 12:24:00,64.6,52.3,30.03,East,90,8.1,8.1,64,0.00,,,0.00,VWS V14.01,2013-03-31 17:24:00,
2013-03-31 12:25:00,64.2,50.3,30.03,SE,135,4.0,8.1,60,0.00,,,0.00,VWS V14.01,2013-03-31 17:25:00,
2013-03-31 12:26:00,64.2,51.6,30.03,SE,135,4.9,4.9,64,0.00,,,0.00,VWS V14.01,2013-03-31 17:26:00,
2013-03-31 12:27:00,63.9,50.4,30.03,SE,135,9.6,10.1,62,0.00,,,0.00,VWS V14.01,2013-03-31 17:27:00,
2013-03-31 12:28:00,63.7,49.8,30.03,East,90,7.6,10.1,60,0.00,,,0.00,VWS V14.01,2013-03-31 17:28:00,
2013-03-31 12:29:00,63.5,50.9,30.03,East,90,3.6,7.6,64,0.00,,,0.00,VWS V14.01,2013-03-31 17:29:00,
2013-03-31 12:30:00,63.7,50.7,30.03,East,90,4.9,4.9,62,0.00,,,0.00,VWS V14.01,2013-03-31 17:30:00,
2013-03-31 12:31:00,63.7,50.7,30.03,East,90,8.1,8.1,62,0.00,,,0.00,VWS V14.01,2013-03-31 17:31:00,
2013-03-31 12:32:00,63.3,49.9,30.03,East,90,8.1,8.1,62,0.00,,,0.00,VWS V14.01,2013-03-31 17:32:00,
2013-03-31 12:33:00,63.1,49.7,30.03,East,90,6.3,8.1,62,0.00,,,0.00,VWS V14.01,2013-03-31 17:33:00,
2013-03-31 12:34:00,63.3,49.9,30.03,SE,135,8.1,8.3,62,0.00,,,0.00,VWS V14.01,2013-03-31 17:34:00,
2013-03-31 12:35:00,63.5,50.0,30.03,South,180,8.1,8.3,62,0.00,,,0.00,VWS V14.01,2013-03-31 17:35:00,
2013-03-31 12:36:00,63.5,50.0,30.03,South,180,8.3,10.1,62,0.00,,,0.00,VWS V14.01,2013-03-31 17:36:00,
2013-03-31 12:37:00,63.0,49.1,30.03,SE,135,5.4,5.4,60,0.00,,,0.00,VWS V14.01,2013-03-31 17:37:00,
2013-03-31 12:38:00,62.8,48.9,30.03,SE,135,5.4,5.4,60,0.00,,,0.00,VWS V14.01,2013-03-31 17:38:00,
2013-03-31 12:39:00,62.8,48.9,30.03,ESE,112,9.6,9.6,60,0.00,,,0.00,VWS V14.01,2013-03-31 17:39:00,
2013-03-31 12:40:00,62.8,48.9,30.03,ESE,112,5.4,10.5,60,0.00,,,0.00,VWS V14.01,2013-03-31 17:40:00,
2013-03-31 12:41:00,62.6,49.2,30.03,East,90,7.6,8.3,62,0.00,,,0.00,VWS V14.01,2013-03-31 17:41:00,
2013-03-31 12:42:00,63.0,49.5,30.03,SE,135,5.4,5.4,62,0.00,,,0.00,VWS V14.01,2013-03-31 17:42:00,
2013-03-31 12:43:00,63.0,49.5,30.03,SE,135,5.4,5.4,62,0.00,,,0.00,VWS V14.01,2013-03-31 17:43:00,
2013-03-31 12:44:00,63.3,49.0,30.03,SE,135,6.3,8.7,60,0.00,,,0.00,VWS V14.01,2013-03-31 17:44:00,
2013-03-31 12:45:00,63.3,49.0,30.03,ESE,112,7.6,7.6,60,0.00,,,0.00,VWS V14.01,2013-03-31 17:45:00,
2013-03-31 12:46:00,63.1,47.9,30.03,SE,135,4.0,8.7,58,0.00,,,0.00,VWS V14.01,2013-03-31 17:46:00,
2013-03-31 12:47:00,63.5,48.2,30.03,SE,135,8.7,8.7,58,0.00,,,0.00,VWS V14.01,2013-03-31 17:47:00,
2013-03-31 12:48:00,63.5,47.3,30.03,ESE,112,8.1,8.7,56,0.00,,,0.00,VWS V14.01,2013-03-31 17:48:00,
2013-03-31 12:49:00,63.1,47.4,30.03,SE,135,6.3,8.7,56,0.00,,,0.00,VWS V14.01,2013-03-31 17:49:00,
2013-03-31 12:50:00,63.0,47.3,30.03,East,90,2.7,7.6,56,0.00,,,0.00,VWS V14.01,2013-03-31 17:50:00,
2013-03-31 12:51:00,63.1,47.9,30.03,SE,135,6.7,6.7,58,0.00,,,0.00,VWS V14.01,2013-03-31 17:51:00,
2013-03-31 12:52:00,63.1,47.9,30.03,East,90,3.1,4.0,58,0.00,,,0.00,VWS V14.01,2013-03-31 17:52:00,
2013-03-31 12:53:00,63.5,49.6,30.03,ESE,112,6.3,6.3,60,0.00,,,0.00,VWS V14.01,2013-03-31 17:53:00,
2013-03-31 12:54:00,63.9,49.0,30.03,SE,135,8.1,8.1,58,0.00,,,0.00,VWS V14.01,2013-03-31 17:54:00,
2013-03-31 12:55:00,64.0,49.7,30.03,SE,135,4.0,8.1,60,0.00,,,0.00,VWS V14.01,2013-03-31 17:55:00,
2013-03-31 12:56:00,63.5,48.7,30.03,SE,135,4.0,5.8,58,0.00,,,0.00,VWS V14.01,2013-03-31 17:56:00,
2013-03-31 12:57:00,63.7,48.9,30.03,East,90,8.1,8.1,58,0.00,,,0.00,VWS V14.01,2013-03-31 17:57:00,
2013-03-31 12:58:00,64.0,49.7,30.03,ESE,112,5.8,8.1,60,0.00,,,0.00,VWS V14.01,2013-03-31 17:58:00,
2013-03-31 12:59:00,64.0,50.1,30.03,ENE,68,7.2,10.1,60,0.00,,,0.00,VWS V14.01,2013-03-31 17:59:00,
2013-03-31 13:00:00,63.9,49.5,30.03,East,90,7.2,7.6,60,0.00,,,0.00,VWS V14.01,2013-03-31 18:00:00,
2013-03-31 13:01:00,64.2,50.7,30.03,East,90,7.2,7.6,62,0.00,,,0.00,VWS V14.01,2013-03-31 18:01:00,
2013-03-31 13:02:00,64.4,50.5,30.03,South,180,6.3,6.3,60,0.00,,,0.00,VWS V14.01,2013-03-31 18:02:00,
2013-03-31 13:03:00,64.6,51.1,30.03,South,180,6.3,8.3,62,0.00,,,0.00,VWS V14.01,2013-03-31 18:03:00,
2013-03-31 13:04:00,64.9,52.3,30.03,East,90,5.8,8.1,64,0.00,,,0.00,VWS V14.01,2013-03-31 18:04:00,
2013-03-31 13:05:00,65.1,52.0,30.03,ESE,112,5.8,5.8,62,0.00,,,0.00,VWS V14.01,2013-03-31 18:05:00,
2013-03-31 13:06:00,64.6,50.2,30.03,SE,135,5.4,7.2,60,0.00,,,0.00,VWS V14.01,2013-03-31 18:06:00,
2013-03-31 13:07:00,64.6,51.1,30.03,East,90,6.7,6.7,62,0.00,,,0.00,VWS V14.01,2013-03-31 18:07:00,
2013-03-31 13:08:00,64.8,51.2,30.03,ESE,112,6.7,6.7,62,0.00,,,0.00,VWS V14.01,2013-03-31 18:08:00,
2013-03-31 13:09:00,64.8,50.3,30.03,SE,135,3.6,7.2,60,0.00,,,0.00,VWS V14.01,2013-03-31 18:09:00,
2013-03-31 13:10:00,64.6,50.2,30.03,East,90,5.4,7.6,60,0.00,,,0.00,VWS V14.01,2013-03-31 18:10:00,
2013-03-31 13:11:00,64.6,50.2,30.03,East,90,4.9,5.4,60,0.00,,,0.00,VWS V14.01,2013-03-31 18:11:00,
2013-03-31 13:12:00,64.6,50.6,30.03,NE,45,4.9,4.9,60,0.00,,,0.00,VWS V14.01,2013-03-31 18:12:00,
2013-03-31 13:13:00,64.8,50.3,30.03,East,90,6.7,7.6,60,0.00,,,0.00,VWS V14.01,2013-03-31 18:13:00,
2013-03-31 13:14:00,64.4,49.5,30.03,East,90,0.0,7.2,58,0.00,,,0.00,VWS V14.01,2013-03-31 18:14:00,
2013-03-31 13:15:00,64.9,51.0,30.03,East,90,0.0,0.0,60,0.00,,,0.00,VWS V14.01,2013-03-31 18:15:00,
2013-03-31 13:16:00,65.7,51.6,30.03,East,90,3.6,4.0,60,0.00,,,0.00,VWS V14.01,2013-03-31 18:16:00,
2013-03-31 13:17:00,65.7,51.2,30.03,East,90,3.1,3.1,60,0.00,,,0.00,VWS V14.01,2013-03-31 18:17:00,
2013-03-31 13:18:00,65.7,51.2,30.03,East,90,4.0,5.4,60,0.00,,,0.00,VWS V14.01,2013-03-31 18:18:00,
2013-03-31 13:19:00,65.7,50.7,30.03,SE,135,2.2,4.0,58,0.00,,,0.00,VWS V14.01,2013-03-31 18:19:00,
2013-03-31 13:20:00,65.8,51.4,30.03,South,180,4.0,4.0,60,0.00,,,0.00,VWS V14.01,2013-03-31 18:20:00,
2013-03-31 13:21:00,66.2,51.2,30.03,South,180,5.4,5.4,58,0.00,,,0.00,VWS V14.01,2013-03-31 18:21:00,
2013-03-31 13:22:00,65.8,50.4,30.03,SSE,158,5.4,5.4,58,0.00,,,0.00,VWS V14.01,2013-03-31 18:22:00,
2013-03-31 13:23:00,65.8,50.4,30.03,SSE,158,5.4,5.4,58,0.00,,,0.00,VWS V14.01,2013-03-31 18:23:00,
2013-03-31 13:24:00,65.5,50.6,30.03,SSE,158,5.4,5.4,58,0.00,,,0.00,VWS V14.01,2013-03-31 18:24:00,
2013-03-31 13:25:00,65.1,50.2,30.03,South,180,3.6,5.4,58,0.00,,,0.00,VWS V14.01,2013-03-31 18:25:00,
2013-03-31 13:26:00,65.8,50.9,30.03,South,180,3.6,3.6,58,0.00,,,0.00,VWS V14.01,2013-03-31 18:26:00,
2013-03-31 13:27:00,66.0,51.1,30.03,South,180,3.6,3.6,58,0.00,,,0.00,VWS V14.01,2013-03-31 18:27:00,
2013-03-31 13:28:00,66.0,51.1,30.03,South,180,3.6,3.6,58,0.00,,,0.00,VWS V14.01,2013-03-31 18:28:00,
2013-03-31 13:29:00,66.0,51.5,30.03,South,180,3.6,3.6,60,0.00,,,0.00,VWS V14.01,2013-03-31 18:29:00,
2013-03-31 13:30:00,66.0,51.1,30.03,South,180,3.6,3.6,58,0.00,,,0.00,VWS V14.01,2013-03-31 18:30:00,
2013-03-31 13:31:00,66.2,50.3,30.03,South,180,5.4,5.4,56,0.00,,,0.00,VWS V14.01,2013-03-31 18:31:00,
2013-03-31 13:32:00,65.1,48.3,30.03,South,180,5.4,5.4,54,0.00,,,0.00,VWS V14.01,2013-03-31 18:32:00,
2013-03-31 13:33:00,64.9,48.6,30.03,SE,135,3.6,5.4,56,0.00,,,0.00,VWS V14.01,2013-03-31 18:33:00,
2013-03-31 13:34:00,64.8,48.0,30.03,SE,135,6.3,6.7,54,0.00,,,0.00,VWS V14.01,2013-03-31 18:34:00,
2013-03-31 13:35:00,64.2,48.0,30.03,SE,135,0.0,6.3,56,0.00,,,0.00,VWS V14.01,2013-03-31 18:35:00,
2013-03-31 13:36:00,64.2,48.0,30.03,SSE,158,3.6,3.6,56,0.00,,,0.00,VWS V14.01,2013-03-31 18:36:00,
2013-03-31 13:37:00,65.1,50.7,30.03,ESE,112,2.7,3.1,60,0.00,,,0.00,VWS V14.01,2013-03-31 18:37:00,
2013-03-31 13:38:00,65.1,50.7,30.03,SE,135,2.7,3.1,60,0.00,,,0.00,VWS V14.01,2013-03-31 18:38:00,
2013-03-31 13:39:00,65.7,51.2,30.03,SE,135,2.7,3.6,60,0.00,,,0.00,VWS V14.01,2013-03-31 18:39:00,
2013-03-31 13:40:00,66.0,51.5,30.03,SE,135,10.5,10.5,60,0.00,,,0.00,VWS V14.01,2013-03-31 18:40:00,
2013-03-31 13:41:00,64.9,49.1,30.03,SE,135,8.7,10.5,56,0.00,,,0.00,VWS V14.01,2013-03-31 18:41:00,
2013-03-31 13:42:00,64.2,48.9,30.03,SSE,158,8.1,8.1,58,0.00,,,0.00,VWS V14.01,2013-03-31 18:42:00,
2013-03-31 13:43:00,64.2,48.9,30.03,South,180,6.3,8.1,58,0.00,,,0.00,VWS V14.01,2013-03-31 18:43:00,
2013-03-31 13:44:00,64.0,48.8,30.03,South,180,5.4,6.3,58,0.00,,,0.00,VWS V14.01,2013-03-31 18:44:00,
2013-03-31 13:45:00,64.2,48.9,30.03,SSE,158,5.4,7.6,58,0.00,,,0.00,VWS V14.01,2013-03-31 18:45:00,
2013-03-31 13:46:00,64.0,48.8,30.03,South,180,7.2,7.2,58,0.00,,,0.00,VWS V14.01,2013-03-31 18:46:00,
2013-03-31 13:47:00,64.0,49.2,30.03,SE,135,3.1,4.9,58,0.00,,,0.00,VWS V14.01,2013-03-31 18:47:00,
2013-03-31 13:48:00,64.0,49.2,30.03,SE,135,4.0,4.9,58,0.00,,,0.00,VWS V14.01,2013-03-31 18:48:00,
2013-03-31 13:49:00,63.9,49.0,30.03,South,180,2.7,4.5,58,0.00,,,0.00,VWS V14.01,2013-03-31 18:49:00,
2013-03-31 13:50:00,64.4,50.5,30.03,South,180,0.0,2.7,60,0.00,,,0.00,VWS V14.01,2013-03-31 18:50:00,
2013-03-31 13:51:00,64.8,50.8,30.03,South,180,0.0,0.0,60,0.00,,,0.00,VWS V14.01,2013-03-31 18:51:00,
2013-03-31 13:52:00,65.1,50.2,30.03,SE,135,2.7,4.0,58,0.00,,,0.00,VWS V14.01,2013-03-31 18:52:00,
2013-03-31 13:53:00,65.1,50.2,30.03,South,180,5.4,5.4,58,0.00,,,0.00,VWS V14.01,2013-03-31 18:53:00,
2013-03-31 13:54:00,65.5,51.0,30.03,SE,135,2.7,5.4,60,0.00,,,0.00,VWS V14.01,2013-03-31 18:54:00,
2013-03-31 13:55:00,65.7,50.7,30.03,South,180,3.1,4.0,58,0.00,,,0.00,VWS V14.01,2013-03-31 18:55:00,
2013-03-31 13:56:00,65.5,50.1,30.03,South,180,2.7,7.2,58,0.00,,,0.00,VWS V14.01,2013-03-31 18:56:00,
2013-03-31 13:57:00,65.5,50.1,30.03,South,180,5.4,5.4,58,0.00,,,0.00,VWS V14.01,2013-03-31 18:57:00,
2013-03-31 13:58:00,65.5,50.1,30.03,South,180,5.4,5.4,58,0.00,,,0.00,VWS V14.01,2013-03-31 18:58:00,
2013-03-31 13:59:00,64.6,48.8,30.03,South,180,3.6,6.3,56,0.00,,,0.00,VWS V14.01,2013-03-31 18:59:00,
2013-03-31 14:00:00,64.0,48.8,30.03,South,180,3.1,4.0,58,0.00,,,0.00,VWS V14.01,2013-03-31 19:00:00,
2013-03-31 14:01:00,64.6,49.7,30.03,SE,135,0.0,3.1,58,0.00,,,0.00,VWS V14.01,2013-03-31 19:01:00,
2013-03-31 14:02:00,64.6,49.7,30.03,East,90,10.5,10.5,58,0.00,,,0.00,VWS V14.01,2013-03-31 19:02:00,
2013-03-31 14:03:00,64.6,49.7,30.03,SE,135,8.1,10.5,58,0.00,,,0.00,VWS V14.01,2013-03-31 19:03:00,
2013-03-31 14:04:00,65.7,49.3,30.03,ESE,112,3.6,8.1,56,0.00,,,0.00,VWS V14.01,2013-03-31 19:04:00,
2013-03-31 14:05:00,65.8,50.0,30.03,East,90,5.4,5.4,56,0.00,,,0.00,VWS V14.01,2013-03-31 19:05:00,
2013-03-31 14:06:00,65.7,49.8,30.03,East,90,6.3,8.1,56,0.00,,,0.00,VWS V14.01,2013-03-31 19:06:00,
2013-03-31 14:07:00,65.5,49.6,30.03,SE,135,4.9,6.3,56,0.00,,,0.00,VWS V14.01,2013-03-31 19:07:00,
2013-03-31 14:08:00,65.5,49.6,30.03,East,90,4.0,6.3,56,0.00,,,0.00,VWS V14.01,2013-03-31 19:08:00,
2013-03-31 14:09:00,65.1,49.3,30.03,East,90,0.0,4.0,56,0.00,,,0.00,VWS V14.01,2013-03-31 19:09:00,
2013-03-31 14:10:00,65.5,49.6,30.03,SE,135,4.0,4.9,56,0.00,,,0.00,VWS V14.01,2013-03-31 19:10:00,
2013-03-31 14:11:00,65.8,50.4,30.00,SE,135,0.0,4.0,58,0.00,,,0.00,VWS V14.01,2013-03-31 19:11:00,
2013-03-31 14:12:00,66.4,51.4,30.00,East,90,4.0,4.0,58,0.00,,,0.00,VWS V14.01,2013-03-31 19:12:00,
2013-03-31 14:13:00,66.6,51.6,30.00,East,90,10.5,10.5,58,0.00,,,0.00,VWS V14.01,2013-03-31 19:13:00,
2013-03-31 14:14:00,66.6,50.2,30.00,ENE,68,8.7,13.2,56,0.00,,,0.00,VWS V14.01,2013-03-31 19:14:00,
2013-03-31 14:15:00,66.6,50.2,30.00,ENE,68,8.7,8.7,56,0.00,,,0.00,VWS V14.01,2013-03-31 19:15:00,
2013-03-31 14:16:00,65.8,50.0,30.00,ENE,68,7.2,9.6,56,0.00,,,0.00,VWS V14.01,2013-03-31 19:16:00,
2013-03-31 14:17:00,65.7,50.3,30.00,SE,135,0.0,8.1,58,0.00,,,0.00,VWS V14.01,2013-03-31 19:17:00,
2013-03-31 14:18:00,65.7,50.3,30.00,SE,135,4.0,8.1,58,0.00,,,0.00,VWS V14.01,2013-03-31 19:18:00,
2013-03-31 14:19:00,65.8,50.0,30.00,SSE,158,4.0,4.5,56,0.00,,,0.00,VWS V14.01,2013-03-31 19:19:00,
2013-03-31 14:20:00,65.7,48.8,30.00,SE,135,4.9,6.3,54,0.00,,,0.00,VWS V14.01,2013-03-31 19:20:00,
2013-03-31 14:21:00,65.5,49.2,30.00,SE,135,0.0,4.9,56,0.00,,,0.00,VWS V14.01,2013-03-31 19:21:00,
2013-03-31 14:22:00,66.0,49.7,30.00,SE,135,4.0,6.3,56,0.00,,,0.00,VWS V14.01,2013-03-31 19:22:00,
2013-03-31 14:23:00,66.0,49.7,30.00,SE,135,4.0,6.3,56,0.00,,,0.00,VWS V14.01,2013-03-31 19:23:00,
2013-03-31 14:24:00,65.8,49.0,30.00,ESE,112,3.1,5.4,54,0.00,,,0.00,VWS V14.01,2013-03-31 19:24:00,
2013-03-31 14:25:00,65.8,50.0,30.00,ESE,112,4.9,4.9,56,0.00,,,0.00,VWS V14.01,2013-03-31 19:25:00,
2013-03-31 14:26:00,66.4,50.5,30.00,ESE,112,0.0,4.9,56,0.00,,,0.00,VWS V14.01,2013-03-31 19:26:00,
2013-03-31 14:27:00,66.4,49.0,30.00,West,270,2.7,4.0,54,0.00,,,0.00,VWS V14.01,2013-03-31 19:27:00,
2013-03-31 14:28:00,65.3,48.0,30.00,West,270,2.7,4.9,54,0.00,,,0.00,VWS V14.01,2013-03-31 19:28:00,
2013-03-31 14:29:00,66.0,48.7,30.00,West,270,0.0,2.7,54,0.00,,,0.00,VWS V14.01,2013-03-31 19:29:00,
2013-03-31 14:30:00,66.9,51.0,30.00,SSW,202,2.7,3.6,56,0.00,,,0.00,VWS V14.01,2013-03-31 19:30:00,
2013-03-31 14:31:00,66.4,49.5,30.00,SW,225,4.0,5.8,54,0.00,,,0.00,VWS V14.01,2013-03-31 19:31:00,
2013-03-31 14:32:00,65.8,49.5,30.00,South,180,3.1,4.9,56,0.00,,,0.00,VWS V14.01,2013-03-31 19:32:00,
2013-03-31 14:33:00,65.8,49.5,30.00,SSE,158,4.9,4.9,56,0.00,,,0.00,VWS V14.01,2013-03-31 19:33:00,
2013-03-31 14:34:00,65.7,47.8,30.00,SE,135,6.3,6.3,52,0.00,,,0.00,VWS V14.01,2013-03-31 19:34:00,
2013-03-31 14:35:00,65.7,47.8,30.00,South,180,5.8,6.3,52,0.00,,,0.00,VWS V14.01,2013-03-31 19:35:00,
2013-03-31 14:36:00,65.3,48.0,30.00,South,180,11.0,11.0,54,0.00,,,0.00,VWS V14.01,2013-03-31 19:36:00,
2013-03-31 14:37:00,64.6,47.3,30.00,South,180,12.3,15.4,54,0.00,,,0.00,VWS V14.01,2013-03-31 19:37:00,
2013-03-31 14:38:00,64.4,47.2,30.00,South,180,8.1,12.3,54,0.00,,,0.00,VWS V14.01,2013-03-31 19:38:00,
2013-03-31 14:39:00,64.4,47.2,30.00,South,180,8.7,10.1,54,0.00,,,0.00,VWS V14.01,2013-03-31 19:39:00,
2013-03-31 14:40:00,64.4,47.7,30.00,SSE,158,7.6,8.7,54,0.00,,,0.00,VWS V14.01,2013-03-31 19:40:00,
2013-03-31 14:41:00,64.8,48.0,30.00,SE,135,5.4,8.3,54,0.00,,,0.00,VWS V14.01,2013-03-31 19:41:00,
2013-03-31 14:42:00,65.3,48.5,30.00,South,180,3.6,7.6,54,0.00,,,0.00,VWS V14.01,2013-03-31 19:42:00,
2013-03-31 14:43:00,65.3,47.5,30.00,South,180,2.7,7.6,52,0.00,,,0.00,VWS V14.01,2013-03-31 19:43:00,
2013-03-31 14:44:00,65.5,48.2,30.00,South,180,5.4,5.4,54,0.00,,,0.00,VWS V14.01,2013-03-31 19:44:00,
2013-03-31 14:45:00,65.7,48.3,30.00,South,180,0.0,5.4,54,0.00,,,0.00,VWS V14.01,2013-03-31 19:45:00,
2013-03-31 14:46:00,66.0,49.2,30.00,South,180,0.0,2.7,54,0.00,,,0.00,VWS V14.01,2013-03-31 19:46:00,
2013-03-31 14:47:00,66.9,48.5,30.00,ESE,112,4.0,8.3,52,0.00,,,0.00,VWS V14.01,2013-03-31 19:47:00,
2013-03-31 14:48:00,66.9,48.5,30.00,ESE,112,4.0,8.3,52,0.00,,,0.00,VWS V14.01,2013-03-31 19:48:00,
2013-03-31 14:49:00,67.1,50.2,30.00,NE,45,8.1,8.1,54,0.00,,,0.00,VWS V14.01,2013-03-31 19:49:00,
2013-03-31 14:50:00,66.9,49.0,30.00,ENE,68,5.4,8.7,52,0.00,,,0.00,VWS V14.01,2013-03-31 19:50:00,
2013-03-31 14:51:00,66.4,48.5,30.00,NE,45,6.3,8.1,52,0.00,,,0.00,VWS V14.01,2013-03-31 19:51:00,
2013-03-31 14:52:00,66.4,49.0,30.00,NE,45,8.7,8.7,54,0.00,,,0.00,VWS V14.01,2013-03-31 19:52:00,
2013-03-31 14:53:00,66.4,49.0,30.00,ENE,68,8.7,8.7,54,0.00,,,0.00,VWS V14.01,2013-03-31 19:53:00,
2013-03-31 14:54:00,66.6,49.2,30.00,NE,45,5.4,8.7,54,0.00,,,0.00,VWS V14.01,2013-03-31 19:54:00,
2013-03-31 14:55:00,66.6,49.2,30.00,East,90,5.8,10.5,54,0.00,,,0.00,VWS V14.01,2013-03-31 19:55:00,
2013-03-31 14:56:00,66.6,48.7,30.00,East,90,5.4,6.3,52,0.00,,,0.00,VWS V14.01,2013-03-31 19:56:00,
2013-03-31 14:57:00,66.4,48.5,30.00,NE,45,7.6,7.6,52,0.00,,,0.00,VWS V14.01,2013-03-31 19:57:00,
2013-03-31 14:58:00,66.4,48.5,30.00,NE,45,7.6,7.6,52,0.00,,,0.00,VWS V14.01,2013-03-31 19:58:00,
2013-03-31 14:59:00,66.6,49.2,30.00,NE,45,4.5,8.7,54,0.00,,,0.00,VWS V14.01,2013-03-31 19:59:00,
2013-03-31 15:00:00,66.6,48.7,30.00,East,90,8.3,8.3,52,0.00,,,0.00,VWS V14.01,2013-03-31 20:00:00,
2013-03-31 15:01:00,66.6,49.2,30.00,East,90,6.7,8.3,54,0.00,,,0.00,VWS V14.01,2013-03-31 20:01:00,
2013-03-31 15:02:00,66.7,48.3,30.00,NE,45,8.1,8.1,52,0.00,,,0.00,VWS V14.01,2013-03-31 20:02:00,
2013-03-31 15:03:00,66.7,48.3,30.00,ENE,68,8.3,8.3,52,0.00,,,0.00,VWS V14.01,2013-03-31 20:03:00,
2013-03-31 15:04:00,66.9,48.0,30.00,NE,45,10.1,10.1,50,0.00,,,0.00,VWS V14.01,2013-03-31 20:04:00,
2013-03-31 15:05:00,66.6,48.2,30.00,ENE,68,9.6,10.5,52,0.00,,,0.00,VWS V14.01,2013-03-31 20:05:00,
2013-03-31 15:06:00,66.4,47.5,30.00,ENE,68,10.1,10.1,50,0.00,,,0.00,VWS V14.01,2013-03-31 20:06:00,
2013-03-31 15:07:00,66.4,46.9,30.00,East,90,4.0,4.0,50,0.00,,,0.00,VWS V14.01,2013-03-31 20:07:00,
2013-03-31 15:08:00,66.4,46.9,30.00,SE,135,0.0,4.0,50,0.00,,,0.00,VWS V14.01,2013-03-31 20:08:00,
2013-03-31 15:09:00,66.9,48.0,30.00,SE,135,4.0,4.0,50,0.00,,,0.00,VWS V14.01,2013-03-31 20:09:00,
2013-03-31 15:10:00,66.9,47.4,30.00,SE,135,4.0,4.0,50,0.00,,,0.00,VWS V14.01,2013-03-31 20:10:00,
2013-03-31 15:11:00,67.1,47.6,30.00,SE,135,7.6,8.7,50,0.00,,,0.00,VWS V14.01,2013-03-31 20:11:00,
2013-03-31 15:12:00,67.1,46.5,30.00,SE,135,4.0,5.8,48,0.00,,,0.00,VWS V14.01,2013-03-31 20:12:00,
2013-03-31 15:13:00,67.1,46.5,30.00,SE,135,5.8,5.8,48,0.00,,,0.00,VWS V14.01,2013-03-31 20:13:00,
2013-03-31 15:14:00,67.1,45.9,30.00,South,180,5.4,5.8,46,0.00,,,0.00,VWS V14.01,2013-03-31 20:14:00,
2013-03-31 15:15:00,66.7,45.6,30.00,SSE,158,2.7,5.4,46,0.00,,,0.00,VWS V14.01,2013-03-31 20:15:00,
2013-03-31 15:17:00,67.6,47.0,30.00,ESE,112,4.9,7.2,48,0.00,,,0.00,VWS V14.01,2013-03-31 20:17:00,
2013-03-31 15:18:00,67.6,47.0,30.00,ESE,112,4.9,7.2,48,0.00,,,0.00,VWS V14.01,2013-03-31 20:18:00,
2013-03-31 15:19:00,67.8,47.7,30.00,East,90,5.4,5.4,48,0.00,,,0.00,VWS V14.01,2013-03-31 20:19:00,
2013-03-31 15:20:00,67.6,46.4,30.00,East,90,7.6,8.1,46,0.00,,,0.00,VWS V14.01,2013-03-31 20:20:00,
2013-03-31 15:21:00,67.8,47.2,30.00,East,90,3.6,7.6,48,0.00,,,0.00,VWS V14.01,2013-03-31 20:21:00,
2013-03-31 15:22:00,68.0,46.2,30.00,East,90,5.4,7.6,46,0.00,,,0.00,VWS V14.01,2013-03-31 20:22:00,
2013-03-31 15:23:00,68.0,46.2,30.00,East,90,5.4,7.6,46,0.00,,,0.00,VWS V14.01,2013-03-31 20:23:00,
2013-03-31 15:25:00,68.2,46.3,30.00,SE,135,7.2,8.7,46,0.00,,,0.00,VWS V14.01,2013-03-31 20:25:00,
2013-03-31 15:26:00,68.2,46.3,30.00,SE,135,0.0,7.2,46,0.00,,,0.00,VWS V14.01,2013-03-31 20:26:00,
2013-03-31 15:27:00,68.4,45.9,30.00,SE,135,5.8,5.8,44,0.00,,,0.00,VWS V14.01,2013-03-31 20:27:00,
2013-03-31 15:28:00,68.4,45.9,30.00,East,90,5.4,5.8,44,0.00,,,0.00,VWS V14.01,2013-03-31 20:28:00,
2013-03-31 15:29:00,67.8,45.4,30.00,SE,135,5.8,5.8,44,0.00,,,0.00,VWS V14.01,2013-03-31 20:29:00,
2013-03-31 15:30:00,67.5,45.1,30.00,ENE,68,3.1,5.8,44,0.00,,,0.00,VWS V14.01,2013-03-31 20:30:00,
2013-03-31 15:31:00,67.6,45.8,30.00,East,90,6.3,9.6,46,0.00,,,0.00,VWS V14.01,2013-03-31 20:31:00,
2013-03-31 15:32:00,67.6,45.3,30.00,East,90,0.0,6.3,44,0.00,,,0.00,VWS V14.01,2013-03-31 20:32:00,
2013-03-31 15:33:00,67.8,45.4,30.00,ENE,68,3.6,5.4,44,0.00,,,0.00,VWS V14.01,2013-03-31 20:33:00,
2013-03-31 15:34:00,68.2,46.3,30.00,East,90,5.4,5.4,46,0.00,,,0.00,VWS V14.01,2013-03-31 20:34:00,
2013-03-31 15:35:00,68.0,46.2,30.00,East,90,3.6,5.8,46,0.00,,,0.00,VWS V14.01,2013-03-31 20:35:00,
2013-03-31 15:36:00,68.0,46.2,30.00,SE,135,0.0,4.9,46,0.00,,,0.00,VWS V14.01,2013-03-31 20:36:00,
2013-03-31 15:37:00,68.0,46.2,30.00,East,90,0.0,0.0,46,0.00,,,0.00,VWS V14.01,2013-03-31 20:37:00,
2013-03-31 15:38:00,68.0,46.2,30.00,East,90,0.0,0.0,46,0.00,,,0.00,VWS V14.01,2013-03-31 20:38:00,
2013-03-31 15:39:00,68.0,46.2,30.00,ESE,112,4.9,4.9,46,0.00,,,0.00,VWS V14.01,2013-03-31 20:39:00,
2013-03-31 15:40:00,68.4,46.5,30.00,East,90,0.0,4.9,46,0.00,,,0.00,VWS V14.01,2013-03-31 20:40:00,
2013-03-31 15:41:00,68.4,46.5,30.00,East,90,4.9,4.9,46,0.00,,,0.00,VWS V14.01,2013-03-31 20:41:00,
2013-03-31 15:42:00,68.7,46.8,30.00,East,90,6.3,6.3,46,0.00,,,0.00,VWS V14.01,2013-03-31 20:42:00,
2013-03-31 15:43:00,68.5,46.7,30.00,NE,45,8.3,8.3,46,0.00,,,0.00,VWS V14.01,2013-03-31 20:43:00,
2013-03-31 15:44:00,68.5,46.7,30.00,NE,45,8.3,9.6,46,0.00,,,0.00,VWS V14.01,2013-03-31 20:44:00,
2013-03-31 15:45:00,68.0,46.2,30.00,East,90,10.1,10.1,46,0.00,,,0.00,VWS V14.01,2013-03-31 20:45:00,
2013-03-31 15:46:00,67.8,46.0,30.00,SE,135,4.0,13.2,46,0.00,,,0.00,VWS V14.01,2013-03-31 20:46:00,
2013-03-31 15:47:00,68.0,46.2,30.00,South,180,5.8,5.8,46,0.00,,,0.00,VWS V14.01,2013-03-31 20:47:00,
2013-03-31 15:48:00,68.0,46.2,30.00,South,180,5.8,5.8,46,0.00,,,0.00,VWS V14.01,2013-03-31 20:48:00,
2013-03-31 15:49:00,68.0,45.6,30.00,South,180,6.3,6.3,44,0.00,,,0.00,VWS V14.01,2013-03-31 20:49:00,
2013-03-31 15:50:00,67.5,45.7,30.00,SSE,158,5.4,8.1,46,0.00,,,0.00,VWS V14.01,2013-03-31 20:50:00,
2013-03-31 15:51:00,67.6,45.8,30.00,SE,135,3.1,5.4,46,0.00,,,0.00,VWS V14.01,2013-03-31 20:51:00,
2013-03-31 15:52:00,68.0,46.2,30.00,ENE,68,5.4,6.3,46,0.00,,,0.00,VWS V14.01,2013-03-31 20:52:00,
2013-03-31 15:53:00,68.0,46.2,30.00,ENE,68,5.4,6.3,46,0.00,,,0.00,VWS V14.01,2013-03-31 20:53:00,
2013-03-31 15:54:00,68.2,46.3,30.00,East,90,4.9,5.4,46,0.00,,,0.00,VWS V14.01,2013-03-31 20:54:00,
2013-03-31 15:55:00,68.2,46.3,30.00,SE,135,4.9,5.8,46,0.00,,,0.00,VWS V14.01,2013-03-31 20:55:00,
2013-03-31 15:56:00,68.5,46.7,30.00,NE,45,8.7,8.7,46,0.00,,,0.00,VWS V14.01,2013-03-31 20:56:00,
2013-03-31 15:57:00,68.5,46.1,30.00,East,90,4.5,7.6,44,0.00,,,0.00,VWS V14.01,2013-03-31 20:57:00,
2013-03-31 15:58:00,68.5,46.1,30.00,East,90,4.5,7.6,44,0.00,,,0.00,VWS V14.01,2013-03-31 20:58:00,
2013-03-31 15:59:00,68.5,46.1,30.00,East,90,0.0,4.5,44,0.00,,,0.00,VWS V14.01,2013-03-31 20:59:00,
2013-03-31 16:00:00,68.7,46.2,30.00,East,90,0.0,0.0,44,0.00,,,0.00,VWS V14.01,2013-03-31 21:00:00,
2013-03-31 16:02:00,69.3,46.1,30.00,East,90,2.7,6.3,44,0.00,,,0.00,VWS V14.01,2013-03-31 21:02:00,
2013-03-31 16:03:00,69.3,46.1,30.00,ESE,112,0.0,6.3,44,0.00,,,0.00,VWS V14.01,2013-03-31 21:03:00,
2013-03-31 16:04:00,69.1,46.0,30.00,East,90,4.0,6.3,44,0.00,,,0.00,VWS V14.01,2013-03-31 21:04:00,
2013-03-31 16:05:00,68.7,44.4,30.00,East,90,5.8,6.3,42,0.00,,,0.00,VWS V14.01,2013-03-31 21:05:00,
2013-03-31 16:06:00,68.9,45.8,30.00,SE,135,5.4,7.6,44,0.00,,,0.00,VWS V14.01,2013-03-31 21:06:00,
2013-03-31 16:07:00,68.9,45.2,30.00,SE,135,5.8,5.8,42,0.00,,,0.00,VWS V14.01,2013-03-31 21:07:00,
2013-03-31 16:08:00,68.9,45.2,30.00,SE,135,3.6,5.8,42,0.00,,,0.00,VWS V14.01,2013-03-31 21:08:00,
2013-03-31 16:09:00,68.9,45.2,30.00,SE,135,0.0,3.6,42,0.00,,,0.00,VWS V14.01,2013-03-31 21:09:00,
2013-03-31 16:10:00,68.9,45.2,30.00,SE,135,0.0,0.0,42,0.00,,,0.00,VWS V14.01,2013-03-31 21:10:00,
2013-03-31 16:11:00,69.1,46.0,30.00,East,90,6.7,8.3,44,0.00,,,0.00,VWS V14.01,2013-03-31 21:11:00,
2013-03-31 16:12:00,69.1,44.1,30.00,East,90,0.0,4.0,40,0.00,,,0.00,VWS V14.01,2013-03-31 21:12:00,
2013-03-31 16:13:00,69.1,44.1,30.00,East,90,4.9,4.9,40,0.00,,,0.00,VWS V14.01,2013-03-31 21:13:00,
2013-03-31 16:14:00,69.3,44.9,30.00,ENE,68,4.9,5.4,42,0.00,,,0.00,VWS V14.01,2013-03-31 21:14:00,
2013-03-31 16:15:00,69.3,44.9,30.00,East,90,0.0,4.9,42,0.00,,,0.00,VWS V14.01,2013-03-31 21:15:00,
2013-03-31 16:16:00,69.3,44.9,30.00,ENE,68,5.4,5.4,42,0.00,,,0.00,VWS V14.01,2013-03-31 21:16:00,
2013-03-31 16:17:00,69.3,44.3,30.00,East,90,3.6,6.3,40,0.00,,,0.00,VWS V14.01,2013-03-31 21:17:00,
2013-03-31 16:18:00,69.3,44.3,30.00,East,90,3.6,6.3,40,0.00,,,0.00,VWS V14.01,2013-03-31 21:18:00,
2013-03-31 16:19:00,69.3,44.9,30.00,East,90,8.3,8.7,42,0.00,,,0.00,VWS V14.01,2013-03-31 21:19:00,
2013-03-31 16:20:00,68.9,45.2,30.00,ENE,68,6.7,8.3,42,0.00,,,0.00,VWS V14.01,2013-03-31 21:20:00,
2013-03-31 16:21:00,68.9,45.8,30.00,East,90,4.9,8.1,44,0.00,,,0.00,VWS V14.01,2013-03-31 21:21:00,
2013-03-31 16:22:00,68.9,45.8,30.00,ENE,68,3.6,7.2,44,0.00,,,0.00,VWS V14.01,2013-03-31 21:22:00,
2013-03-31 16:23:00,68.9,45.8,30.00,ENE,68,3.6,7.2,44,0.00,,,0.00,VWS V14.01,2013-03-31 21:23:00,
2013-03-31 16:24:00,68.9,45.2,30.00,East,90,8.7,10.1,42,0.00,,,0.00,VWS V14.01,2013-03-31 21:24:00,
2013-03-31 16:25:00,68.4,42.8,30.00,ESE,112,10.1,10.1,40,0.00,,,0.00,VWS V14.01,2013-03-31 21:25:00,
2013-03-31 16:26:00,68.2,42.6,30.00,SE,135,5.8,10.1,40,0.00,,,0.00,VWS V14.01,2013-03-31 21:26:00,
2013-03-31 16:27:00,68.2,42.6,30.00,East,90,3.6,4.9,40,0.00,,,0.00,VWS V14.01,2013-03-31 21:27:00,
2013-03-31 16:28:00,68.0,42.5,30.00,NE,45,3.6,4.9,40,0.00,,,0.00,VWS V14.01,2013-03-31 21:28:00,
2013-03-31 16:29:00,68.2,42.6,30.00,East,90,3.6,8.3,40,0.00,,,0.00,VWS V14.01,2013-03-31 21:29:00,
2013-03-31 16:30:00,68.5,44.2,30.00,East,90,5.4,7.2,42,0.00,,,0.00,VWS V14.01,2013-03-31 21:30:00,
2013-03-31 16:31:00,68.5,43.6,30.00,ESE,112,5.8,7.6,40,0.00,,,0.00,VWS V14.01,2013-03-31 21:31:00,
2013-03-31 16:32:00,68.4,42.1,30.00,SE,135,4.0,11.0,38,0.00,,,0.00,VWS V14.01,2013-03-31 21:32:00,
2013-03-31 16:33:00,68.4,42.1,30.00,SE,135,4.0,11.0,38,0.00,,,0.00,VWS V14.01,2013-03-31 21:33:00,
2013-03-31 16:34:00,68.0,41.8,30.00,ESE,112,3.6,4.9,38,0.00,,,0.00,VWS V14.01,2013-03-31 21:34:00,
2013-03-31 16:35:00,68.5,43.6,30.00,NE,45,8.3,8.3,40,0.00,,,0.00,VWS V14.01,2013-03-31 21:35:00,
2013-03-31 16:36:00,68.5,43.0,30.00,East,90,4.9,10.1,40,0.00,,,0.00,VWS V14.01,2013-03-31 21:36:00,
2013-03-31 16:37:00,68.4,42.1,30.00,East,90,8.1,8.7,38,0.00,,,0.00,VWS V14.01,2013-03-31 21:37:00,
2013-03-31 16:38:00,68.4,42.1,30.00,East,90,7.2,8.7,38,0.00,,,0.00,VWS V14.01,2013-03-31 21:38:00,
2013-03-31 16:39:00,68.4,42.1,30.00,NE,45,8.3,8.3,38,0.00,,,0.00,VWS V14.01,2013-03-31 21:39:00,
2013-03-31 16:41:00,68.4,42.1,30.00,NE,45,7.6,8.3,38,0.00,,,0.00,VWS V14.01,2013-03-31 21:41:00,
2013-03-31 16:42:00,67.8,42.3,29.97,NE,45,10.1,10.1,40,0.00,,,0.00,VWS V14.01,2013-03-31 21:42:00,
2013-03-31 16:43:00,67.8,41.7,29.97,NE,45,10.1,10.1,38,0.00,,,0.00,VWS V14.01,2013-03-31 21:43:00,
2013-03-31 16:44:00,67.6,41.5,29.97,ENE,68,12.8,12.8,38,0.00,,,0.00,VWS V14.01,2013-03-31 21:44:00,
2013-03-31 16:45:00,67.5,41.3,29.97,East,90,11.0,12.8,38,0.00,,,0.00,VWS V14.01,2013-03-31 21:45:00,
2013-03-31 16:46:00,67.5,41.3,29.97,East,90,7.6,11.0,38,0.00,,,0.00,VWS V14.01,2013-03-31 21:46:00,
2013-03-31 16:47:00,67.8,42.3,29.97,NE,45,7.6,8.1,40,0.00,,,0.00,VWS V14.01,2013-03-31 21:47:00,
2013-03-31 16:48:00,67.8,42.3,29.97,ENE,68,7.6,8.1,40,0.00,,,0.00,VWS V14.01,2013-03-31 21:48:00,
2013-03-31 16:49:00,67.8,42.3,29.97,ENE,68,7.6,8.3,40,0.00,,,0.00,VWS V14.01,2013-03-31 21:49:00,
2013-03-31 16:50:00,67.8,41.7,29.97,East,90,11.0,11.0,38,0.00,,,0.00,VWS V14.01,2013-03-31 21:50:00,
2013-03-31 16:51:00,67.8,41.7,29.97,NE,45,9.6,11.0,38,0.00,,,0.00,VWS V14.01,2013-03-31 21:51:00,
2013-03-31 16:52:00,67.8,41.7,29.97,East,90,8.7,10.5,38,0.00,,,0.00,VWS V14.01,2013-03-31 21:52:00,
2013-03-31 16:53:00,67.8,41.7,29.97,East,90,11.9,11.9,38,0.00,,,0.00,VWS V14.01,2013-03-31 21:53:00,
2013-03-31 16:54:00,67.8,41.7,29.97,ENE,68,6.3,11.9,38,0.00,,,0.00,VWS V14.01,2013-03-31 21:54:00,
2013-03-31 16:55:00,67.8,41.7,29.97,NE,45,4.0,12.3,38,0.00,,,0.00,VWS V14.01,2013-03-31 21:55:00,
2013-03-31 16:56:00,67.8,41.7,29.97,NE,45,7.6,7.6,38,0.00,,,0.00,VWS V14.01,2013-03-31 21:56:00,
2013-03-31 16:57:00,67.8,41.7,29.97,ENE,68,13.6,13.6,38,0.00,,,0.00,VWS V14.01,2013-03-31 21:57:00,
2013-03-31 16:58:00,67.8,41.7,29.97,ENE,68,13.6,13.6,38,0.00,,,0.00,VWS V14.01,2013-03-31 21:58:00,
2013-03-31 16:59:00,67.8,41.7,29.97,East,90,8.1,13.6,38,0.00,,,0.00,VWS V14.01,2013-03-31 21:59:00,
2013-03-31 17:00:00,67.8,41.7,29.97,East,90,8.1,8.1,38,0.00,,,0.00,VWS V14.01,2013-03-31 22:00:00,
2013-03-31 17:01:00,67.6,41.5,29.97,ENE,68,4.0,8.1,38,0.00,,,0.00,VWS V14.01,2013-03-31 22:01:00,
2013-03-31 17:02:00,68.0,41.1,29.97,ENE,68,6.3,7.2,38,0.00,,,0.00,VWS V14.01,2013-03-31 22:02:00,
2013-03-31 17:03:00,68.0,41.1,29.97,NE,45,6.3,7.2,38,0.00,,,0.00,VWS V14.01,2013-03-31 22:03:00,
2013-03-31 17:04:00,68.0,41.8,29.97,NE,45,9.6,13.2,38,0.00,,,0.00,VWS V14.01,2013-03-31 22:04:00,
2013-03-31 17:05:00,68.0,41.8,29.97,NE,45,9.6,9.6,38,0.00,,,0.00,VWS V14.01,2013-03-31 22:05:00,
2013-03-31 17:06:00,67.8,41.7,29.97,East,90,4.0,9.6,38,0.00,,,0.00,VWS V14.01,2013-03-31 22:06:00,
2013-03-31 17:07:00,67.8,41.7,29.97,East,90,4.0,7.2,38,0.00,,,0.00,VWS V14.01,2013-03-31 22:07:00,
2013-03-31 17:08:00,67.8,41.7,29.97,East,90,4.0,7.2,38,0.00,,,0.00,VWS V14.01,2013-03-31 22:08:00,
2013-03-31 17:09:00,68.2,42.0,29.97,ESE,112,6.7,6.7,38,0.00,,,0.00,VWS V14.01,2013-03-31 22:09:00,
2013-03-31 17:10:00,68.4,41.5,29.97,East,90,7.6,7.6,38,0.00,,,0.00,VWS V14.01,2013-03-31 22:10:00,
2013-03-31 17:11:00,68.2,40.6,29.97,East,90,4.9,7.6,36,0.00,,,0.00,VWS V14.01,2013-03-31 22:11:00,
2013-03-31 17:12:00,68.2,40.6,29.97,East,90,10.5,10.5,36,0.00,,,0.00,VWS V14.01,2013-03-31 22:12:00,
2013-03-31 17:13:00,68.2,40.6,29.97,East,90,9.2,10.5,36,0.00,,,0.00,VWS V14.01,2013-03-31 22:13:00,
2013-03-31 17:14:00,68.2,40.6,29.97,NE,45,6.3,9.2,36,0.00,,,0.00,VWS V14.01,2013-03-31 22:14:00,
2013-03-31 17:15:00,68.2,41.3,29.97,NE,45,12.3,12.3,38,0.00,,,0.00,VWS V14.01,2013-03-31 22:15:00,
2013-03-31 17:16:00,68.0,40.4,29.97,NE,45,8.1,12.3,36,0.00,,,0.00,VWS V14.01,2013-03-31 22:16:00,
2013-03-31 17:17:00,67.8,41.0,29.97,East,90,6.3,8.7,38,0.00,,,0.00,VWS V14.01,2013-03-31 22:17:00,
2013-03-31 17:18:00,67.8,41.0,29.97,East,90,6.3,8.7,38,0.00,,,0.00,VWS V14.01,2013-03-31 22:18:00,
2013-03-31 17:19:00,67.8,41.0,29.97,ENE,68,9.6,9.6,38,0.00,,,0.00,VWS V14.01,2013-03-31 22:19:00,
2013-03-31 17:20:00,67.8,41.0,29.97,ENE,68,6.3,9.6,38,0.00,,,0.00,VWS V14.01,2013-03-31 22:20:00,
2013-03-31 17:21:00,67.8,41.0,29.97,ENE,68,8.1,8.1,38,0.00,,,0.00,VWS V14.01,2013-03-31 22:21:00,
2013-03-31 17:22:00,67.8,41.7,29.97,NE,45,6.3,9.2,38,0.00,,,0.00,VWS V14.01,2013-03-31 22:22:00,
2013-03-31 17:23:00,67.8,41.7,29.97,ENE,68,7.2,9.2,38,0.00,,,0.00,VWS V14.01,2013-03-31 22:23:00,
2013-03-31 17:24:00,68.0,41.1,29.97,East,90,8.3,8.3,38,0.00,,,0.00,VWS V14.01,2013-03-31 22:24:00,
2013-03-31 17:25:00,68.0,40.4,29.97,ENE,68,7.2,11.0,36,0.00,,,0.00,VWS V14.01,2013-03-31 22:25:00,
2013-03-31 17:26:00,67.8,41.0,30.00,East,90,4.9,8.3,38,0.00,,,0.00,VWS V14.01,2013-03-31 22:26:00,
2013-03-31 17:27:00,67.8,40.3,30.00,East,90,2.7,6.7,36,0.00,,,0.00,VWS V14.01,2013-03-31 22:27:00,
2013-03-31 17:28:00,67.8,41.0,30.00,East,90,2.7,2.7,38,0.00,,,0.00,VWS V14.01,2013-03-31 22:28:00,
2013-03-31 17:29:00,67.8,40.3,30.00,East,90,10.5,10.5,36,0.00,,,0.00,VWS V14.01,2013-03-31 22:29:00,
2013-03-31 17:30:00,67.8,41.0,30.00,East,90,8.3,10.5,38,0.00,,,0.00,VWS V14.01,2013-03-31 22:30:00,
2013-03-31 17:31:00,67.8,40.3,30.00,East,90,7.6,8.3,36,0.00,,,0.00,VWS V14.01,2013-03-31 22:31:00,
2013-03-31 17:32:00,67.8,40.3,30.00,East,90,8.3,10.1,36,0.00,,,0.00,VWS V14.01,2013-03-31 22:32:00,
2013-03-31 17:33:00,67.8,40.3,30.00,East,90,8.3,10.1,36,0.00,,,0.00,VWS V14.01,2013-03-31 22:33:00,
2013-03-31 17:34:00,67.8,40.3,30.00,East,90,7.2,8.3,36,0.00,,,0.00,VWS V14.01,2013-03-31 22:34:00,
2013-03-31 17:35:00,67.8,40.3,30.00,East,90,2.7,7.2,36,0.00,,,0.00,VWS V14.01,2013-03-31 22:35:00,
2013-03-31 17:36:00,67.6,40.1,30.00,East,90,5.4,8.3,36,0.00,,,0.00,VWS V14.01,2013-03-31 22:36:00,
2013-03-31 17:37:00,67.6,40.1,30.00,SE,135,2.7,8.3,36,0.00,,,0.00,VWS V14.01,2013-03-31 22:37:00,
2013-03-31 17:38:00,67.5,39.2,30.00,SE,135,8.7,14.1,36,0.00,,,0.00,VWS V14.01,2013-03-31 22:38:00,
2013-03-31 17:40:00,67.1,39.6,30.00,East,90,5.4,8.7,36,0.00,,,0.00,VWS V14.01,2013-03-31 22:40:00,
2013-03-31 17:41:00,67.6,40.1,30.00,East,90,9.2,9.6,36,0.00,,,0.00,VWS V14.01,2013-03-31 22:41:00,
2013-03-31 17:42:00,67.5,40.0,30.00,East,90,6.3,9.2,36,0.00,,,0.00,VWS V14.01,2013-03-31 22:42:00,
2013-03-31 17:43:00,67.5,39.2,30.00,East,90,9.6,11.4,36,0.00,,,0.00,VWS V14.01,2013-03-31 22:43:00,
2013-03-31 17:44:00,67.3,39.8,30.00,ENE,68,8.1,9.6,36,0.00,,,0.00,VWS V14.01,2013-03-31 22:44:00,
2013-03-31 17:45:00,67.3,39.8,30.00,ENE,68,8.1,8.1,36,0.00,,,0.00,VWS V14.01,2013-03-31 22:45:00,
2013-03-31 17:46:00,67.1,39.6,30.00,ENE,68,8.7,13.2,36,0.00,,,0.00,VWS V14.01,2013-03-31 22:46:00,
2013-03-31 17:47:00,67.1,39.6,30.00,East,90,8.1,8.7,36,0.00,,,0.00,VWS V14.01,2013-03-31 22:47:00,
2013-03-31 17:48:00,67.1,39.6,30.00,NE,45,9.2,12.3,36,0.00,,,0.00,VWS V14.01,2013-03-31 22:48:00,
2013-03-31 17:49:00,66.7,39.3,30.00,ENE,68,8.1,9.6,36,0.00,,,0.00,VWS V14.01,2013-03-31 22:49:00,
2013-03-31 17:50:00,66.9,39.5,30.00,ENE,68,8.1,8.3,36,0.00,,,0.00,VWS V14.01,2013-03-31 22:50:00,
2013-03-31 17:51:00,66.9,40.2,30.00,ENE,68,6.3,8.1,38,0.00,,,0.00,VWS V14.01,2013-03-31 22:51:00,
2013-03-31 17:52:00,67.1,40.3,30.00,NE,45,6.3,7.2,38,0.00,,,0.00,VWS V14.01,2013-03-31 22:52:00,
2013-03-31 17:53:00,67.1,40.3,30.00,East,90,10.1,10.1,38,0.00,,,0.00,VWS V14.01,2013-03-31 22:53:00,
2013-03-31 17:54:00,67.1,39.6,30.00,NE,45,7.6,10.1,36,0.00,,,0.00,VWS V14.01,2013-03-31 22:54:00,
2013-03-31 17:55:00,66.9,40.2,30.00,NE,45,7.2,8.1,38,0.00,,,0.00,VWS V14.01,2013-03-31 22:55:00,
2013-03-31 17:56:00,67.1,40.3,30.00,ENE,68,2.7,7.2,38,0.00,,,0.00,VWS V14.01,2013-03-31 22:56:00,
2013-03-31 17:57:00,67.1,40.3,30.00,ENE,68,10.1,10.1,38,0.00,,,0.00,VWS V14.01,2013-03-31 22:57:00,
2013-03-31 17:58:00,67.1,39.6,30.00,East,90,8.3,10.5,36,0.00,,,0.00,VWS V14.01,2013-03-31 22:58:00,
2013-03-31 17:59:00,66.7,39.3,30.00,ENE,68,8.7,8.7,36,0.00,,,0.00,VWS V14.01,2013-03-31 22:59:00,
2013-03-31 18:00:00,66.7,39.3,30.00,East,90,8.1,10.5,36,0.00,,,0.00,VWS V14.01,2013-03-31 23:00:00,
2013-03-31 18:01:00,66.7,39.3,30.00,East,90,8.1,12.3,36,0.00,,,0.00,VWS V14.01,2013-03-31 23:01:00,
2013-03-31 18:02:00,66.7,39.3,30.00,ENE,68,9.6,10.1,36,0.00,,,0.00,VWS V14.01,2013-03-31 23:02:00,
2013-03-31 18:03:00,66.7,39.3,30.00,East,90,7.2,9.6,36,0.00,,,0.00,VWS V14.01,2013-03-31 23:03:00,
2013-03-31 18:04:00,66.7,39.3,30.00,NE,45,8.3,11.4,36,0.00,,,0.00,VWS V14.01,2013-03-31 23:04:00,
2013-03-31 18:05:00,66.6,39.2,30.00,East,90,4.9,10.1,36,0.00,,,0.00,VWS V14.01,2013-03-31 23:05:00,
2013-03-31 18:06:00,66.6,39.2,30.00,ENE,68,3.6,5.8,36,0.00,,,0.00,VWS V14.01,2013-03-31 23:06:00,
2013-03-31 18:07:00,66.7,39.3,30.00,SE,135,4.0,4.9,36,0.00,,,0.00,VWS V14.01,2013-03-31 23:07:00,
2013-03-31 18:08:00,66.7,39.3,30.00,NE,45,5.8,7.6,36,0.00,,,0.00,VWS V14.01,2013-03-31 23:08:00,
2013-03-31 18:09:00,66.7,39.3,30.00,East,90,5.8,10.1,36,0.00,,,0.00,VWS V14.01,2013-03-31 23:09:00,
2013-03-31 18:10:00,66.7,39.3,30.00,East,90,5.8,5.8,36,0.00,,,0.00,VWS V14.01,2013-03-31 23:10:00,
2013-03-31 18:11:00,66.6,38.5,30.00,East,90,7.6,8.1,36,0.00,,,0.00,VWS V14.01,2013-03-31 23:11:00,
2013-03-31 18:12:00,66.4,38.3,30.00,NE,45,4.0,7.6,36,0.00,,,0.00,VWS V14.01,2013-03-31 23:12:00,
2013-03-31 18:13:00,66.4,39.0,30.00,East,90,8.3,8.3,36,0.00,,,0.00,VWS V14.01,2013-03-31 23:13:00,
2013-03-31 18:14:00,66.4,38.3,30.00,ENE,68,5.8,8.7,36,0.00,,,0.00,VWS V14.01,2013-03-31 23:14:00,
2013-03-31 18:15:00,66.4,39.0,30.00,East,90,5.4,7.6,36,0.00,,,0.00,VWS V14.01,2013-03-31 23:15:00,
2013-03-31 18:16:00,66.6,39.2,30.00,ENE,68,10.1,10.1,36,0.00,,,0.00,VWS V14.01,2013-03-31 23:16:00,
2013-03-31 18:17:00,66.4,39.0,30.00,NE,45,7.6,10.1,36,0.00,,,0.00,VWS V14.01,2013-03-31 23:17:00,
2013-03-31 18:18:00,66.4,39.0,30.00,East,90,5.4,8.3,36,0.00,,,0.00,VWS V14.01,2013-03-31 23:18:00,
2013-03-31 18:19:00,66.4,39.0,30.00,East,90,6.3,6.3,36,0.00,,,0.00,VWS V14.01,2013-03-31 23:19:00,
2013-03-31 18:20:00,66.4,39.0,30.00,East,90,5.8,7.6,36,0.00,,,0.00,VWS V14.01,2013-03-31 23:20:00,
2013-03-31 18:21:00,66.4,39.0,30.00,East,90,5.4,7.2,36,0.00,,,0.00,VWS V14.01,2013-03-31 23:21:00,
2013-03-31 18:22:00,66.2,38.8,30.00,ENE,68,6.3,8.7,36,0.00,,,0.00,VWS V14.01,2013-03-31 23:22:00,
2013-03-31 18:23:00,66.2,38.8,30.00,East,90,11.9,11.9,36,0.00,,,0.00,VWS V14.01,2013-03-31 23:23:00,
2013-03-31 18:24:00,66.2,38.1,30.00,East,90,6.3,11.9,36,0.00,,,0.00,VWS V14.01,2013-03-31 23:24:00,
2013-03-31 18:25:00,66.0,38.7,30.00,NE,45,9.6,9.6,36,0.00,,,0.00,VWS V14.01,2013-03-31 23:25:00,
2013-03-31 18:26:00,66.0,38.7,30.00,East,90,4.9,10.1,36,0.00,,,0.00,VWS V14.01,2013-03-31 23:26:00,
2013-03-31 18:27:00,66.0,38.7,30.00,ENE,68,7.6,7.6,36,0.00,,,0.00,VWS V14.01,2013-03-31 23:27:00,
2013-03-31 18:28:00,66.0,38.7,30.00,East,90,7.2,8.1,36,0.00,,,0.00,VWS V14.01,2013-03-31 23:28:00,
2013-03-31 18:29:00,66.0,38.7,30.00,East,90,7.6,8.1,36,0.00,,,0.00,VWS V14.01,2013-03-31 23:29:00,
2013-03-31 18:30:00,66.0,38.7,30.00,East,90,6.3,9.6,36,0.00,,,0.00,VWS V14.01,2013-03-31 23:30:00,
2013-03-31 18:31:00,66.0,38.7,30.00,East,90,5.4,8.1,36,0.00,,,0.00,VWS V14.01,2013-03-31 23:31:00,
2013-03-31 18:32:00,66.0,38.7,30.00,East,90,5.4,5.4,36,0.00,,,0.00,VWS V14.01,2013-03-31 23:32:00,
2013-03-31 18:33:00,66.0,39.4,30.00,ENE,68,5.4,5.4,38,0.00,,,0.00,VWS V14.01,2013-03-31 23:33:00,
2013-03-31 18:34:00,66.0,39.4,30.00,ENE,68,3.6,6.3,38,0.00,,,0.00,VWS V14.01,2013-03-31 23:34:00,
2013-03-31 18:35:00,66.0,39.4,30.00,East,90,5.4,5.4,38,0.00,,,0.00,VWS V14.01,2013-03-31 23:35:00,
2013-03-31 18:36:00,66.0,39.4,30.00,East,90,4.0,7.2,38,0.00,,,0.00,VWS V14.01,2013-03-31 23:36:00,
2013-03-31 18:37:00,66.0,39.4,30.00,ENE,68,4.0,7.2,38,0.00,,,0.00,VWS V14.01,2013-03-31 23:37:00,
2013-03-31 18:38:00,66.0,39.4,30.00,East,90,5.8,5.8,38,0.00,,,0.00,VWS V14.01,2013-03-31 23:38:00,
2013-03-31 18:39:00,65.8,39.2,30.00,East,90,8.1,9.2,38,0.00,,,0.00,VWS V14.01,2013-03-31 23:39:00,
2013-03-31 18:40:00,65.8,39.2,30.00,ENE,68,8.1,8.1,38,0.00,,,0.00,VWS V14.01,2013-03-31 23:40:00,
2013-03-31 18:41:00,65.7,39.0,30.00,NE,45,5.4,8.1,38,0.00,,,0.00,VWS V14.01,2013-03-31 23:41:00,
2013-03-31 18:42:00,65.7,39.0,30.00,East,90,7.6,7.6,38,0.00,,,0.00,VWS V14.01,2013-03-31 23:42:00,
2013-03-31 18:43:00,65.5,38.9,30.00,ENE,68,6.7,9.2,38,0.00,,,0.00,VWS V14.01,2013-03-31 23:43:00,
2013-03-31 18:44:00,65.5,38.9,30.00,East,90,7.6,7.6,38,0.00,,,0.00,VWS V14.01,2013-03-31 23:44:00,
2013-03-31 18:45:00,65.5,38.9,30.00,East,90,3.6,7.6,38,0.00,,,0.00,VWS V14.01,2013-03-31 23:45:00,
2013-03-31 18:46:00,65.5,38.9,30.00,East,90,6.3,8.7,38,0.00,,,0.00,VWS V14.01,2013-03-31 23:46:00,
2013-03-31 18:47:00,65.5,38.9,30.00,East,90,4.9,8.7,38,0.00,,,0.00,VWS V14.01,2013-03-31 23:47:00,
2013-03-31 18:48:00,65.3,38.7,30.00,East,90,7.2,8.1,38,0.00,,,0.00,VWS V14.01,2013-03-31 23:48:00,
2013-03-31 18:49:00,65.3,38.7,30.00,East,90,7.6,7.6,38,0.00,,,0.00,VWS V14.01,2013-03-31 23:49:00,
2013-03-31 18:50:00,65.3,38.7,30.00,East,90,3.6,7.6,38,0.00,,,0.00,VWS V14.01,2013-03-31 23:50:00,
2013-03-31 18:51:00,65.3,39.4,30.00,East,90,4.9,5.4,38,0.00,,,0.00,VWS V14.01,2013-03-31 23:51:00,
2013-03-31 18:52:00,65.1,39.2,30.00,East,90,4.0,7.6,38,0.00,,,0.00,VWS V14.01,2013-03-31 23:52:00,
2013-03-31 18:53:00,65.3,39.4,30.00,East,90,4.9,4.9,38,0.00,,,0.00,VWS V14.01,2013-03-31 23:53:00,
2013-03-31 18:54:00,65.1,39.2,30.00,ENE,68,5.4,7.6,38,0.00,,,0.00,VWS V14.01,2013-03-31 23:54:00,
2013-03-31 18:55:00,65.1,39.2,30.00,ENE,68,5.4,5.4,38,0.00,,,0.00,VWS V14.01,2013-03-31 23:55:00,
2013-03-31 18:56:00,65.1,39.9,30.00,East,90,6.3,6.3,40,0.00,,,0.00,VWS V14.01,2013-03-31 23:56:00,
2013-03-31 18:57:00,65.1,39.9,30.00,East,90,7.2,7.2,40,0.00,,,0.00,VWS V14.01,2013-03-31 23:57:00,
2013-03-31 18:58:00,64.9,39.7,30.00,ENE,68,5.8,7.2,40,0.00,,,0.00,VWS V14.01,2013-03-31 23:58:00,
2013-03-31 18:59:00,64.8,39.6,30.00,East,90,3.6,5.8,40,0.00,,,0.00,VWS V14.01,2013-03-31 23:59:00,
2013-03-31 19:00:00,64.9,40.4,30.00,East,90,3.6,3.6,40,0.00,,,0.00,VWS V14.01,2013-04-01 00:00:00,
2013-03-31 19:01:00,64.9,40.4,30.00,East,90,6.3,6.3,40,0.00,,,0.00,VWS V14.01,2013-04-01 00:01:00,
2013-03-31 19:02:00,64.8,40.2,30.00,NE,45,2.7,8.3,40,0.00,,,0.00,VWS V14.01,2013-04-01 00:02:00,
2013-03-31 19:03:00,64.8,40.2,30.00,NE,45,0.0,2.7,40,0.00,,,0.00,VWS V14.01,2013-04-01 00:03:00,
2013-03-31 19:04:00,64.8,40.8,30.00,East,90,3.6,3.6,42,0.00,,,0.00,VWS V14.01,2013-04-01 00:04:00,
2013-03-31 19:05:00,64.6,40.7,30.00,East,90,3.6,5.8,42,0.00,,,0.00,VWS V14.01,2013-04-01 00:05:00,
2013-03-31 19:06:00,64.6,40.7,30.00,East,90,3.6,3.6,42,0.00,,,0.00,VWS V14.01,2013-04-01 00:06:00,
2013-03-31 19:07:00,64.4,40.5,30.00,East,90,4.0,4.9,42,0.00,,,0.00,VWS V14.01,2013-04-01 00:07:00,
2013-03-31 19:08:00,64.4,40.5,30.00,East,90,3.1,4.0,42,0.00,,,0.00,VWS V14.01,2013-04-01 00:08:00,
2013-03-31 19:09:00,64.4,41.1,30.00,East,90,7.6,7.6,42,0.00,,,0.00,VWS V14.01,2013-04-01 00:09:00,
2013-03-31 19:10:00,64.2,41.0,30.00,ENE,68,4.0,7.6,42,0.00,,,0.00,VWS V14.01,2013-04-01 00:10:00,
2013-03-31 19:11:00,64.0,41.4,30.00,East,90,5.4,8.3,44,0.00,,,0.00,VWS V14.01,2013-04-01 00:11:00,
2013-03-31 19:12:00,64.0,41.4,30.00,East,90,3.6,5.4,44,0.00,,,0.00,VWS V14.01,2013-04-01 00:12:00,
2013-03-31 19:13:00,64.0,41.4,30.00,East,90,5.4,6.3,44,0.00,,,0.00,VWS V14.01,2013-04-01 00:13:00,
2013-03-31 19:14:00,63.9,41.8,30.00,East,90,2.7,5.4,44,0.00,,,0.00,VWS V14.01,2013-04-01 00:14:00,
2013-03-31 19:15:00,63.9,41.8,30.00,East,90,5.8,7.6,44,0.00,,,0.00,VWS V14.01,2013-04-01 00:15:00,
2013-03-31 19:16:00,63.7,41.7,30.00,East,90,3.6,8.1,44,0.00,,,0.00,VWS V14.01,2013-04-01 00:16:00,
2013-03-31 19:17:00,63.5,41.5,30.00,East,90,3.1,4.5,44,0.00,,,0.00,VWS V14.01,2013-04-01 00:17:00,
2013-03-31 19:18:00,63.5,41.5,30.00,East,90,0.0,3.6,44,0.00,,,0.00,VWS V14.01,2013-04-01 00:18:00,
2013-03-31 19:19:00,63.5,41.5,30.00,East,90,0.0,0.0,44,0.00,,,0.00,VWS V14.01,2013-04-01 00:19:00,
2013-03-31 19:20:00,63.5,41.5,30.00,East,90,3.1,3.1,44,0.00,,,0.00,VWS V14.01,2013-04-01 00:20:00,
2013-03-31 19:21:00,63.5,42.1,30.00,East,90,0.0,3.6,46,0.00,,,0.00,VWS V14.01,2013-04-01 00:21:00,
2013-03-31 19:22:00,63.3,41.9,30.00,East,90,5.8,5.8,46,0.00,,,0.00,VWS V14.01,2013-04-01 00:22:00,
2013-03-31 19:23:00,63.1,41.8,30.00,NE,45,5.8,5.8,46,0.00,,,0.00,VWS V14.01,2013-04-01 00:23:00,
2013-03-31 19:24:00,63.1,41.8,30.00,East,90,5.8,8.1,46,0.00,,,0.00,VWS V14.01,2013-04-01 00:24:00,
2013-03-31 19:25:00,63.0,41.6,30.00,East,90,5.8,6.3,46,0.00,,,0.00,VWS V14.01,2013-04-01 00:25:00,
2013-03-31 19:26:00,63.0,41.6,30.00,ENE,68,4.0,5.8,46,0.00,,,0.00,VWS V14.01,2013-04-01 00:26:00,
2013-03-31 19:27:00,63.0,41.6,30.00,ENE,68,0.0,4.0,46,0.00,,,0.00,VWS V14.01,2013-04-01 00:27:00,
2013-03-31 19:28:00,62.8,41.4,30.00,East,90,5.8,6.7,46,0.00,,,0.00,VWS V14.01,2013-04-01 00:28:00,
2013-03-31 19:29:00,62.6,41.3,30.00,East,90,4.9,8.1,46,0.00,,,0.00,VWS V14.01,2013-04-01 00:29:00,
2013-03-31 19:30:00,62.4,41.1,30.00,East,90,0.0,4.9,46,0.00,,,0.00,VWS V14.01,2013-04-01 00:30:00,
2013-03-31 19:31:00,62.4,41.7,30.00,East,90,3.6,3.6,46,0.00,,,0.00,VWS V14.01,2013-04-01 00:31:00,
2013-03-31 19:32:00,62.2,40.9,30.00,East,90,4.5,6.3,46,0.00,,,0.00,VWS V14.01,2013-04-01 00:32:00,
2013-03-31 19:33:00,62.2,40.9,30.00,East,90,4.0,6.3,46,0.00,,,0.00,VWS V14.01,2013-04-01 00:33:00,
2013-03-31 19:34:00,62.1,41.3,30.00,East,90,4.0,4.0,46,0.00,,,0.00,VWS V14.01,2013-04-01 00:34:00,
2013-03-31 19:35:00,62.1,41.3,30.00,East,90,0.0,4.0,46,0.00,,,0.00,VWS V14.01,2013-04-01 00:35:00,
2013-03-31 19:36:00,61.9,41.2,30.00,East,90,0.0,0.0,46,0.00,,,0.00,VWS V14.01,2013-04-01 00:36:00,
2013-03-31 19:37:00,61.7,41.0,30.00,East,90,0.0,0.0,46,0.00,,,0.00,VWS V14.01,2013-04-01 00:37:00,
2013-03-31 19:38:00,61.7,41.0,30.00,East,90,0.0,0.0,46,0.00,,,0.00,VWS V14.01,2013-04-01 00:38:00,
2013-03-31 19:39:00,61.5,40.8,30.00,East,90,0.0,0.0,46,0.00,,,0.00,VWS V14.01,2013-04-01 00:39:00,
2013-03-31 19:40:00,61.3,40.7,30.00,East,90,0.0,0.0,46,0.00,,,0.00,VWS V14.01,2013-04-01 00:40:00,
2013-03-31 19:41:00,61.3,40.7,30.00,East,90,0.0,0.0,46,0.00,,,0.00,VWS V14.01,2013-04-01 00:41:00,
2013-03-31 19:42:00,61.2,40.5,30.00,East,90,0.0,0.0,46,0.00,,,0.00,VWS V14.01,2013-04-01 00:42:00,
2013-03-31 19:43:00,61.2,40.5,30.00,East,90,0.0,0.0,46,0.00,,,0.00,VWS V14.01,2013-04-01 00:43:00,
2013-03-31 19:44:00,61.0,40.3,30.00,East,90,0.0,0.0,46,0.00,,,0.00,VWS V14.01,2013-04-01 00:44:00,
2013-03-31 19:45:00,60.8,40.2,30.00,East,90,0.0,0.0,46,0.00,,,0.00,VWS V14.01,2013-04-01 00:45:00,
2013-03-31 19:46:00,60.8,40.2,30.00,East,90,0.0,0.0,46,0.00,,,0.00,VWS V14.01,2013-04-01 00:46:00,
2013-03-31 19:47:00,60.6,40.6,30.00,East,90,0.0,0.0,48,0.00,,,0.00,VWS V14.01,2013-04-01 00:47:00,
2013-03-31 19:48:00,60.6,40.6,30.00,East,90,0.0,0.0,48,0.00,,,0.00,VWS V14.01,2013-04-01 00:48:00,
2013-03-31 19:49:00,60.4,40.4,30.00,East,90,0.0,0.0,48,0.00,,,0.00,VWS V14.01,2013-04-01 00:49:00,
2013-03-31 19:50:00,60.4,40.4,30.00,East,90,0.0,0.0,48,0.00,,,0.00,VWS V14.01,2013-04-01 00:50:00,
2013-03-31 19:51:00,60.3,40.2,30.00,East,90,0.0,0.0,48,0.00,,,0.00,VWS V14.01,2013-04-01 00:51:00,
2013-03-31 19:52:00,60.1,40.1,30.00,East,90,0.0,0.0,48,0.00,,,0.00,VWS V14.01,2013-04-01 00:52:00,
2013-03-31 19:53:00,60.1,40.1,30.00,East,90,0.0,0.0,48,0.00,,,0.00,VWS V14.01,2013-04-01 00:53:00,
2013-03-31 19:54:00,60.1,40.1,30.00,East,90,0.0,0.0,48,0.00,,,0.00,VWS V14.01,2013-04-01 00:54:00,
2013-03-31 19:55:00,59.9,39.9,30.00,East,90,0.0,0.0,48,0.00,,,0.00,VWS V14.01,2013-04-01 00:55:00,
2013-03-31 19:56:00,59.9,39.9,30.03,East,90,0.0,0.0,48,0.00,,,0.00,VWS V14.01,2013-04-01 00:56:00,
2013-03-31 19:57:00,59.7,40.3,30.03,East,90,0.0,0.0,48,0.00,,,0.00,VWS V14.01,2013-04-01 00:57:00,
2013-03-31 19:58:00,59.7,40.3,30.03,East,90,0.0,0.0,48,0.00,,,0.00,VWS V14.01,2013-04-01 00:58:00,
2013-03-31 19:59:00,59.7,40.3,30.03,East,90,0.0,0.0,48,0.00,,,0.00,VWS V14.01,2013-04-01 00:59:00,
2013-03-31 20:00:00,59.4,40.0,30.03,East,90,0.0,0.0,48,0.00,,,0.00,VWS V14.01,2013-04-01 01:00:00,
2013-03-31 20:01:00,59.4,40.0,30.03,East,90,0.0,0.0,48,0.00,,,0.00,VWS V14.01,2013-04-01 01:01:00,
2013-03-31 20:02:00,59.4,40.0,30.03,East,90,0.0,0.0,48,0.00,,,0.00,VWS V14.01,2013-04-01 01:02:00,
2013-03-31 20:03:00,59.2,39.8,30.03,East,90,0.0,0.0,48,0.00,,,0.00,VWS V14.01,2013-04-01 01:03:00,
2013-03-31 20:04:00,59.2,39.8,30.03,East,90,0.0,0.0,48,0.00,,,0.00,VWS V14.01,2013-04-01 01:04:00,
2013-03-31 20:05:00,59.2,39.8,30.03,East,90,0.0,0.0,48,0.00,,,0.00,VWS V14.01,2013-04-01 01:05:00,
2013-03-31 20:06:00,59.0,39.6,30.03,East,90,0.0,0.0,48,0.00,,,0.00,VWS V14.01,2013-04-01 01:06:00,
2013-03-31 20:07:00,58.8,40.0,30.03,East,90,0.0,0.0,50,0.00,,,0.00,VWS V14.01,2013-04-01 01:07:00,
2013-03-31 20:08:00,58.8,40.0,30.03,East,90,0.0,0.0,50,0.00,,,0.00,VWS V14.01,2013-04-01 01:08:00,
2013-03-31 20:09:00,58.8,40.0,30.03,East,90,0.0,0.0,50,0.00,,,0.00,VWS V14.01,2013-04-01 01:09:00,
2013-03-31 20:10:00,58.6,39.8,30.03,East,90,0.0,0.0,50,0.00,,,0.00,VWS V14.01,2013-04-01 01:10:00,
2013-03-31 20:11:00,58.6,39.8,30.03,East,90,0.0,0.0,50,0.00,,,0.00,VWS V14.01,2013-04-01 01:11:00,
2013-03-31 20:12:00,58.6,39.8,30.03,East,90,0.0,0.0,50,0.00,,,0.00,VWS V14.01,2013-04-01 01:12:00,
2013-03-31 20:13:00,58.5,39.7,30.03,East,90,0.0,0.0,50,0.00,,,0.00,VWS V14.01,2013-04-01 01:13:00,
2013-03-31 20:14:00,58.5,40.2,30.03,East,90,0.0,0.0,50,0.00,,,0.00,VWS V14.01,2013-04-01 01:14:00,
2013-03-31 20:15:00,58.5,40.2,30.03,East,90,0.0,0.0,50,0.00,,,0.00,VWS V14.01,2013-04-01 01:15:00,
2013-03-31 20:16:00,58.5,40.2,30.03,East,90,0.0,0.0,50,0.00,,,0.00,VWS V14.01,2013-04-01 01:16:00,
2013-03-31 20:17:00,58.3,40.0,30.03,East,90,0.0,0.0,50,0.00,,,0.00,VWS V14.01,2013-04-01 01:17:00,
2013-03-31 20:18:00,58.3,40.0,30.03,East,90,0.0,0.0,50,0.00,,,0.00,VWS V14.01,2013-04-01 01:18:00,
2013-03-31 20:19:00,58.3,40.0,30.03,East,90,0.0,0.0,50,0.00,,,0.00,VWS V14.01,2013-04-01 01:19:00,
2013-03-31 20:20:00,58.1,39.8,30.03,East,90,0.0,0.0,50,0.00,,,0.00,VWS V14.01,2013-04-01 01:20:00,
2013-03-31 20:21:00,58.1,39.8,30.03,East,90,0.0,0.0,50,0.00,,,0.00,VWS V14.01,2013-04-01 01:21:00,
2013-03-31 20:22:00,58.1,39.8,30.03,East,90,0.0,0.0,50,0.00,,,0.00,VWS V14.01,2013-04-01 01:22:00,
2013-03-31 20:23:00,58.1,39.8,30.03,East,90,0.0,0.0,50,0.00,,,0.00,VWS V14.01,2013-04-01 01:23:00,
2013-03-31 20:24:00,58.1,39.8,30.03,East,90,0.0,0.0,50,0.00,,,0.00,VWS V14.01,2013-04-01 01:24:00,
2013-03-31 20:25:00,58.1,39.8,30.03,East,90,0.0,0.0,50,0.00,,,0.00,VWS V14.01,2013-04-01 01:25:00,
2013-03-31 20:26:00,58.1,40.3,30.03,East,90,0.0,0.0,52,0.00,,,0.00,VWS V14.01,2013-04-01 01:26:00,
2013-03-31 20:27:00,58.1,40.3,30.03,East,90,0.0,0.0,52,0.00,,,0.00,VWS V14.01,2013-04-01 01:27:00,
2013-03-31 20:28:00,57.9,40.2,30.03,East,90,0.0,0.0,52,0.00,,,0.00,VWS V14.01,2013-04-01 01:28:00,
2013-03-31 20:29:00,57.9,40.2,30.03,East,90,0.0,0.0,52,0.00,,,0.00,VWS V14.01,2013-04-01 01:29:00,
2013-03-31 20:30:00,57.9,40.2,30.03,East,90,0.0,0.0,52,0.00,,,0.00,VWS V14.01,2013-04-01 01:30:00,
2013-03-31 20:31:00,57.7,40.0,30.03,East,90,0.0,0.0,52,0.00,,,0.00,VWS V14.01,2013-04-01 01:31:00,
2013-03-31 20:32:00,57.7,40.0,30.03,East,90,0.0,0.0,52,0.00,,,0.00,VWS V14.01,2013-04-01 01:32:00,
2013-03-31 20:33:00,57.7,40.0,30.03,East,90,0.0,0.0,52,0.00,,,0.00,VWS V14.01,2013-04-01 01:33:00,
2013-03-31 20:34:00,57.6,39.8,30.03,East,90,2.2,2.2,52,0.00,,,0.00,VWS V14.01,2013-04-01 01:34:00,
2013-03-31 20:35:00,57.6,40.3,30.03,East,90,0.0,2.2,52,0.00,,,0.00,VWS V14.01,2013-04-01 01:35:00,
2013-03-31 20:37:00,57.6,40.3,30.03,East,90,0.0,0.0,52,0.00,,,0.00,VWS V14.01,2013-04-01 01:37:00,
2013-03-31 20:38:00,57.6,40.3,30.03,East,90,0.0,0.0,52,0.00,,,0.00,VWS V14.01,2013-04-01 01:38:00,
2013-03-31 20:39:00,57.6,40.3,30.03,East,90,0.0,0.0,52,0.00,,,0.00,VWS V14.01,2013-04-01 01:39:00,
2013-03-31 20:40:00,57.6,40.3,30.03,East,90,0.0,0.0,52,0.00,,,0.00,VWS V14.01,2013-04-01 01:40:00,
2013-03-31 20:41:00,57.6,40.3,30.03,East,90,0.0,0.0,52,0.00,,,0.00,VWS V14.01,2013-04-01 01:41:00,
2013-03-31 20:42:00,57.4,40.2,30.03,East,90,0.0,0.0,52,0.00,,,0.00,VWS V14.01,2013-04-01 01:42:00,
2013-03-31 20:43:00,57.4,40.2,30.03,East,90,0.0,0.0,52,0.00,,,0.00,VWS V14.01,2013-04-01 01:43:00,
2013-03-31 20:44:00,57.4,40.2,30.03,East,90,0.0,0.0,52,0.00,,,0.00,VWS V14.01,2013-04-01 01:44:00,
2013-03-31 20:45:00,57.4,40.2,30.03,East,90,0.0,0.0,52,0.00,,,0.00,VWS V14.01,2013-04-01 01:45:00,
2013-03-31 20:46:00,57.2,40.0,30.03,East,90,0.0,0.0,52,0.00,,,0.00,VWS V14.01,2013-04-01 01:46:00,
2013-03-31 20:47:00,57.2,40.0,30.03,East,90,0.0,0.0,52,0.00,,,0.00,VWS V14.01,2013-04-01 01:47:00,
2013-03-31 20:48:00,57.2,40.0,30.03,East,90,0.0,0.0,52,0.00,,,0.00,VWS V14.01,2013-04-01 01:48:00,
2013-03-31 20:49:00,57.0,40.3,30.03,East,90,0.0,0.0,54,0.00,,,0.00,VWS V14.01,2013-04-01 01:49:00,
2013-03-31 20:50:00,57.0,40.3,30.03,East,90,0.0,0.0,54,0.00,,,0.00,VWS V14.01,2013-04-01 01:50:00,
2013-03-31 20:51:00,57.0,40.3,30.03,East,90,0.0,0.0,54,0.00,,,0.00,VWS V14.01,2013-04-01 01:51:00,
2013-03-31 20:52:00,56.8,40.2,30.03,East,90,0.0,0.0,54,0.00,,,0.00,VWS V14.01,2013-04-01 01:52:00,
2013-03-31 20:53:00,56.8,40.2,30.03,East,90,0.0,0.0,54,0.00,,,0.00,VWS V14.01,2013-04-01 01:53:00,
2013-03-31 20:54:00,56.8,40.2,30.03,East,90,0.0,0.0,54,0.00,,,0.00,VWS V14.01,2013-04-01 01:54:00,
2013-03-31 20:55:00,56.8,40.2,30.03,East,90,0.0,0.0,54,0.00,,,0.00,VWS V14.01,2013-04-01 01:55:00,
2013-03-31 20:56:00,56.7,40.5,30.03,East,90,0.0,0.0,54,0.00,,,0.00,VWS V14.01,2013-04-01 01:56:00,
2013-03-31 20:57:00,56.7,40.5,30.03,East,90,0.0,0.0,54,0.00,,,0.00,VWS V14.01,2013-04-01 01:57:00,
2013-03-31 20:58:00,56.3,40.1,30.03,East,90,0.0,0.0,54,0.00,,,0.00,VWS V14.01,2013-04-01 01:58:00,
2013-03-31 20:59:00,56.3,40.1,30.03,East,90,0.0,0.0,54,0.00,,,0.00,VWS V14.01,2013-04-01 01:59:00,
2013-03-31 21:00:00,55.9,40.3,30.03,East,90,0.0,0.0,56,0.00,,,0.00,VWS V14.01,2013-04-01 02:00:00,
2013-03-31 21:01:00,55.9,40.3,30.03,East,90,0.0,0.0,56,0.00,,,0.00,VWS V14.01,2013-04-01 02:01:00,
2013-03-31 21:02:00,55.9,40.7,30.03,East,90,0.0,0.0,56,0.00,,,0.00,VWS V14.01,2013-04-01 02:02:00,
2013-03-31 21:03:00,55.6,40.4,30.03,East,90,0.0,0.0,56,0.00,,,0.00,VWS V14.01,2013-04-01 02:03:00,
2013-03-31 21:04:00,55.4,40.7,30.03,East,90,0.0,0.0,58,0.00,,,0.00,VWS V14.01,2013-04-01 02:04:00,
2013-03-31 21:05:00,55.4,40.7,30.03,East,90,0.0,0.0,58,0.00,,,0.00,VWS V14.01,2013-04-01 02:05:00,
2013-03-31 21:06:00,55.0,40.8,30.03,East,90,0.0,0.0,58,0.00,,,0.00,VWS V14.01,2013-04-01 02:06:00,
2013-03-31 21:07:00,55.0,40.8,30.03,East,90,0.0,0.0,58,0.00,,,0.00,VWS V14.01,2013-04-01 02:07:00,
2013-03-31 21:08:00,54.7,40.9,30.03,East,90,0.0,0.0,60,0.00,,,0.00,VWS V14.01,2013-04-01 02:08:00,
2013-03-31 21:09:00,54.7,40.9,30.03,East,90,0.0,0.0,60,0.00,,,0.00,VWS V14.01,2013-04-01 02:09:00,
2013-03-31 21:10:00,54.7,40.9,30.03,East,90,0.0,0.0,60,0.00,,,0.00,VWS V14.01,2013-04-01 02:10:00,
2013-03-31 21:11:00,54.7,40.9,30.03,East,90,0.0,0.0,60,0.00,,,0.00,VWS V14.01,2013-04-01 02:11:00,
2013-03-31 21:12:00,54.7,40.9,30.03,East,90,0.0,0.0,60,0.00,,,0.00,VWS V14.01,2013-04-01 02:12:00,
2013-03-31 21:13:00,54.0,40.6,30.03,East,90,0.0,0.0,60,0.00,,,0.00,VWS V14.01,2013-04-01 02:13:00,
2013-03-31 21:14:00,54.0,40.6,30.03,East,90,0.0,0.0,60,0.00,,,0.00,VWS V14.01,2013-04-01 02:14:00,
2013-03-31 21:15:00,53.8,41.3,30.03,East,90,0.0,0.0,62,0.00,,,0.00,VWS V14.01,2013-04-01 02:15:00,
2013-03-31 21:16:00,53.8,41.3,30.03,East,90,0.0,0.0,62,0.00,,,0.00,VWS V14.01,2013-04-01 02:16:00,
2013-03-31 21:17:00,53.8,41.3,30.03,East,90,0.0,0.0,62,0.00,,,0.00,VWS V14.01,2013-04-01 02:17:00,
2013-03-31 21:18:00,53.4,41.4,30.03,East,90,0.0,0.0,64,0.00,,,0.00,VWS V14.01,2013-04-01 02:18:00,
2013-03-31 21:19:00,53.4,41.4,30.03,East,90,0.0,0.0,64,0.00,,,0.00,VWS V14.01,2013-04-01 02:19:00,
2013-03-31 21:20:00,53.4,41.8,30.03,East,90,0.0,0.0,64,0.00,,,0.00,VWS V14.01,2013-04-01 02:20:00,
2013-03-31 21:21:00,53.4,41.8,30.03,East,90,0.0,0.0,64,0.00,,,0.00,VWS V14.01,2013-04-01 02:21:00,
2013-03-31 21:22:00,53.4,41.8,30.03,East,90,0.0,0.0,64,0.00,,,0.00,VWS V14.01,2013-04-01 02:22:00,
2013-03-31 21:23:00,53.2,41.6,30.03,East,90,0.0,0.0,64,0.00,,,0.00,VWS V14.01,2013-04-01 02:23:00,
2013-03-31 21:24:00,53.2,41.6,30.03,East,90,0.0,0.0,64,0.00,,,0.00,VWS V14.01,2013-04-01 02:24:00,
2013-03-31 21:25:00,53.2,42.0,30.03,East,90,0.0,0.0,66,0.00,,,0.00,VWS V14.01,2013-04-01 02:25:00,
2013-03-31 21:26:00,53.2,42.0,30.03,East,90,0.0,0.0,66,0.00,,,0.00,VWS V14.01,2013-04-01 02:26:00,
2013-03-31 21:27:00,53.1,41.8,30.03,East,90,0.0,0.0,66,0.00,,,0.00,VWS V14.01,2013-04-01 02:27:00,
2013-03-31 21:28:00,53.1,41.8,30.03,East,90,0.0,0.0,66,0.00,,,0.00,VWS V14.01,2013-04-01 02:28:00,
2013-03-31 21:29:00,53.1,41.8,30.03,East,90,0.0,0.0,66,0.00,,,0.00,VWS V14.01,2013-04-01 02:29:00,
2013-03-31 21:30:00,52.9,41.7,30.03,East,90,0.0,0.0,66,0.00,,,0.00,VWS V14.01,2013-04-01 02:30:00,
2013-03-31 21:31:00,52.7,41.5,30.03,East,90,0.0,0.0,66,0.00,,,0.00,VWS V14.01,2013-04-01 02:31:00,
2013-03-31 21:32:00,52.5,41.3,30.03,East,90,0.0,0.0,66,0.00,,,0.00,VWS V14.01,2013-04-01 02:32:00,
2013-03-31 21:33:00,52.5,41.3,30.03,East,90,0.0,0.0,66,0.00,,,0.00,VWS V14.01,2013-04-01 02:33:00,
2013-03-31 21:34:00,52.5,41.3,30.03,East,90,0.0,0.0,66,0.00,,,0.00,VWS V14.01,2013-04-01 02:34:00,
2013-03-31 21:35:00,52.3,41.1,30.03,East,90,0.0,0.0,66,0.00,,,0.00,VWS V14.01,2013-04-01 02:35:00,
2013-03-31 21:36:00,52.3,41.1,30.03,East,90,0.0,0.0,66,0.00,,,0.00,VWS V14.01,2013-04-01 02:36:00,
2013-03-31 21:37:00,52.3,41.5,30.03,East,90,0.0,0.0,66,0.00,,,0.00,VWS V14.01,2013-04-01 02:37:00,
2013-03-31 21:38:00,52.2,41.4,30.03,East,90,0.0,0.0,66,0.00,,,0.00,VWS V14.01,2013-04-01 02:38:00,
2013-03-31 21:39:00,52.2,41.3,30.03,East,90,0.0,0.0,66,0.00,,,0.00,VWS V14.01,2013-04-01 02:39:00,
2013-03-31 21:40:00,52.2,41.7,30.03,East,90,0.0,0.0,68,0.00,,,0.00,VWS V14.01,2013-04-01 02:40:00,
2013-03-31 21:41:00,52.0,41.6,30.03,East,90,0.0,0.0,68,0.00,,,0.00,VWS V14.01,2013-04-01 02:41:00,
2013-03-31 21:42:00,52.0,41.6,30.03,East,90,0.0,0.0,68,0.00,,,0.00,VWS V14.01,2013-04-01 02:42:00,
2013-03-31 21:43:00,52.0,42.0,30.03,East,90,0.0,0.0,68,0.00,,,0.00,VWS V14.01,2013-04-01 02:43:00,
2013-03-31 21:44:00,52.0,42.0,30.03,East,90,0.0,0.0,68,0.00,,,0.00,VWS V14.01,2013-04-01 02:44:00,
2013-03-31 21:45:00,51.8,41.8,30.03,East,90,0.0,0.0,68,0.00,,,0.00,VWS V14.01,2013-04-01 02:45:00,
2013-03-31 21:46:00,51.6,41.6,30.03,East,90,0.0,0.0,68,0.00,,,0.00,VWS V14.01,2013-04-01 02:46:00,
2013-03-31 21:47:00,51.6,42.0,30.03,East,90,0.0,0.0,70,0.00,,,0.00,VWS V14.01,2013-04-01 02:47:00,
2013-03-31 21:48:00,51.6,42.0,30.03,East,90,0.0,0.0,70,0.00,,,0.00,VWS V14.01,2013-04-01 02:48:00,
2013-03-31 21:49:00,51.6,42.0,30.03,East,90,0.0,0.0,70,0.00,,,0.00,VWS V14.01,2013-04-01 02:49:00,
2013-03-31 21:50:00,51.6,42.3,30.03,East,90,0.0,0.0,70,0.00,,,0.00,VWS V14.01,2013-04-01 02:50:00,
2013-03-31 21:51:00,51.6,42.3,30.03,East,90,0.0,0.0,70,0.00,,,0.00,VWS V14.01,2013-04-01 02:51:00,
2013-03-31 21:52:00,51.6,42.3,30.03,East,90,0.0,0.0,70,0.00,,,0.00,VWS V14.01,2013-04-01 02:52:00,
2013-03-31 21:53:00,51.4,42.2,30.03,East,90,0.0,0.0,70,0.00,,,0.00,VWS V14.01,2013-04-01 02:53:00,
2013-03-31 21:54:00,51.3,42.0,30.03,East,90,0.0,0.0,70,0.00,,,0.00,VWS V14.01,2013-04-01 02:54:00,
2013-03-31 21:55:00,51.3,42.0,30.03,East,90,0.0,0.0,70,0.00,,,0.00,VWS V14.01,2013-04-01 02:55:00,
2013-03-31 21:56:00,51.3,42.0,30.03,East,90,0.0,0.0,70,0.00,,,0.00,VWS V14.01,2013-04-01 02:56:00,
2013-03-31 21:57:00,51.4,41.8,30.03,East,90,0.0,0.0,70,0.00,,,0.00,VWS V14.01,2013-04-01 02:57:00,
2013-03-31 21:58:00,51.6,42.0,30.03,East,90,0.0,0.0,70,0.00,,,0.00,VWS V14.01,2013-04-01 02:58:00,
2013-03-31 21:59:00,51.6,42.0,30.03,East,90,0.0,0.0,70,0.00,,,0.00,VWS V14.01,2013-04-01 02:59:00,
2013-03-31 22:00:00,51.6,42.3,30.03,East,90,0.0,0.0,70,0.00,,,0.00,VWS V14.01,2013-04-01 03:00:00,
2013-03-31 22:01:00,51.3,42.0,30.03,East,90,0.0,0.0,70,0.00,,,0.00,VWS V14.01,2013-04-01 03:01:00,
2013-03-31 22:02:00,51.1,42.2,30.03,East,90,0.0,0.0,72,0.00,,,0.00,VWS V14.01,2013-04-01 03:02:00,
2013-03-31 22:03:00,50.9,42.0,30.03,East,90,0.0,0.0,72,0.00,,,0.00,VWS V14.01,2013-04-01 03:03:00,
2013-03-31 22:04:00,50.9,42.0,30.03,East,90,0.0,0.0,72,0.00,,,0.00,VWS V14.01,2013-04-01 03:04:00,
2013-03-31 22:05:00,50.7,41.8,30.03,East,90,0.0,0.0,72,0.00,,,0.00,VWS V14.01,2013-04-01 03:05:00,
2013-03-31 22:06:00,50.7,41.8,30.03,East,90,0.0,0.0,72,0.00,,,0.00,VWS V14.01,2013-04-01 03:06:00,
2013-03-31 22:07:00,51.1,42.2,30.03,East,90,0.0,0.0,72,0.00,,,0.00,VWS V14.01,2013-04-01 03:07:00,
2013-03-31 22:08:00,51.3,42.7,30.03,East,90,0.0,0.0,72,0.00,,,0.00,VWS V14.01,2013-04-01 03:08:00,
2013-03-31 22:09:00,51.3,43.1,30.03,East,90,0.0,0.0,74,0.00,,,0.00,VWS V14.01,2013-04-01 03:09:00,
2013-03-31 22:10:00,51.3,43.1,30.03,East,90,0.0,0.0,74,0.00,,,0.00,VWS V14.01,2013-04-01 03:10:00,
2013-03-31 22:11:00,51.3,43.1,30.03,East,90,0.0,0.0,74,0.00,,,0.00,VWS V14.01,2013-04-01 03:11:00,
2013-03-31 22:12:00,51.1,43.3,30.03,East,90,0.0,0.0,74,0.00,,,0.00,VWS V14.01,2013-04-01 03:12:00,
2013-03-31 22:13:00,51.1,43.3,30.03,East,90,0.0,0.0,74,0.00,,,0.00,VWS V14.01,2013-04-01 03:13:00,
2013-03-31 22:14:00,51.1,43.3,30.03,East,90,0.0,0.0,74,0.00,,,0.00,VWS V14.01,2013-04-01 03:14:00,
2013-03-31 22:15:00,50.9,43.1,30.03,East,90,0.0,0.0,74,0.00,,,0.00,VWS V14.01,2013-04-01 03:15:00,
2013-03-31 22:16:00,50.9,43.1,30.03,East,90,0.0,0.0,74,0.00,,,0.00,VWS V14.01,2013-04-01 03:16:00,
2013-03-31 22:17:00,50.9,43.1,30.03,East,90,0.0,0.0,74,0.00,,,0.00,VWS V14.01,2013-04-01 03:17:00,
2013-03-31 22:18:00,51.1,43.3,30.03,East,90,0.0,0.0,74,0.00,,,0.00,VWS V14.01,2013-04-01 03:18:00,
2013-03-31 22:19:00,51.1,43.3,30.03,East,90,0.0,0.0,74,0.00,,,0.00,VWS V14.01,2013-04-01 03:19:00,
2013-03-31 22:20:00,51.1,43.3,30.03,East,90,0.0,0.0,74,0.00,,,0.00,VWS V14.01,2013-04-01 03:20:00,
2013-03-31 22:21:00,51.1,42.9,30.03,East,90,0.0,0.0,74,0.00,,,0.00,VWS V14.01,2013-04-01 03:21:00,
2013-03-31 22:22:00,51.1,42.9,30.03,East,90,0.0,0.0,74,0.00,,,0.00,VWS V14.01,2013-04-01 03:22:00,
2013-03-31 22:23:00,50.7,42.9,30.03,East,90,0.0,0.0,74,0.00,,,0.00,VWS V14.01,2013-04-01 03:23:00,
2013-03-31 22:24:00,50.5,42.8,30.03,East,90,0.0,0.0,74,0.00,,,0.00,VWS V14.01,2013-04-01 03:24:00,
2013-03-31 22:25:00,50.5,42.8,30.03,East,90,0.0,0.0,74,0.00,,,0.00,VWS V14.01,2013-04-01 03:25:00,
2013-03-31 22:26:00,50.4,42.6,30.03,East,90,0.0,0.0,74,0.00,,,0.00,VWS V14.01,2013-04-01 03:26:00,
2013-03-31 22:27:00,50.2,42.4,30.03,East,90,0.0,0.0,74,0.00,,,0.00,VWS V14.01,2013-04-01 03:27:00,
2013-03-31 22:28:00,50.2,42.4,30.03,East,90,0.0,0.0,74,0.00,,,0.00,VWS V14.01,2013-04-01 03:28:00,
2013-03-31 22:29:00,50.2,42.4,30.03,East,90,0.0,0.0,74,0.00,,,0.00,VWS V14.01,2013-04-01 03:29:00,
2013-03-31 22:30:00,50.0,42.6,30.03,East,90,0.0,0.0,76,0.00,,,0.00,VWS V14.01,2013-04-01 03:30:00,
2013-03-31 22:31:00,49.8,42.7,30.03,East,90,0.0,0.0,76,0.00,,,0.00,VWS V14.01,2013-04-01 03:31:00,
2013-03-31 22:32:00,49.8,42.7,30.03,East,90,0.0,0.0,76,0.00,,,0.00,VWS V14.01,2013-04-01 03:32:00,
2013-03-31 22:33:00,49.8,42.7,30.03,East,90,0.0,0.0,76,0.00,,,0.00,VWS V14.01,2013-04-01 03:33:00,
2013-03-31 22:34:00,49.8,42.7,30.03,East,90,0.0,0.0,76,0.00,,,0.00,VWS V14.01,2013-04-01 03:34:00,
2013-03-31 22:35:00,49.8,42.7,30.03,East,90,0.0,0.0,76,0.00,,,0.00,VWS V14.01,2013-04-01 03:35:00,
2013-03-31 22:36:00,49.8,42.7,30.03,East,90,0.0,0.0,76,0.00,,,0.00,VWS V14.01,2013-04-01 03:36:00,
2013-03-31 22:37:00,49.6,42.6,30.03,East,90,0.0,0.0,76,0.00,,,0.00,VWS V14.01,2013-04-01 03:37:00,
2013-03-31 22:38:00,49.6,42.6,30.03,East,90,0.0,0.0,76,0.00,,,0.00,VWS V14.01,2013-04-01 03:38:00,
2013-03-31 22:40:00,49.6,42.6,30.03,East,90,0.0,0.0,76,0.00,,,0.00,VWS V14.01,2013-04-01 03:40:00,
2013-03-31 22:41:00,49.1,42.0,30.03,East,90,0.0,0.0,76,0.00,,,0.00,VWS V14.01,2013-04-01 03:41:00,
2013-03-31 22:42:00,48.9,41.9,30.03,East,90,0.0,0.0,76,0.00,,,0.00,VWS V14.01,2013-04-01 03:42:00,
2013-03-31 22:43:00,48.9,41.9,30.03,East,90,0.0,0.0,76,0.00,,,0.00,VWS V14.01,2013-04-01 03:43:00,
2013-03-31 22:44:00,48.7,41.7,30.03,East,90,0.0,0.0,76,0.00,,,0.00,VWS V14.01,2013-04-01 03:44:00,
2013-03-31 22:45:00,48.7,42.0,30.03,East,90,0.0,0.0,78,0.00,,,0.00,VWS V14.01,2013-04-01 03:45:00,
2013-03-31 22:46:00,48.4,41.7,30.03,East,90,0.0,0.0,78,0.00,,,0.00,VWS V14.01,2013-04-01 03:46:00,
2013-03-31 22:47:00,48.4,42.0,30.03,East,90,0.0,0.0,78,0.00,,,0.00,VWS V14.01,2013-04-01 03:47:00,
2013-03-31 22:48:00,48.4,42.0,30.03,East,90,0.0,0.0,78,0.00,,,0.00,VWS V14.01,2013-04-01 03:48:00,
2013-03-31 22:49:00,48.2,41.8,30.03,East,90,0.0,0.0,78,0.00,,,0.00,VWS V14.01,2013-04-01 03:49:00,
2013-03-31 22:50:00,48.2,41.8,30.03,East,90,0.0,0.0,78,0.00,,,0.00,VWS V14.01,2013-04-01 03:50:00,
2013-03-31 22:51:00,48.4,42.3,30.03,East,90,0.0,0.0,80,0.00,,,0.00,VWS V14.01,2013-04-01 03:51:00,
2013-03-31 22:52:00,48.2,42.2,30.03,East,90,0.0,0.0,80,0.00,,,0.00,VWS V14.01,2013-04-01 03:52:00,
2013-03-31 22:53:00,48.0,42.3,30.03,East,90,0.0,0.0,80,0.00,,,0.00,VWS V14.01,2013-04-01 03:53:00,
2013-03-31 22:54:00,48.0,42.6,30.03,East,90,0.0,0.0,82,0.00,,,0.00,VWS V14.01,2013-04-01 03:54:00,
2013-03-31 22:55:00,47.8,42.5,30.03,East,90,0.0,0.0,82,0.00,,,0.00,VWS V14.01,2013-04-01 03:55:00,
2013-03-31 22:56:00,47.8,42.5,30.03,East,90,0.0,0.0,82,0.00,,,0.00,VWS V14.01,2013-04-01 03:56:00,
2013-03-31 22:57:00,47.8,42.5,30.03,East,90,0.0,0.0,82,0.00,,,0.00,VWS V14.01,2013-04-01 03:57:00,
2013-03-31 22:58:00,48.0,43.0,30.03,East,90,0.0,0.0,82,0.00,,,0.00,VWS V14.01,2013-04-01 03:58:00,
2013-03-31 22:59:00,48.0,43.0,30.03,East,90,0.0,0.0,82,0.00,,,0.00,VWS V14.01,2013-04-01 03:59:00,
2013-03-31 23:00:00,47.8,42.8,30.03,East,90,0.0,0.0,82,0.00,,,0.00,VWS V14.01,2013-04-01 04:00:00,
2013-03-31 23:01:00,47.8,43.1,30.03,East,90,0.0,0.0,84,0.00,,,0.00,VWS V14.01,2013-04-01 04:01:00,
2013-03-31 23:02:00,47.8,43.1,30.03,East,90,0.0,0.0,84,0.00,,,0.00,VWS V14.01,2013-04-01 04:02:00,
2013-03-31 23:03:00,47.8,43.1,30.03,East,90,0.0,0.0,84,0.00,,,0.00,VWS V14.01,2013-04-01 04:03:00,
2013-03-31 23:04:00,47.8,43.1,30.03,East,90,0.0,0.0,84,0.00,,,0.00,VWS V14.01,2013-04-01 04:04:00,
2013-03-31 23:05:00,47.8,43.1,30.03,East,90,0.0,0.0,84,0.00,,,0.00,VWS V14.01,2013-04-01 04:05:00,
2013-03-31 23:06:00,47.8,43.1,30.03,East,90,0.0,0.0,84,0.00,,,0.00,VWS V14.01,2013-04-01 04:06:00,
2013-03-31 23:07:00,47.8,43.1,30.03,East,90,0.0,0.0,84,0.00,,,0.00,VWS V14.01,2013-04-01 04:07:00,
2013-03-31 23:08:00,47.8,43.1,30.03,East,90,0.0,0.0,84,0.00,,,0.00,VWS V14.01,2013-04-01 04:08:00,
2013-03-31 23:09:00,47.7,42.9,30.03,East,90,0.0,0.0,84,0.00,,,0.00,VWS V14.01,2013-04-01 04:09:00,
2013-03-31 23:10:00,47.7,42.9,30.03,East,90,0.0,0.0,84,0.00,,,0.00,VWS V14.01,2013-04-01 04:10:00,
2013-03-31 23:11:00,47.8,43.4,30.03,East,90,0.0,0.0,84,0.00,,,0.00,VWS V14.01,2013-04-01 04:11:00,
2013-03-31 23:12:00,48.0,43.6,30.03,East,90,0.0,0.0,84,0.00,,,0.00,VWS V14.01,2013-04-01 04:12:00,
2013-03-31 23:13:00,48.0,43.6,30.03,East,90,0.0,0.0,84,0.00,,,0.00,VWS V14.01,2013-04-01 04:13:00,
2013-03-31 23:14:00,48.0,43.6,30.03,East,90,0.0,0.0,84,0.00,,,0.00,VWS V14.01,2013-04-01 04:14:00,
2013-03-31 23:15:00,47.8,43.1,30.03,East,90,0.0,0.0,84,0.00,,,0.00,VWS V14.01,2013-04-01 04:15:00,
2013-03-31 23:16:00,47.8,43.1,30.03,East,90,0.0,0.0,84,0.00,,,0.00,VWS V14.01,2013-04-01 04:16:00,
2013-03-31 23:17:00,47.8,43.1,30.03,East,90,0.0,0.0,84,0.00,,,0.00,VWS V14.01,2013-04-01 04:17:00,
2013-03-31 23:18:00,47.7,42.9,30.03,East,90,0.0,0.0,84,0.00,,,0.00,VWS V14.01,2013-04-01 04:18:00,
2013-03-31 23:19:00,47.5,42.7,30.03,East,90,0.0,0.0,84,0.00,,,0.00,VWS V14.01,2013-04-01 04:19:00,
2013-03-31 23:20:00,47.3,42.6,30.03,East,90,0.0,0.0,84,0.00,,,0.00,VWS V14.01,2013-04-01 04:20:00,
2013-03-31 23:21:00,47.3,42.6,30.03,East,90,0.0,0.0,84,0.00,,,0.00,VWS V14.01,2013-04-01 04:21:00,
2013-03-31 23:22:00,47.3,42.6,30.03,East,90,0.0,0.0,84,0.00,,,0.00,VWS V14.01,2013-04-01 04:22:00,
2013-03-31 23:23:00,47.3,42.6,30.03,East,90,0.0,0.0,84,0.00,,,0.00,VWS V14.01,2013-04-01 04:23:00,
2013-03-31 23:24:00,47.3,42.6,30.03,East,90,0.0,0.0,84,0.00,,,0.00,VWS V14.01,2013-04-01 04:24:00,
2013-03-31 23:25:00,47.3,42.6,30.03,East,90,0.0,0.0,84,0.00,,,0.00,VWS V14.01,2013-04-01 04:25:00,
2013-03-31 23:26:00,47.1,42.7,30.03,East,90,0.0,0.0,84,0.00,,,0.00,VWS V14.01,2013-04-01 04:26:00,
2013-03-31 23:27:00,47.1,42.7,30.03,East,90,0.0,0.0,84,0.00,,,0.00,VWS V14.01,2013-04-01 04:27:00,
2013-03-31 23:28:00,47.1,42.7,30.03,East,90,0.0,0.0,84,0.00,,,0.00,VWS V14.01,2013-04-01 04:28:00,
2013-03-31 23:29:00,46.9,42.5,30.03,East,90,0.0,0.0,84,0.00,,,0.00,VWS V14.01,2013-04-01 04:29:00,
2013-03-31 23:30:00,46.9,42.5,30.03,East,90,0.0,0.0,84,0.00,,,0.00,VWS V14.01,2013-04-01 04:30:00,
2013-03-31 23:31:00,46.9,42.5,30.03,East,90,0.0,0.0,84,0.00,,,0.00,VWS V14.01,2013-04-01 04:31:00,
2013-03-31 23:32:00,46.9,42.5,30.03,East,90,0.0,0.0,84,0.00,,,0.00,VWS V14.01,2013-04-01 04:32:00,
2013-03-31 23:33:00,46.9,42.5,30.03,East,90,0.0,0.0,84,0.00,,,0.00,VWS V14.01,2013-04-01 04:33:00,
2013-03-31 23:34:00,46.8,42.7,30.03,East,90,0.0,0.0,86,0.00,,,0.00,VWS V14.01,2013-04-01 04:34:00,
2013-03-31 23:35:00,46.8,42.7,30.03,East,90,0.0,0.0,86,0.00,,,0.00,VWS V14.01,2013-04-01 04:35:00,
2013-03-31 23:36:00,46.8,42.7,30.03,East,90,0.0,0.0,86,0.00,,,0.00,VWS V14.01,2013-04-01 04:36:00,
2013-03-31 23:37:00,46.8,42.7,30.03,East,90,0.0,0.0,86,0.00,,,0.00,VWS V14.01,2013-04-01 04:37:00,
2013-03-31 23:38:00,46.8,42.7,30.03,East,90,0.0,0.0,86,0.00,,,0.00,VWS V14.01,2013-04-01 04:38:00,
2013-03-31 23:39:00,46.8,42.7,30.03,East,90,0.0,0.0,86,0.00,,,0.00,VWS V14.01,2013-04-01 04:39:00,
2013-03-31 23:40:00,46.6,42.5,30.03,East,90,0.0,0.0,86,0.00,,,0.00,VWS V14.01,2013-04-01 04:40:00,
2013-03-31 23:41:00,46.6,42.5,30.03,East,90,0.0,0.0,86,0.00,,,0.00,VWS V14.01,2013-04-01 04:41:00,
2013-03-31 23:42:00,46.6,42.8,30.03,East,90,0.0,0.0,86,0.00,,,0.00,VWS V14.01,2013-04-01 04:42:00,
2013-03-31 23:43:00,46.8,43.0,30.03,East,90,0.0,0.0,86,0.00,,,0.00,VWS V14.01,2013-04-01 04:43:00,
2013-03-31 23:44:00,46.8,43.0,30.03,East,90,0.0,0.0,86,0.00,,,0.00,VWS V14.01,2013-04-01 04:44:00,
2013-03-31 23:45:00,46.6,42.8,30.03,East,90,0.0,0.0,86,0.00,,,0.00,VWS V14.01,2013-04-01 04:45:00,
2013-03-31 23:46:00,46.6,42.8,30.03,East,90,0.0,0.0,86,0.00,,,0.00,VWS V14.01,2013-04-01 04:46:00,
2013-03-31 23:47:00,46.4,42.6,30.03,East,90,0.0,0.0,86,0.00,,,0.00,VWS V14.01,2013-04-01 04:47:00,
2013-03-31 23:48:00,46.2,42.4,30.03,East,90,0.0,0.0,86,0.00,,,0.00,VWS V14.01,2013-04-01 04:48:00,
2013-03-31 23:49:00,46.2,42.4,30.03,East,90,0.0,0.0,86,0.00,,,0.00,VWS V14.01,2013-04-01 04:49:00,
2013-03-31 23:50:00,46.2,42.7,30.03,East,90,0.0,0.0,88,0.00,,,0.00,VWS V14.01,2013-04-01 04:50:00,
2013-03-31 23:51:00,46.2,42.7,30.03,East,90,0.0,0.0,88,0.00,,,0.00,VWS V14.01,2013-04-01 04:51:00,
2013-03-31 23:52:00,46.2,42.7,30.03,East,90,0.0,0.0,88,0.00,,,0.00,VWS V14.01,2013-04-01 04:52:00,
2013-03-31 23:53:00,46.2,42.7,30.03,East,90,0.0,0.0,88,0.00,,,0.00,VWS V14.01,2013-04-01 04:53:00,
2013-03-31 23:54:00,46.2,43.0,30.03,East,90,0.0,0.0,88,0.00,,,0.00,VWS V14.01,2013-04-01 04:54:00,
2013-03-31 23:55:00,46.2,43.0,30.03,East,90,0.0,0.0,88,0.00,,,0.00,VWS V14.01,2013-04-01 04:55:00,
2013-03-31 23:56:00,46.0,42.8,30.03,East,90,0.0,0.0,88,0.00,,,0.00,VWS V14.01,2013-04-01 04:56:00,
2013-03-31 23:57:00,45.9,42.7,30.03,East,90,0.0,0.0,88,0.00,,,0.00,VWS V14.01,2013-04-01 04:57:00,
2013-03-31 23:58:00,45.9,42.7,30.03,East,90,0.0,0.0,88,0.00,,,0.00,VWS V14.01,2013-04-01 04:58:00,
2013-03-31 23:59:00,45.9,42.7,30.03,East,90,0.0,0.0,88,0.00,,,0.00,VWS V14.01,2013-04-01 04:59:00,